GFSSE_700_spd_000.txt.gz
Wind_Speed
11 13 14 15 15 14 14 13 12 12 10 7 6 6 7 7 8 8 8 7 6 5 6 7 7 8 10 13 13 15 14 16 17 16 17 17 16 16 15 15 16 14 14
11 13 14 15 14 14 14 13 12 12 11 8 5 5 5 6 9 8 8 7 7 7 8 8 8 11 12 13 14 15 16 17 18 18 16 18 18 17 16 17 16 14 13
9 11 12 13 14 14 14 13 12 10 9 8 6 5 5 6 8 8 9 8 8 8 9 10 10 12 12 14 15 16 17 19 20 19 17 19 19 19 18 18 18 17 14
9 9 11 13 14 14 13 13 12 11 10 9 7 6 6 6 7 9 10 8 9 9 10 11 12 14 14 15 16 17 19 20 20 21 19 20 19 17 20 19 19 20 20
8 10 11 13 14 15 14 13 13 12 11 10 9 9 8 8 9 10 11 10 11 12 12 14 15 16 16 17 18 19 20 21 22 22 22 21 20 21 20 21 20 21 22
7 8 11 13 14 15 16 15 14 14 13 12 11 10 10 10 12 12 13 13 13 14 15 16 17 18 18 19 19 20 21 21 22 23 23 21 21 22 20 23 22 22 23
8 8 10 12 14 15 16 17 17 16 15 13 13 12 11 11 13 14 15 14 15 16 17 18 19 20 21 21 21 20 21 22 22 24 24 23 21 21 22 23 23 24 25
9 9 10 12 14 15 16 18 18 18 18 17 15 14 14 14 14 15 16 16 17 18 19 19 20 21 21 21 21 20 20 21 21 23 24 26 25 24 25 24 25 26 26
11 12 11 14 15 16 17 20 21 21 19 19 18 17 15 15 16 16 17 17 18 18 18 19 19 19 19 20 20 21 21 22 21 22 23 24 24 25 25 26 27 28 28
13 13 13 15 16 16 18 21 22 22 22 20 20 19 17 15 15 16 16 17 18 18 19 19 19 19 20 20 20 21 21 21 21 21 21 22 23 24 24 24 26 27 28
13 14 16 18 16 16 18 21 22 22 21 21 19 19 17 16 16 15 15 15 15 16 16 17 17 17 17 18 19 20 20 20 21 21 21 21 21 23 24 24 26 27 28
13 13 14 16 17 19 21 21 20 20 21 21 19 18 18 16 16 16 15 16 15 15 15 17 18 19 21 21 22 23 23 24 25 23 23 24 25 26 27 29 29 29 29
13 13 15 16 17 18 20 20 19 21 21 20 19 19 18 18 18 18 18 17 18 18 19 21 22 24 25 25 26 27 29 30 30 30 30 30 30 31 31 31 33 34 34
15 15 14 18 19 20 19 19 19 21 21 20 17 18 18 18 18 19 20 21 22 23 23 25 27 28 29 30 30 30 30 31 32 32 32 32 32 32 33 33 34 35 37
18 17 18 20 20 20 20 18 21 21 21 20 19 16 16 18 19 20 21 22 23 25 27 29 30 30 30 30 30 30 31 31 32 32 33 33 34 34 35 36 37 38 39
26 23 23 24 22 20 20 20 22 22 22 21 19 18 17 18 20 21 23 24 26 27 29 30 31 31 32 32 33 35 34 33 34 35 36 37 38 38 38 38 39 40 40
27 26 27 27 23 22 20 22 24 22 22 20 19 19 20 20 22 24 25 26 27 29 31 31 32 33 35 36 37 37 37 35 35 35 37 39 39 41 41 41 40 40 42
29 29 27 24 22 21 21 22 23 21 21 20 20 20 21 22 24 26 27 29 31 33 34 35 36 37 38 39 39 39 40 40 39 39 40 40 41 41 38 39 35 37 36
30 26 23 20 19 20 21 20 19 18 18 19 20 21 22 23 26 28 30 31 34 36 36 37 38 40 41 42 43 42 40 39 38 39 39 38 36 35 36 38 34 42 41
21 18 17 16 18 17 15 15 15 15 16 19 21 22 24 25 28 29 30 31 33 36 38 39 41 42 44 43 41 39 38 37 36 37 38 37 35 37 39 39 37 40 40
14 14 15 17 14 12 11 10 12 15 17 20 21 23 24 26 27 29 31 33 35 38 41 43 42 40 38 39 39 38 38 36 37 36 36 35 35 35 35 38 39 39 39
15 15 14 11 9 9 9 11 14 16 18 19 21 21 22 25 27 29 32 35 38 39 38 36 36 36 35 37 41 43 45 41 39 38 40 39 39 39 39 40 42 44 45
14 13 12 10 8 9 10 12 14 15 16 17 18 19 21 25 28 32 34 35 33 31 33 33 33 35 36 35 36 41 46 49 50 44 43 42 43 44 45 46 46 48 50
15 14 12 10 9 8 8 9 11 12 13 15 17 21 25 28 31 32 30 29 32 32 32 32 34 36 38 38 36 35 37 41 47 57 53 50 50 51 51 53 54 54 55
16 14 12 10 8 6 6 8 10 11 14 17 21 25 28 30 29 28 29 31 31 32 33 34 35 35 36 37 38 39 39 40 42 49 60 58 57 56 56 56 57 58 59
17 16 13 11 8 5 7 10 13 14 17 21 24 27 28 29 28 29 31 33 34 34 34 35 35 36 37 38 38 40 42 45 48 52 57 60 62 60 59 59 61 61 59

GFSSE_700_spd_003.txt.gz
Wind_Speed
10 12 14 15 15 15 14 14 13 12 11 9 6 6 6 6 8 8 8 9 8 7 7 7 7 8 9 9 11 11 11 14 16 17 17 17 18 16 15 15 17 15 16
9 11 13 14 15 15 15 14 14 13 12 10 7 6 6 6 7 7 8 8 8 7 7 7 8 9 10 11 12 13 13 14 16 18 18 18 18 18 17 18 17 17 17
7 9 12 14 15 16 17 17 17 16 14 12 9 7 5 6 7 6 8 8 8 8 8 8 9 10 10 12 13 14 15 16 17 19 19 19 18 20 18 19 18 19 20
5 8 10 12 14 16 17 17 17 18 17 15 12 10 8 7 7 8 8 8 9 9 10 10 10 12 12 13 15 16 17 17 19 18 20 19 19 20 21 18 19 19 21
4 6 8 11 13 15 17 18 18 18 17 17 16 13 11 9 9 10 10 10 10 10 12 13 13 14 15 15 16 17 19 19 20 19 20 18 19 20 19 19 20 20 21
5 4 7 10 12 14 16 19 20 19 18 17 17 16 14 13 12 12 12 12 13 13 14 14 14 16 16 17 18 19 20 21 20 20 21 19 19 22 22 19 21 21 22
7 8 8 10 12 13 14 17 20 20 20 19 17 16 16 14 13 12 11 11 14 14 15 16 16 16 16 17 17 17 17 17 17 18 18 20 19 20 22 21 21 22 23
7 8 9 11 12 12 13 16 19 20 20 19 17 16 15 14 13 13 12 12 12 13 14 14 14 14 15 14 15 15 16 16 16 17 17 18 19 18 20 21 21 22 23
9 9 9 11 12 12 13 16 19 20 20 20 20 17 15 14 13 11 11 10 10 10 11 12 13 14 14 14 15 15 15 15 15 15 16 17 17 18 18 19 19 21 22
10 9 9 11 12 12 13 15 19 19 19 21 20 17 14 13 12 11 11 10 10 10 10 10 10 11 12 13 14 14 15 15 16 16 16 16 17 18 19 19 19 20 22
13 12 9 10 11 11 13 16 17 18 18 18 16 15 14 12 11 12 10 10 10 10 9 10 12 13 14 16 17 19 19 20 20 20 19 19 20 21 21 22 23 23 24
14 13 10 8 9 11 13 16 17 17 18 17 14 12 12 11 10 10 11 11 12 13 14 15 16 18 20 21 22 23 24 24 24 24 24 23 24 25 25 26 26 27 29
15 13 11 11 11 13 14 16 17 17 19 18 15 12 12 10 11 13 15 16 16 17 18 19 20 21 22 22 21 20 20 21 22 22 22 23 23 24 26 27 27 28 28
17 15 13 13 14 15 16 17 20 18 20 18 15 12 12 13 14 15 17 19 21 20 21 23 24 25 26 26 27 27 27 27 27 27 26 26 25 26 27 28 28 30 31
19 18 14 15 18 19 18 20 20 20 21 20 17 16 15 16 16 17 20 21 23 25 26 28 29 29 29 29 29 30 30 29 29 29 29 30 31 31 32 31 31 32 32
23 22 21 19 20 23 22 19 19 19 20 19 18 17 17 18 19 20 21 21 24 26 27 28 30 31 33 34 33 33 33 33 32 32 33 33 35 36 37 37 33 31 32
23 22 21 22 24 25 24 21 19 19 20 19 18 18 18 19 21 23 24 25 27 30 30 32 32 33 35 36 36 37 37 37 36 35 34 34 34 33 34 34 33 25 26
25 25 24 26 26 25 21 20 19 20 20 18 17 18 21 22 23 24 25 28 31 32 33 34 35 35 37 38 38 36 34 33 33 34 33 32 32 32 32 32 32 33 31
24 26 27 27 25 22 19 18 18 16 16 16 18 20 22 22 23 25 27 29 31 33 34 36 37 39 40 37 34 32 32 31 33 33 33 33 32 33 32 32 33 32 32
23 25 24 23 18 16 15 16 15 14 14 17 19 21 22 23 24 26 27 29 31 34 36 38 38 36 34 33 33 31 32 32 33 32 32 31 31 31 32 32 33 32 31
19 18 16 14 13 14 13 12 12 13 15 17 19 20 21 21 23 25 27 30 33 35 36 32 29 30 30 31 33 32 30 30 29 30 29 29 28 29 30 31 34 36 38
15 14 12 13 13 12 11 11 12 14 15 16 17 18 18 20 22 26 29 31 32 29 27 29 29 28 29 34 36 35 35 31 32 32 31 33 34 35 36 38 39 39 39
15 14 13 13 12 11 11 11 12 12 13 14 15 15 17 21 25 28 29 28 26 28 29 29 28 29 29 29 33 38 41 42 43 37 35 38 41 42 43 44 44 43 43
17 15 14 13 12 11 10 9 8 8 10 12 14 18 21 24 25 26 25 25 27 28 28 28 29 31 32 31 30 32 35 40 44 54 46 42 44 46 47 46 46 45 45
19 17 15 14 12 10 8 5 5 8 12 15 18 20 22 23 24 24 24 26 28 29 29 30 31 32 34 35 36 37 37 37 39 46 58 54 51 49 49 48 47 46 46
22 20 18 15 12 10 6 5 7 11 14 17 20 22 22 23 25 27 29 30 31 32 33 33 33 34 35 36 37 38 41 43 45 48 53 57 59 57 54 51 50 49 50

GFSSE_700_spd_006.txt.gz
Wind_Speed
7 10 11 13 14 15 15 16 16 14 13 13 12 8 5 7 7 6 7 6 7 8 8 8 8 8 8 8 8 9 11 13 13 13 14 15 15 14 14 15 17 14 15
6 8 10 12 14 15 15 16 16 16 16 14 13 12 9 7 6 6 6 6 7 7 8 8 7 8 7 8 8 9 10 11 13 14 14 14 13 13 14 15 15 15 15
5 6 8 10 12 14 16 16 16 16 16 16 14 13 12 10 7 6 6 5 7 8 7 7 8 8 8 9 10 11 11 12 13 14 15 14 12 13 13 14 14 16 16
4 4 7 8 11 13 15 16 17 17 16 16 15 14 13 12 10 7 6 7 7 8 9 8 9 10 11 12 12 13 13 13 15 15 16 16 15 13 14 13 14 16 18
4 3 6 7 9 11 13 15 17 17 16 15 15 14 13 12 11 9 7 7 7 8 10 11 11 11 12 12 12 13 13 14 14 16 15 15 14 13 13 15 14 16 19
5 3 5 6 8 10 11 14 17 17 17 16 14 14 13 12 11 10 7 7 8 8 10 11 11 12 12 12 13 13 13 14 13 14 14 14 14 16 15 15 14 17 19
7 5 5 7 8 8 9 12 15 17 17 17 16 13 12 11 9 8 6 4 5 7 8 9 9 9 9 9 9 10 11 11 12 13 14 15 13 14 16 15 15 16 19
9 6 4 6 8 8 8 12 14 16 17 17 17 15 12 9 8 7 7 6 6 7 7 7 7 8 8 8 9 10 11 11 12 13 13 14 14 14 15 16 15 16 18
10 8 5 5 7 7 8 11 14 15 16 18 17 14 12 9 7 7 6 5 5 6 7 8 8 8 8 9 10 10 11 11 12 12 13 14 15 14 14 14 17 18 18
11 10 6 6 7 7 8 10 13 14 16 18 16 13 11 9 8 7 6 6 6 7 7 8 9 10 11 12 13 14 14 15 15 15 16 17 18 18 18 19 19 19 19
12 11 8 8 7 7 8 10 12 13 15 17 15 12 10 9 9 8 8 9 10 10 11 12 13 15 16 18 19 20 20 19 19 19 19 20 21 22 23 23 23 23 24
14 13 12 10 9 9 8 10 12 15 16 16 14 12 10 10 9 9 10 11 12 14 16 17 17 19 20 20 20 20 19 19 19 19 19 19 21 22 23 24 24 24 24
18 16 14 12 11 10 10 10 13 16 17 16 14 11 10 10 10 10 12 13 14 15 16 17 18 17 17 18 18 19 20 21 21 21 21 21 22 22 23 23 23 24 25
20 21 18 15 13 11 12 14 17 18 18 16 15 15 14 13 13 13 15 16 16 17 17 17 19 20 22 23 24 25 25 26 26 26 25 26 26 27 27 27 26 27 26
21 21 19 18 15 14 15 17 18 18 17 17 17 16 15 14 15 15 16 18 18 18 20 22 24 26 27 26 26 27 27 27 28 29 29 29 30 30 30 30 30 30 29
28 25 23 20 18 18 18 20 21 19 17 18 18 18 17 17 19 18 19 20 20 21 23 25 26 27 28 28 28 29 29 29 29 28 27 27 28 29 29 30 30 31 30
28 26 26 24 21 20 21 23 22 18 18 18 20 18 18 20 20 21 21 22 23 24 26 27 28 29 30 31 31 29 27 26 26 27 27 27 28 29 29 29 30 31 28
27 25 27 24 23 23 24 24 21 18 18 19 18 18 19 20 21 22 22 23 25 26 27 28 29 31 32 30 26 25 26 28 28 28 28 29 29 28 28 29 30 31 32
24 27 28 28 27 25 25 21 17 17 18 17 18 19 20 20 21 22 23 24 25 27 28 31 33 31 27 26 27 26 26 28 28 28 27 28 28 27 28 28 28 29 30
23 26 30 31 28 23 19 17 17 18 17 17 18 18 20 20 20 21 22 24 26 28 31 31 28 27 29 27 27 26 28 29 27 26 26 27 28 29 29 30 30 30 32
24 28 30 28 20 16 15 16 17 15 15 15 16 18 19 19 19 21 23 26 28 30 27 23 26 27 29 28 28 27 26 28 27 27 27 27 28 28 28 30 31 34 35
22 24 23 19 16 15 16 16 15 14 13 14 15 16 16 17 19 23 25 27 28 26 25 26 26 26 29 32 33 32 31 28 29 30 29 30 32 33 34 36 37 39 41
19 17 17 16 16 16 16 14 13 13 13 13 13 14 15 19 22 24 26 25 25 25 26 27 28 28 29 32 36 38 40 40 40 35 35 35 39 40 41 43 45 45 46
19 19 19 18 18 16 14 13 13 10 9 10 12 15 18 21 23 23 23 23 23 24 27 28 30 31 32 33 34 35 38 43 46 52 41 40 42 45 46 48 49 50 50
22 22 20 18 17 15 14 12 9 8 8 11 13 17 19 21 21 21 22 23 26 28 30 31 33 35 36 36 37 37 38 39 43 49 57 53 50 49 50 51 50 50 51
24 24 21 19 17 15 13 11 8 8 9 11 14 17 19 20 21 23 25 27 30 32 33 35 36 37 37 38 39 40 42 44 46 50 55 59 62 62 60 57 53 51 49

GFSSE_700_spd_009.txt.gz
Wind_Speed
4 6 8 9 11 12 12 12 13 14 13 13 12 11 9 8 9 7 5 3 4 5 6 7 6 6 6 5 5 6 8 10 9 8 10 11 11 11 11 10 10 10 10
3 5 7 9 10 11 12 12 13 14 14 13 13 11 10 9 7 6 5 3 3 4 5 5 5 5 6 6 6 7 9 10 11 10 10 11 11 11 11 10 9 10 10
2 5 5 7 8 10 12 13 14 13 13 13 13 12 11 10 8 6 4 3 5 5 5 5 6 6 7 8 9 9 9 10 10 11 12 12 12 11 12 12 10 11 10
2 3 4 5 6 8 11 13 14 14 14 12 11 11 11 10 8 6 4 3 4 5 6 6 7 7 9 9 10 10 11 12 12 13 14 14 13 13 13 13 13 12 12
4 3 4 5 5 7 9 12 14 15 14 13 12 11 9 7 6 5 3 3 5 6 8 9 9 10 10 10 11 11 12 13 13 14 14 14 14 13 14 14 14 14 14
6 3 3 3 5 6 8 10 13 15 15 15 14 12 10 8 6 5 3 3 5 7 8 9 10 11 11 11 12 12 12 12 12 12 12 12 13 14 13 14 15 16 17
8 5 3 3 3 5 6 9 12 14 15 16 16 13 11 8 6 4 3 3 4 5 7 7 8 9 9 9 10 10 11 12 12 13 14 14 14 14 15 14 15 15 15
11 8 6 4 3 4 4 8 11 12 14 17 16 14 13 10 8 6 4 4 5 6 7 8 8 9 9 10 11 11 12 13 14 14 14 15 14 14 15 15 15 16 16
13 10 8 6 4 4 4 7 10 11 13 15 16 14 13 12 10 8 7 6 6 7 8 8 8 9 9 10 11 13 14 15 16 17 17 18 17 18 17 16 16 17 17
13 12 10 9 5 5 5 6 9 10 13 15 15 13 11 11 9 7 6 6 6 6 7 8 10 10 11 12 13 13 14 15 16 18 19 20 21 21 21 21 20 20 20
12 12 11 11 8 7 6 6 8 10 13 14 14 13 11 10 9 9 8 8 9 9 10 11 11 12 12 13 14 14 14 15 15 16 17 20 21 21 22 22 23 23 25
13 13 12 13 12 10 7 7 8 11 13 14 13 12 12 13 12 11 11 11 11 13 13 14 14 14 14 14 14 15 15 15 16 18 19 21 23 23 23 23 23 24 25
18 17 14 15 15 12 10 9 9 13 14 15 13 12 11 12 13 14 13 14 14 15 15 15 15 15 16 16 17 17 19 19 20 20 20 21 22 23 23 24 25 27 28
20 18 18 17 16 15 13 11 12 14 15 15 14 14 14 13 13 14 15 16 16 16 15 15 17 18 19 20 21 21 22 22 23 23 23 24 25 25 26 27 27 29 30
26 18 18 20 20 18 16 14 15 16 17 16 16 17 16 15 16 15 15 17 17 16 18 19 21 22 21 22 23 23 25 26 26 25 24 24 24 25 26 27 28 28 29
26 24 22 22 23 22 20 18 18 18 19 17 18 18 17 17 17 17 18 18 18 19 20 21 22 23 23 23 25 26 25 23 22 22 23 25 26 27 27 28 29 29 30
31 29 30 27 27 25 24 22 22 21 20 19 19 19 18 18 19 19 19 19 21 22 22 23 24 25 25 27 25 22 22 23 23 24 25 26 27 28 29 29 30 31 31
24 26 30 30 30 30 28 25 24 23 21 19 20 19 19 19 20 20 21 22 22 24 24 25 26 28 27 22 21 24 24 24 25 26 27 28 27 27 28 28 29 30 32
22 24 26 30 31 31 30 27 24 22 20 20 20 19 19 19 20 20 22 22 23 24 26 28 29 26 22 23 23 25 25 25 26 27 27 27 28 29 29 30 30 31 32
19 21 24 28 32 31 29 27 23 20 21 21 19 18 18 19 19 20 22 22 24 27 28 29 26 24 24 24 24 25 27 27 27 27 28 27 29 30 30 32 32 33 34
22 23 25 27 29 29 26 24 20 20 21 19 17 16 17 18 19 20 21 24 27 28 27 25 25 26 27 26 26 25 28 29 29 29 28 29 30 32 33 34 35 36 37
23 25 27 28 25 22 23 22 21 21 19 16 15 16 16 17 18 21 24 26 26 25 25 25 26 28 29 30 31 32 32 30 31 32 32 32 34 34 35 38 39 41 43
23 24 23 23 21 22 23 22 21 18 15 15 15 13 14 17 20 22 24 24 24 24 24 25 26 28 31 34 36 38 40 41 41 36 34 35 37 38 39 42 44 46 49
20 20 19 19 20 21 21 19 18 16 14 13 11 12 15 19 21 22 23 23 23 23 24 26 29 31 34 36 37 38 39 42 46 50 42 39 40 42 44 46 48 50 52
21 18 19 20 21 21 19 18 16 14 11 10 11 13 16 19 21 21 22 23 24 25 27 30 33 35 37 39 40 40 39 41 43 49 53 47 44 46 49 52 54 55 55
24 20 23 24 22 21 20 17 15 12 9 9 11 14 16 19 21 23 24 26 27 29 31 33 36 39 40 40 40 40 42 44 46 49 54 56 59 58 57 58 58 58 57

GFSSE_700_spd_012.txt.gz
Wind_Speed
1 3 6 8 9 9 10 10 10 10 11 11 11 11 10 8 5 4 2 1 2 1 2 2 3 3 3 4 5 7 8 9 10 11 11 10 10 10 10 9 9 8 6
1 3 5 7 7 8 10 10 9 10 10 11 11 10 8 8 7 4 2 2 2 2 2 2 3 3 4 4 6 8 9 11 11 10 11 11 12 12 12 12 11 9 9
2 3 5 6 6 7 9 10 11 11 11 10 10 9 9 7 5 3 1 1 1 1 2 3 4 5 6 6 7 9 10 11 11 12 13 13 13 14 14 14 13 12 11
1 3 3 4 4 6 7 10 11 12 12 11 10 8 6 6 5 2 1 1 1 2 3 4 5 6 7 8 9 10 11 12 12 14 14 15 16 15 16 16 15 14 13
3 2 2 2 3 4 6 9 10 12 13 13 11 9 6 4 2 2 1 2 2 3 4 5 6 7 8 9 10 11 13 14 14 15 15 16 16 16 16 16 16 16 15
4 4 2 2 2 3 5 8 10 11 13 15 14 12 10 7 3 2 1 1 2 3 5 6 7 8 9 9 10 11 12 13 13 13 14 14 15 14 16 16 16 17 16
7 6 4 4 2 3 4 7 9 11 13 15 15 14 13 9 6 3 2 2 2 2 3 5 6 7 8 9 9 10 11 12 13 14 14 15 15 16 16 16 17 17 17
10 9 7 6 4 3 3 5 8 9 12 14 15 14 13 12 9 6 3 1 1 2 4 5 6 7 7 8 9 10 11 12 14 15 15 16 17 16 16 16 17 17 17
13 12 9 9 7 5 4 4 6 8 10 13 14 13 12 11 10 9 7 5 5 4 4 4 5 6 7 8 9 10 11 12 13 15 16 17 16 16 17 17 17 18 18
15 13 12 11 10 8 6 4 5 6 8 11 13 12 12 10 9 8 6 5 6 6 7 8 8 8 9 9 9 10 11 12 12 14 15 17 17 17 17 18 19 19 20
14 14 14 13 12 11 8 7 4 6 8 10 11 12 12 11 9 8 8 8 8 9 9 9 9 9 9 10 11 12 13 13 14 15 17 18 19 18 19 19 19 18 19
15 14 14 14 15 13 11 10 7 7 9 10 11 12 12 13 12 10 10 10 11 12 11 11 10 10 11 13 15 15 16 17 18 19 20 21 22 22 22 22 22 22 23
19 18 15 15 16 16 15 14 11 10 10 11 11 12 13 13 13 13 13 13 13 14 13 14 14 15 13 15 16 18 18 19 20 21 22 23 24 24 24 24 26 27 27
20 21 19 16 16 17 18 17 15 13 12 13 13 14 15 14 13 13 14 14 15 15 16 16 16 18 17 18 19 20 20 21 23 24 24 24 23 23 24 26 26 27 29
27 24 20 19 17 18 19 19 18 16 16 15 15 17 17 16 15 14 15 15 16 17 18 19 19 20 20 20 21 23 24 24 23 22 21 21 21 23 24 25 26 26 28
27 27 24 21 18 19 21 21 21 21 20 19 18 19 18 18 17 18 17 16 18 18 19 20 20 21 21 22 24 25 23 20 20 21 22 22 23 24 25 27 27 28 29
32 30 25 24 24 25 25 25 24 24 24 22 20 20 20 19 19 20 19 19 20 20 20 21 22 22 23 24 23 19 21 22 22 23 23 24 25 26 26 27 28 29 30
30 30 31 31 28 28 28 29 26 25 27 25 23 22 21 21 21 20 20 20 21 21 21 22 24 25 25 22 21 22 22 23 23 24 25 26 26 27 27 28 29 30 30
29 27 28 26 26 29 30 29 28 29 27 25 23 23 22 21 20 20 20 21 21 22 24 26 26 25 21 21 23 23 23 24 25 26 27 27 28 28 29 30 31 31 31
28 26 27 24 24 28 30 29 28 28 27 25 23 23 21 19 18 20 20 20 22 25 27 27 26 23 22 22 23 24 24 26 28 29 29 29 29 29 32 32 33 34 35
26 25 24 21 21 24 26 27 27 25 25 23 22 21 18 16 17 18 19 21 24 26 26 25 24 24 23 24 24 25 27 29 30 31 31 30 30 34 34 35 36 37 38
25 24 22 22 23 23 24 24 25 25 23 22 20 17 15 14 15 17 20 24 26 25 24 24 24 24 25 25 27 29 30 30 30 31 32 34 35 35 36 38 39 40 41
23 20 20 22 23 23 24 25 24 22 21 19 16 14 12 12 15 19 22 24 24 24 24 24 24 25 27 29 31 35 38 40 42 37 33 32 35 36 37 38 40 42 44
22 18 16 20 22 22 23 23 20 17 15 16 14 12 10 12 16 19 22 23 24 25 25 25 26 28 30 33 35 37 40 44 46 49 45 38 38 38 40 41 44 46 49
24 20 19 19 19 19 19 19 17 17 17 15 12 10 10 13 16 19 22 24 26 27 27 28 29 31 34 37 39 41 41 42 42 47 50 45 40 41 44 47 51 54 55
28 23 18 18 18 19 19 18 17 16 15 13 10 9 11 14 17 20 23 26 29 30 31 32 33 35 37 39 42 44 44 45 45 46 50 51 54 53 53 53 54 57 58

GFSSE_700_spd_015.txt.gz
Wind_Speed
2 2 4 7 8 8 8 9 8 8 7 7 8 6 6 5 3 2 3 3 3 3 2 2 2 3 5 6 8 9 10 11 11 12 12 12 12 13 12 12 13 11 10
3 0 4 5 6 6 8 9 8 8 7 7 7 7 6 4 4 2 3 3 3 3 3 3 3 3 4 5 7 8 10 10 10 11 12 12 14 14 15 15 14 14 13
4 1 3 5 5 5 7 8 8 8 9 8 7 5 5 5 3 2 3 4 3 3 3 3 3 3 4 5 6 8 9 10 12 13 14 14 15 16 17 16 16 16 15
4 0 2 3 4 4 6 7 8 10 11 11 9 7 5 4 2 1 2 4 4 3 3 3 4 5 5 6 7 8 10 12 13 14 16 17 16 17 18 17 17 17 17
5 3 2 2 3 4 4 6 8 10 11 13 12 9 5 3 3 2 1 3 4 4 4 5 5 6 7 8 9 11 12 13 14 14 15 16 16 17 16 16 16 17 16
12 5 2 1 1 2 3 5 7 8 11 12 12 11 8 3 1 1 2 2 2 3 4 4 5 6 7 8 9 10 11 12 12 13 13 13 14 15 15 15 16 16 16
10 6 3 3 3 2 2 4 6 7 10 11 12 11 11 9 5 1 1 2 2 2 2 3 4 5 6 6 8 9 10 10 12 13 13 14 14 14 14 15 15 15 16
12 9 7 6 6 5 3 3 4 6 8 11 12 11 10 10 9 6 4 2 1 1 2 3 3 4 5 7 8 9 9 10 12 12 13 13 13 13 13 13 14 14 14
15 13 12 10 9 8 6 4 3 3 6 9 11 11 10 9 8 7 6 5 3 3 3 4 5 5 5 7 7 8 10 11 12 13 14 14 13 14 15 16 16 16 17
18 17 15 14 12 10 9 7 5 4 5 8 10 11 11 9 7 6 5 5 5 5 6 6 6 7 8 9 9 10 11 12 13 14 15 15 15 15 16 18 19 18 16
17 17 16 15 14 13 12 10 8 6 5 7 8 10 11 10 8 7 7 7 7 7 7 8 8 9 10 11 11 11 13 14 15 16 17 18 19 19 20 20 21 21 20
16 16 17 17 16 16 15 14 12 10 8 8 8 9 10 11 10 10 9 8 8 9 10 10 11 12 12 13 16 16 16 18 19 20 21 21 21 22 22 23 23 24 22
19 17 18 18 18 18 18 17 16 15 12 11 11 10 11 11 11 12 12 11 11 12 12 13 13 14 16 16 18 19 19 20 20 21 22 23 24 25 25 25 26 25 26
21 20 19 18 18 18 18 20 19 18 16 15 14 13 13 13 12 13 14 15 14 14 15 16 17 17 18 18 19 20 20 21 23 23 22 20 21 21 21 22 22 23 26
25 24 21 19 18 18 18 18 21 21 20 18 17 16 15 15 15 15 16 16 15 16 17 18 19 19 20 20 21 22 22 22 19 18 18 19 20 21 22 23 23 24 25
25 25 25 24 21 19 19 19 20 23 23 22 20 19 18 18 18 18 18 18 17 18 18 20 19 20 20 21 23 23 21 17 18 19 19 20 21 22 23 24 24 25 25
27 26 26 28 27 24 22 22 22 23 24 25 23 22 22 20 20 20 19 19 19 20 20 20 19 20 21 21 21 19 19 19 19 20 20 21 22 24 25 26 26 26 27
30 30 30 30 28 28 27 27 26 24 25 26 25 25 24 22 21 21 20 20 20 20 20 19 21 21 21 20 19 19 19 19 20 21 23 24 25 27 28 29 29 29 30
32 30 26 25 25 27 31 31 27 26 27 28 27 27 25 23 21 20 19 19 19 20 20 22 22 21 19 19 20 19 20 21 21 23 25 27 28 29 30 32 32 34 34
33 32 29 25 26 28 30 29 28 28 27 28 28 26 23 21 20 18 18 18 18 20 22 23 22 20 19 19 19 19 21 22 24 25 27 29 30 31 32 33 35 35 36
36 33 28 26 28 29 27 26 26 26 26 26 26 24 22 20 17 17 17 16 19 21 22 23 22 21 20 21 20 22 23 23 24 25 28 30 31 32 33 35 37 39 39
35 33 27 27 27 26 23 24 23 24 26 26 24 22 20 17 16 16 15 17 19 21 22 22 23 23 23 23 24 24 24 25 25 27 29 31 32 34 36 38 39 40 41
33 31 26 26 26 25 23 25 24 26 26 24 22 19 17 16 15 14 14 16 19 21 22 23 24 24 25 26 27 28 30 32 33 30 31 32 32 32 34 36 38 39 42
33 29 27 26 24 23 24 25 25 23 22 19 18 17 17 15 13 13 13 16 19 22 24 26 27 27 27 28 29 30 33 36 39 43 40 40 40 38 37 38 39 42 44
35 30 27 24 21 21 23 24 24 22 20 19 18 18 16 13 11 11 13 16 20 23 27 29 29 30 30 31 32 33 35 37 40 44 47 42 40 38 39 42 44 47 49
38 33 28 23 20 20 20 22 20 20 19 18 18 17 14 12 11 12 14 17 21 25 29 31 32 34 33 33 35 37 39 41 43 46 49 48 49 47 45 46 47 49 53

GFSSE_700_spd_018.txt.gz
Wind_Speed
5 1 3 6 8 9 9 8 7 6 5 5 5 4 3 3 2 3 4 4 5 5 5 5 4 5 5 7 9 9 10 11 11 11 12 12 13 14 14 14 15 15 14
6 3 2 3 5 5 5 6 7 7 6 6 5 5 4 3 2 2 2 3 5 5 5 4 4 4 4 5 6 8 9 10 10 12 13 14 15 16 16 16 16 16 16
8 4 3 1 2 3 4 5 6 7 7 6 5 4 4 3 2 2 3 4 5 5 4 4 4 4 4 6 6 7 9 11 11 13 14 16 17 17 18 17 17 17 17
7 4 2 1 2 2 3 4 5 7 9 9 8 4 3 3 3 3 4 5 5 5 5 5 5 6 6 7 8 10 11 13 14 14 16 17 17 17 18 18 17 18 17
6 3 3 3 2 1 2 3 4 6 9 10 10 8 5 3 2 2 3 4 4 5 5 5 6 6 7 8 9 10 12 13 15 15 16 17 17 17 17 15 15 16 16
10 9 8 7 3 1 1 2 4 5 8 10 10 9 8 4 3 3 3 4 4 4 4 5 6 7 7 9 10 11 12 13 13 13 14 14 14 15 15 16 15 15 16
16 13 11 7 5 3 3 3 3 4 6 8 10 9 8 7 3 1 3 3 2 2 3 4 5 6 6 7 7 8 10 10 11 12 12 13 13 14 14 15 14 14 14
16 15 13 9 8 7 6 5 4 4 5 7 9 9 8 8 6 4 2 1 1 2 3 4 4 4 6 7 7 9 9 10 11 12 12 13 13 14 14 15 15 15 15
18 18 17 14 12 11 10 8 6 5 5 6 8 9 8 7 6 5 4 4 3 3 3 4 5 6 8 8 9 11 12 13 13 15 14 14 15 16 16 17 17 18 15
19 20 19 18 16 15 13 11 9 7 6 7 8 8 8 8 7 5 4 3 3 4 5 6 8 8 9 11 12 12 13 14 14 16 16 16 16 17 18 19 20 20 19
19 21 20 20 17 16 15 14 13 11 9 8 8 9 8 8 8 7 6 5 6 7 7 9 10 11 12 13 13 13 14 15 16 17 19 20 21 22 22 23 23 22 22
21 21 21 21 18 18 17 16 16 15 13 11 11 10 10 9 9 9 9 9 8 9 9 11 12 13 14 15 16 17 17 18 20 21 22 23 23 24 24 25 24 24 26
22 21 20 22 22 21 26 18 19 18 17 15 14 13 13 11 11 11 12 11 12 12 12 14 15 16 17 18 18 19 19 20 21 22 22 24 25 25 23 21 22 24 24
23 23 22 21 20 21 25 19 22 21 21 19 18 16 15 15 15 14 14 14 14 14 15 17 18 19 20 20 19 20 20 20 22 22 20 18 19 20 20 19 20 21 22
27 22 21 21 19 20 20 17 21 24 24 22 21 19 18 18 18 18 17 16 15 16 17 19 19 20 21 21 21 21 21 20 18 17 18 18 18 19 19 20 20 21 22
31 27 26 24 22 22 20 24 24 22 21 23 23 22 21 20 20 20 19 18 17 17 18 19 20 21 21 22 23 23 20 17 17 17 18 18 19 20 20 21 22 23 24
32 30 29 27 26 24 25 25 23 23 22 22 24 25 24 22 22 22 21 20 19 19 19 19 20 21 23 23 22 19 17 16 16 17 18 19 21 22 23 24 25 26 27
32 32 31 30 29 29 30 28 29 28 26 25 26 25 25 24 23 23 21 19 19 19 20 19 20 23 24 22 20 18 17 16 18 19 21 22 24 25 26 28 29 29 31
39 36 34 32 31 31 34 33 31 31 31 30 29 28 28 26 24 23 20 19 19 19 19 19 21 22 22 20 18 18 17 18 19 21 22 23 25 27 29 30 32 33 34
45 42 38 36 33 28 30 32 32 33 35 35 32 29 27 25 23 22 19 18 17 17 19 20 20 20 20 20 19 19 18 19 21 23 23 25 27 29 31 33 34 36 37
49 46 41 38 33 30 30 30 33 32 32 33 32 28 26 24 22 20 17 17 16 17 19 19 20 20 20 21 21 22 22 22 23 24 25 27 29 30 33 35 36 39 40
50 48 44 41 35 30 31 31 32 30 30 30 29 27 25 24 20 18 17 15 15 16 17 19 21 22 22 22 23 23 23 24 25 25 27 29 32 33 35 37 38 40 41
50 48 44 39 36 32 32 31 29 29 30 31 29 27 25 23 19 17 16 14 14 14 16 19 21 23 24 24 25 27 29 29 29 28 29 31 33 34 35 35 35 37 40
47 47 44 37 34 34 31 29 28 27 27 29 24 24 22 21 20 17 14 13 12 13 16 18 21 23 25 26 26 27 28 31 34 36 36 38 39 38 36 35 36 37 40
43 44 43 36 34 33 31 29 28 30 31 27 25 24 24 22 19 16 14 12 12 15 17 20 23 26 28 29 28 29 30 32 35 38 40 39 42 42 43 42 41 42 44
46 43 42 38 35 33 29 29 29 30 26 26 25 24 23 21 19 16 13 13 14 17 19 23 26 29 32 33 33 33 34 35 37 42 45 45 46 43 43 44 45 46 48

GFSSE_700_spd_021.txt.gz
Wind_Speed
6 4 1 4 8 8 7 7 7 7 7 8 7 7 7 7 6 6 5 3 3 4 4 4 5 4 5 7 8 8 9 10 10 11 11 12 12 13 13 13 14 15 13
9 5 2 3 7 7 5 6 6 7 7 7 7 7 6 6 5 5 2 3 4 4 5 5 4 3 3 4 5 8 9 9 10 11 12 13 14 15 15 14 14 15 14
10 7 3 2 6 4 5 5 6 7 8 8 7 8 8 7 6 5 3 4 4 5 5 4 4 3 3 4 5 6 8 8 10 12 13 15 15 17 16 16 16 17 16
11 7 3 2 3 2 3 5 5 6 7 8 9 7 7 7 6 5 4 4 4 4 5 4 4 4 4 6 7 8 9 10 11 13 14 15 16 16 17 17 18 18 18
9 7 4 3 3 3 1 1 4 6 7 8 8 8 7 5 5 5 4 4 5 5 5 5 5 5 7 7 8 10 11 12 12 13 14 15 16 15 16 15 15 15 15
11 8 5 10 7 5 3 1 2 5 7 9 9 9 9 8 4 4 4 4 5 5 5 5 6 6 7 8 8 10 11 11 13 13 13 14 14 14 15 15 14 15 15
17 16 13 12 9 7 5 3 2 3 6 7 9 9 9 8 6 3 3 3 3 3 3 4 4 5 6 6 8 8 9 10 12 13 14 14 14 14 15 14 15 14 15
18 20 16 14 12 11 9 7 5 5 5 6 8 9 9 8 8 6 3 2 3 3 4 4 5 6 7 8 8 9 9 10 12 12 13 15 14 15 16 16 16 17 16
24 21 20 16 15 14 12 10 8 7 6 7 7 8 9 9 8 7 5 4 4 5 5 6 7 8 10 10 11 11 12 12 13 14 15 15 15 16 17 17 17 17 17
20 20 21 19 18 17 14 13 11 10 8 8 8 8 9 9 8 8 7 7 6 6 7 8 8 9 10 12 12 13 13 14 14 15 17 16 18 18 19 21 20 20 21
21 21 21 21 20 20 18 16 14 12 12 10 10 10 10 10 9 9 8 8 8 9 9 9 10 11 12 13 14 15 16 17 18 18 20 20 21 22 23 22 21 22 23
22 22 22 22 23 24 21 17 17 15 15 14 13 12 11 11 11 12 11 11 10 10 11 12 12 13 15 15 16 17 18 19 20 21 21 22 23 24 24 22 23 23 22
24 23 22 22 23 24 22 23 23 21 20 19 16 16 14 13 13 13 13 14 13 14 13 14 15 15 16 18 19 20 20 21 22 23 20 23 24 24 20 18 19 18 19
27 26 24 24 23 24 25 25 30 24 24 21 20 18 17 16 15 15 16 16 16 16 17 17 17 18 18 19 20 21 22 22 23 24 20 19 17 19 18 19 18 18 20
31 30 28 24 23 21 22 24 27 26 26 22 22 21 22 19 18 18 17 18 17 18 18 19 20 20 20 20 21 22 23 23 23 21 17 18 17 17 18 18 18 19 20
32 32 30 27 25 22 21 19 21 21 25 24 25 24 25 23 21 20 19 19 19 20 20 20 20 21 22 22 22 23 23 22 20 19 19 17 16 17 18 20 20 22 23
34 34 33 33 30 28 25 23 23 26 24 23 23 23 24 25 23 22 21 21 20 21 21 21 21 22 22 23 23 23 21 19 18 18 18 17 17 19 20 21 22 24 26
38 36 35 36 33 33 27 28 28 28 27 24 26 25 26 26 25 23 22 22 21 22 21 21 22 22 24 23 22 20 18 18 18 19 18 19 20 21 22 24 26 27 29
40 42 39 37 34 33 32 31 30 33 32 29 30 29 29 28 27 26 24 23 22 21 20 20 21 23 23 22 20 19 19 19 19 20 20 21 22 24 25 26 28 30 32
45 46 44 43 38 34 34 33 32 34 35 34 33 33 32 32 29 26 25 23 21 20 19 19 20 21 21 21 21 21 20 21 21 22 24 24 25 27 28 29 32 34 35
56 54 52 49 45 41 39 36 33 33 33 32 33 34 34 33 28 26 24 22 20 18 17 18 18 18 20 22 22 23 23 24 25 25 26 27 29 30 31 33 35 37 39
54 57 56 53 51 46 45 38 34 32 30 32 33 33 32 32 29 26 22 20 18 17 16 15 16 16 19 21 23 24 25 28 25 27 28 29 30 33 35 36 38 40 42
47 53 57 56 53 49 48 43 36 33 32 35 34 33 33 31 28 25 21 19 18 16 14 13 14 16 19 20 23 25 27 27 28 29 29 31 32 34 36 38 39 40 41
44 50 52 56 55 51 50 43 35 33 33 32 30 30 32 31 25 23 22 19 17 14 13 13 14 17 20 23 25 27 28 30 31 32 32 34 36 37 39 39 37 36 38
41 47 49 51 53 51 49 40 34 35 35 34 30 30 30 26 30 25 23 20 17 15 14 15 17 19 22 26 28 31 33 33 34 35 35 35 39 41 44 46 44 43 42
44 46 50 48 48 50 43 36 36 37 35 33 33 32 29 30 24 26 23 20 18 16 16 17 20 23 26 29 32 34 35 36 37 39 42 42 43 42 44 45 44 45 46

GFSSE_700_spd_024.txt.gz
Wind_Speed
4 3 3 4 7 11 11 9 9 9 9 8 7 7 7 7 7 8 6 3 2 2 2 2 2 2 4 6 5 6 7 8 9 9 10 10 11 11 11 11 12 12 12
7 6 4 2 6 9 9 9 9 9 10 10 9 8 7 6 8 6 4 3 2 1 1 2 2 2 2 3 3 4 5 6 7 9 10 10 11 11 12 12 13 14 13
10 9 6 2 5 6 6 6 7 8 10 10 10 10 9 7 6 6 4 2 2 2 2 3 2 2 2 2 3 3 4 6 8 10 11 11 11 13 13 13 14 14 14
12 10 6 2 2 4 4 4 4 6 9 10 11 11 10 8 6 6 4 2 2 2 3 3 3 3 4 4 3 4 5 7 9 11 12 13 13 13 14 14 14 15 15
12 10 8 4 2 4 5 3 3 4 7 9 11 11 11 10 7 5 4 4 3 3 3 3 3 4 5 6 5 6 7 8 9 11 12 13 13 14 13 14 13 13 13
13 12 8 4 8 8 5 3 3 4 5 8 11 11 11 11 10 6 5 4 3 4 4 3 4 4 5 5 5 7 8 9 10 10 11 11 11 13 13 14 14 14 14
13 10 10 10 10 10 7 6 4 4 5 7 8 10 11 11 11 9 6 4 3 3 3 3 4 4 5 6 6 8 9 10 11 12 11 12 11 13 13 14 14 14 14
16 13 12 13 13 12 10 8 6 5 6 6 8 10 11 11 10 8 7 6 6 5 5 5 5 6 6 7 7 8 9 10 11 12 12 11 11 13 13 14 14 14 15
18 16 17 18 16 14 11 11 10 7 7 6 6 8 10 11 11 10 8 7 6 6 6 7 7 8 8 9 9 10 11 12 13 14 14 13 13 14 14 14 15 17 16
21 22 21 20 18 17 15 13 12 11 8 8 7 6 7 9 11 11 11 10 9 9 9 9 8 9 9 10 10 11 12 13 15 16 15 16 17 17 18 18 19 20 18
24 24 22 20 21 20 17 16 16 14 12 11 10 9 7 7 9 10 11 12 12 11 11 10 11 11 11 12 12 13 13 15 17 17 16 19 19 20 19 18 21 20 20
23 23 23 24 23 23 20 20 19 18 14 14 15 13 11 9 8 10 11 12 12 13 13 13 13 13 14 13 14 15 16 17 19 18 17 20 21 21 19 20 18 17 17
24 25 26 26 25 24 23 22 20 18 16 18 17 19 16 13 12 11 13 13 13 14 15 16 16 16 16 17 18 18 17 18 21 19 19 21 21 21 17 16 16 16 16
28 28 27 26 25 26 24 23 23 23 24 23 21 19 18 17 15 15 14 14 15 15 17 18 17 18 18 18 19 19 19 20 23 21 20 19 18 17 16 15 15 15 15
26 33 32 29 26 27 25 23 24 25 25 23 25 19 18 19 19 19 17 15 16 17 19 20 21 20 19 20 20 20 21 22 23 22 18 17 16 16 16 14 15 16 17
31 32 33 30 29 27 26 24 23 22 24 25 23 20 21 20 22 22 19 18 18 17 20 21 21 22 21 21 21 22 23 23 22 23 16 17 17 16 16 16 17 18 19
34 32 35 32 32 30 26 25 23 22 22 23 22 23 24 21 21 20 21 21 19 19 20 22 22 23 22 22 22 23 23 22 20 19 18 16 17 17 17 18 18 19 21
30 34 32 36 35 34 31 30 30 27 25 26 23 23 24 24 22 22 22 23 22 21 21 22 22 22 22 22 22 22 20 19 19 20 19 19 19 18 19 21 21 22 24
42 34 32 33 42 37 32 32 32 31 32 32 31 29 29 27 25 25 25 25 24 23 22 21 22 21 21 22 21 20 20 19 19 21 21 21 21 23 23 23 24 26 28
47 45 40 41 43 39 35 32 34 33 32 31 32 33 30 28 28 27 28 27 26 25 22 21 20 20 20 19 19 19 20 20 21 22 23 25 25 25 27 28 29 30 32
50 51 45 44 50 44 43 39 38 34 32 31 32 29 28 30 30 30 29 28 27 24 22 20 19 18 18 17 17 19 19 21 22 23 25 27 29 29 30 30 32 34 36
42 49 53 47 52 52 46 45 43 38 35 33 30 28 28 29 30 30 29 28 26 24 21 19 17 15 15 15 16 18 20 21 21 23 25 27 29 30 32 33 34 36 38
39 40 48 55 50 55 53 51 52 43 40 36 30 30 30 30 32 30 30 28 24 22 21 18 17 14 12 15 17 20 23 25 26 26 28 28 30 31 33 34 36 38 40
39 40 40 48 57 58 61 57 52 47 43 37 30 31 30 31 30 30 29 26 23 22 20 18 16 15 14 17 19 23 26 28 30 30 31 32 32 33 35 37 37 38 39
41 40 41 41 45 52 59 57 51 49 45 38 34 32 32 31 30 30 28 26 24 22 20 18 16 16 17 20 23 26 29 32 35 36 34 33 33 35 38 40 41 41 42
36 41 45 40 44 49 53 51 49 50 47 38 35 36 34 31 31 30 26 26 25 23 21 19 18 18 20 23 27 30 33 36 38 42 43 39 40 37 40 40 41 41 42

GFSSE_700_spd_027.txt.gz
Wind_Speed
8 5 1 1 4 8 10 9 8 7 8 8 7 6 6 6 6 6 5 4 2 1 3 3 4 3 4 3 2 5 7 8 8 8 8 8 8 9 9 10 11 10 10
9 5 4 2 2 6 9 9 7 7 8 9 10 9 7 6 6 6 5 3 2 1 1 2 3 2 1 1 1 2 5 6 7 7 7 8 9 10 10 11 12 12 12
8 6 6 4 1 4 7 7 6 6 7 9 10 10 9 6 5 5 4 3 2 1 1 1 2 1 1 1 2 3 4 6 6 7 7 8 10 11 12 12 13 14 13
8 9 8 5 1 2 6 6 4 5 7 8 10 11 12 10 6 4 4 4 3 2 2 1 1 1 2 2 2 4 5 6 7 7 10 8 11 12 12 13 12 13 12
10 11 9 7 3 3 6 6 4 4 6 8 9 10 11 11 9 6 4 4 3 2 2 2 3 3 3 4 4 5 6 7 8 9 11 11 11 11 11 11 10 11 11
13 13 11 7 3 6 5 6 6 4 6 7 9 10 10 11 11 9 6 4 3 3 2 2 2 3 4 4 4 5 6 7 7 8 8 9 10 10 11 11 10 10 10
14 14 12 8 6 6 6 8 6 5 6 7 8 10 11 11 11 11 9 7 4 3 3 3 2 2 3 4 4 5 6 7 8 9 9 8 9 10 10 10 10 10 11
12 14 13 10 8 8 10 9 8 6 6 7 7 9 10 12 11 10 9 8 7 6 6 5 4 4 4 4 5 6 8 9 9 10 10 10 10 11 12 11 11 12 12
16 16 15 13 12 12 12 11 9 8 7 6 6 6 7 9 10 11 10 9 8 7 7 6 6 6 6 7 7 8 9 11 11 10 11 12 12 12 13 13 15 15 15
19 19 18 17 16 15 15 14 12 10 9 7 6 5 6 6 7 9 10 10 10 9 9 8 8 8 8 9 10 11 11 13 12 12 13 14 15 14 14 15 16 16 17
21 22 21 21 20 18 18 16 15 13 13 11 9 8 7 6 7 7 8 9 10 11 11 11 10 10 11 12 12 13 14 16 12 13 14 16 17 15 15 16 17 17 17
23 23 24 24 23 21 20 19 18 17 16 15 13 10 11 9 9 8 9 9 9 10 12 12 13 13 13 13 14 14 16 17 14 13 15 17 18 17 17 16 15 14 12
23 24 25 26 25 23 22 22 21 21 19 16 16 15 12 12 12 11 10 9 9 10 12 13 14 15 16 16 17 16 17 19 17 16 16 18 19 17 14 14 14 13 12
25 25 26 26 27 26 24 23 23 22 22 21 20 20 17 15 15 15 15 12 13 12 12 14 15 16 18 18 18 20 20 20 18 18 17 19 17 17 15 14 14 14 13
32 32 30 27 27 27 25 26 25 23 23 23 22 20 20 18 16 16 16 15 17 14 14 15 16 17 19 19 19 20 20 22 20 19 17 17 16 16 15 15 15 15 15
27 32 33 33 30 28 28 27 26 25 24 24 25 24 23 18 19 19 18 19 19 19 17 17 18 18 19 20 20 20 21 22 21 19 16 16 16 16 16 17 17 17 18
33 30 34 36 34 31 28 29 28 26 24 24 23 22 22 19 19 19 19 20 20 20 20 20 21 20 20 20 20 20 21 21 20 18 17 16 17 17 17 18 19 19 20
39 36 34 38 38 34 30 29 28 27 25 24 23 22 24 22 21 21 24 23 22 21 21 22 22 22 21 20 20 19 19 19 20 18 17 17 17 18 19 21 21 22 23
44 44 34 38 41 38 35 32 31 28 29 26 25 26 27 25 25 26 28 25 24 23 24 25 24 23 22 20 19 19 18 18 18 19 19 19 20 20 21 22 23 26 27
43 45 43 33 37 41 39 36 33 32 31 28 28 29 25 23 26 28 27 25 25 25 26 26 24 23 21 19 17 16 16 16 17 18 19 20 21 23 24 25 27 29 30
37 43 45 40 38 42 43 42 37 35 35 32 29 27 24 24 25 29 29 27 26 25 25 25 24 22 19 17 16 14 14 14 17 19 20 22 23 24 25 26 28 29 31
36 39 45 49 46 44 47 48 45 39 39 35 30 28 27 26 27 30 28 26 27 26 25 24 23 21 18 16 15 13 14 15 17 19 21 23 25 26 27 29 29 31 33
38 40 41 45 51 49 46 49 49 46 43 41 36 32 30 29 30 30 28 27 27 26 23 23 22 20 18 16 15 15 17 18 21 22 24 26 28 29 30 31 32 34 36
40 40 41 42 52 54 52 51 52 56 49 46 40 35 33 29 31 31 30 28 28 27 23 23 22 21 19 18 17 17 19 22 24 27 28 30 31 32 33 33 35 37 39
34 39 42 39 41 56 61 55 54 57 52 46 42 38 37 33 33 32 30 30 27 25 22 23 23 21 21 20 20 21 23 26 28 30 30 31 32 34 35 35 37 39 40
32 35 41 43 41 45 59 62 58 60 57 49 44 41 39 36 36 35 32 30 28 27 22 25 24 23 22 22 22 24 26 29 32 36 37 37 37 36 36 36 38 39 40

GFSSE_700_spd_030.txt.gz
Wind_Speed
12 10 6 2 3 6 9 9 8 5 6 7 7 7 6 5 5 6 6 4 3 1 2 4 4 4 3 3 4 8 9 9 8 8 9 9 9 9 9 9 10 10 9
14 11 7 4 1 4 9 9 7 6 6 6 8 9 8 5 4 4 5 3 2 1 2 2 2 1 1 2 3 6 7 7 7 7 8 8 9 10 10 11 11 11 11
14 11 9 7 4 1 6 9 7 6 6 7 8 8 9 7 4 3 3 3 2 2 2 2 2 1 1 1 2 2 3 4 5 7 7 9 10 10 11 12 12 12 12
14 11 10 8 6 3 4 7 6 6 6 8 8 8 9 9 6 3 3 3 2 2 1 1 0 1 1 1 2 3 4 6 7 8 8 9 11 11 12 12 12 11 10
12 11 10 8 5 1 2 4 5 5 6 7 9 10 9 9 8 6 3 3 4 3 2 2 2 2 3 3 4 5 6 7 8 9 9 9 11 11 11 10 10 10 10
11 11 11 9 6 1 1 3 5 5 5 7 8 9 10 9 9 9 8 5 4 4 4 4 4 4 4 4 5 5 6 7 7 7 8 8 8 8 8 8 8 9 9
13 14 13 12 4 2 3 3 6 6 6 7 7 8 8 9 9 10 10 9 8 6 5 4 3 3 3 3 4 5 6 6 6 6 6 6 7 7 7 7 8 9 9
14 15 16 15 8 5 5 7 6 6 6 6 7 6 8 10 11 10 9 9 8 8 7 6 5 5 5 5 6 6 7 8 8 8 7 8 8 9 8 9 10 10 11
15 17 18 17 11 10 8 10 9 8 7 5 5 5 6 8 9 10 10 10 9 8 7 6 5 5 6 7 8 9 9 10 10 11 11 11 11 11 11 12 13 13 14
19 19 20 19 15 13 12 13 13 11 10 8 5 5 5 5 7 7 8 9 9 9 9 8 7 7 8 8 10 12 11 11 12 13 14 14 13 13 14 15 15 15 14
19 23 23 22 19 16 15 15 15 13 13 11 10 8 6 6 5 6 7 8 8 8 8 8 9 9 10 11 12 14 13 12 12 13 15 16 14 14 15 16 17 17 15
18 19 23 23 21 19 18 18 17 17 15 14 14 12 10 8 8 8 8 7 7 8 9 9 10 10 11 12 13 15 15 14 14 14 16 17 16 15 16 16 16 14 13
18 18 19 21 22 22 21 21 20 19 19 18 16 15 14 12 11 10 11 10 10 9 9 11 11 12 12 13 14 15 15 16 16 16 17 18 18 16 15 15 15 14 13
24 23 22 21 22 22 22 21 21 22 21 21 20 19 17 17 16 13 13 13 13 13 13 14 14 14 15 15 16 17 16 16 16 17 18 18 17 16 14 14 14 14 14
31 28 26 25 23 23 22 22 22 22 22 23 23 22 21 18 17 17 15 15 16 16 16 16 16 16 17 17 18 19 17 17 17 17 17 18 17 15 14 14 14 15 15
32 36 36 34 32 30 26 24 23 22 22 23 23 24 23 21 21 19 17 17 18 18 18 18 18 18 19 19 19 20 19 18 18 17 17 17 17 16 15 15 15 16 17
32 31 33 36 35 33 30 29 27 25 24 22 23 23 23 23 24 19 18 19 18 19 20 20 20 20 21 20 20 21 21 18 17 17 17 17 17 18 17 17 17 18 19
37 36 35 34 35 34 30 29 30 27 24 25 24 22 23 24 23 20 19 20 22 23 23 21 22 23 23 22 21 21 21 19 18 17 16 17 17 18 19 19 20 22 23
42 40 39 38 38 36 34 32 31 30 27 28 28 25 24 22 20 22 24 25 26 26 24 23 24 25 25 23 22 20 19 18 16 15 15 15 16 17 19 21 22 24 26
48 45 43 41 42 39 36 34 32 33 32 30 31 29 25 22 22 21 22 25 26 25 24 25 25 25 24 24 22 19 17 16 14 14 15 16 16 18 20 22 24 26 28
53 55 54 47 43 44 45 39 37 36 35 33 32 31 27 23 21 22 23 25 25 26 25 25 25 24 24 23 21 19 17 15 14 14 15 16 18 20 22 24 25 27 29
40 44 47 48 53 45 44 43 38 39 38 36 35 33 31 28 24 24 25 26 25 26 26 24 23 23 23 22 21 19 18 16 16 17 18 20 22 24 25 27 29 31 32
38 37 38 42 51 52 48 48 46 42 44 40 39 38 36 31 28 26 26 27 27 27 27 24 22 22 23 22 21 20 19 18 19 20 22 24 26 28 29 31 33 35 36
41 42 42 41 43 51 58 54 51 49 48 45 41 40 37 35 33 28 28 28 29 29 28 25 23 22 23 23 22 22 21 21 21 23 24 27 29 31 32 34 35 38 39
34 41 45 47 47 48 51 54 57 52 50 46 42 41 39 40 38 35 31 31 30 31 30 28 25 22 24 25 24 24 24 24 25 26 27 30 32 34 35 36 38 40 41
23 28 33 38 45 49 52 54 57 58 53 51 46 45 45 41 40 38 32 32 33 34 31 26 27 23 26 27 27 27 27 27 28 30 30 32 34 34 36 37 40 42 43

GFSSE_700_spd_033.txt.gz
Wind_Speed
10 8 7 6 4 4 10 12 10 9 9 9 10 10 9 8 7 8 8 7 6 4 2 1 1 1 2 4 6 8 7 7 6 7 8 8 9 9 9 10 10 10 11
12 9 9 7 4 3 6 12 9 9 9 10 10 9 9 8 6 6 6 5 4 4 3 2 3 3 3 1 2 4 5 5 6 6 7 7 7 8 9 11 11 11 11
13 13 10 9 5 1 5 9 7 8 9 9 10 9 9 8 6 4 4 5 4 4 3 2 3 3 1 1 1 1 2 3 4 5 6 7 9 10 11 11 11 12 12
16 14 12 11 8 5 4 7 7 6 7 8 9 9 9 8 6 3 2 3 3 3 3 3 3 2 2 3 2 2 3 4 5 7 8 9 10 11 12 12 11 10 10
14 15 13 11 8 5 2 4 4 5 6 8 9 9 9 8 8 6 3 3 3 3 3 2 2 2 3 3 3 4 5 5 5 7 8 9 10 10 10 10 9 9 9
13 14 13 10 9 4 3 1 2 4 5 7 10 9 9 8 8 8 8 6 5 4 4 4 3 3 3 4 4 5 5 5 5 6 7 9 10 10 9 8 8 8 8
8 14 14 12 10 5 4 3 1 3 4 5 8 8 9 10 9 9 9 9 9 8 8 7 7 6 6 6 6 6 6 6 6 7 7 8 9 8 7 8 8 8 8
12 15 16 15 12 7 6 6 3 3 4 4 5 6 8 10 11 12 11 10 9 8 7 7 7 6 6 7 7 7 7 8 8 8 9 9 10 10 9 10 10 11 11
11 16 17 18 15 10 8 9 8 6 6 5 3 3 5 6 9 10 10 11 11 10 9 8 8 7 8 7 8 9 9 10 10 11 11 11 12 11 12 12 13 14 14
18 17 19 19 18 13 12 10 10 9 8 8 6 4 4 4 4 6 7 8 8 8 9 9 8 8 9 9 8 9 9 10 11 13 14 13 13 13 13 14 15 14 15
16 18 20 21 22 18 15 13 13 13 11 10 9 8 7 6 5 5 4 4 5 6 7 8 9 9 10 10 10 9 9 10 12 13 14 14 15 15 15 16 16 15 15
19 18 20 23 24 22 18 16 16 16 14 13 12 11 11 10 8 7 7 6 6 6 6 7 9 10 11 13 12 12 12 12 13 14 15 16 16 16 16 17 16 14 13
18 17 18 20 22 23 21 20 19 18 17 16 15 15 14 13 11 11 11 9 8 9 8 8 9 10 12 14 15 15 14 14 15 15 16 17 17 16 17 16 15 14 13
21 21 19 20 21 22 21 21 21 21 20 19 18 17 16 16 15 15 15 13 11 12 11 12 13 13 14 15 16 17 17 17 17 17 17 17 17 16 16 16 16 15 14
30 28 24 23 22 21 20 20 21 21 21 20 20 19 19 20 19 18 16 15 13 15 15 15 16 15 15 17 17 18 18 18 17 17 18 18 17 16 15 16 16 16 16
36 35 31 30 28 26 22 21 21 20 20 20 19 19 21 22 22 20 19 17 17 17 17 17 17 17 18 19 19 19 19 19 18 17 17 17 17 17 16 16 17 18 19
40 38 35 33 34 34 32 29 27 24 22 22 23 23 22 22 23 23 20 18 19 18 18 18 18 19 20 20 22 22 21 20 18 17 17 17 17 17 17 17 18 20 21
42 43 41 37 35 34 35 33 30 27 25 25 24 23 22 23 23 21 20 19 19 19 21 21 21 22 22 23 23 23 22 21 19 18 17 15 15 15 16 18 19 21 22
42 41 40 40 37 35 33 32 31 30 29 26 26 25 24 23 22 22 22 22 22 23 25 24 23 23 23 23 23 23 22 20 19 17 16 15 14 14 15 17 19 21 23
44 43 42 41 40 39 39 37 35 35 32 32 29 28 27 26 26 26 25 24 23 24 25 24 24 24 24 24 23 23 22 20 18 16 15 15 14 16 17 19 21 23 25
56 56 51 47 43 43 45 44 42 39 34 33 31 30 30 29 27 26 25 22 23 23 24 24 23 25 25 24 23 22 21 20 18 17 16 16 16 18 20 22 24 26 27
46 52 59 57 52 49 47 45 47 43 41 37 34 32 32 32 31 28 28 26 24 23 22 24 23 24 24 23 22 22 22 22 20 18 18 18 19 21 23 25 27 29 30
39 39 45 51 54 59 58 53 50 48 47 45 40 37 35 35 33 30 30 28 25 24 23 25 25 23 22 23 23 23 23 23 22 21 21 21 22 24 25 28 31 33 34
40 40 42 42 42 45 49 55 56 56 51 47 40 38 38 37 34 32 33 32 28 26 28 26 28 26 23 22 24 25 25 26 25 25 24 25 25 26 28 31 34 36 37
34 41 44 45 45 44 43 48 46 51 53 48 45 43 43 41 38 35 33 34 33 31 31 27 31 27 26 24 22 26 28 28 28 28 28 28 28 28 30 34 36 39 42
17 18 22 26 37 46 48 48 49 48 52 54 51 49 46 43 41 37 34 34 35 35 33 32 33 33 29 24 22 29 30 31 31 31 31 30 30 30 32 35 39 42 44

GFSSE_700_spd_036.txt.gz
Wind_Speed
10 6 2 2 5 7 10 12 10 10 10 11 11 10 10 8 7 7 7 7 7 6 5 5 4 3 3 2 3 5 6 6 5 5 5 5 5 6 7 7 8 9 10
13 8 7 6 5 7 8 10 9 10 10 11 11 11 11 10 7 6 6 5 5 5 6 6 6 6 7 4 1 2 4 4 4 4 4 4 4 5 7 8 9 9 11
12 12 8 8 6 5 6 8 9 9 10 11 12 12 11 11 9 7 6 5 4 4 5 6 8 7 7 4 4 2 1 0 1 2 3 5 6 7 8 9 10 11 11
13 15 12 10 8 7 7 7 8 9 10 11 12 12 11 11 9 7 5 5 5 4 5 5 5 5 4 3 3 3 3 3 3 4 5 7 8 9 10 11 11 10 9
15 15 13 11 9 6 4 5 6 7 8 11 12 12 11 10 10 9 7 5 5 5 5 5 4 4 4 4 4 4 3 3 3 4 5 6 8 9 10 10 10 10 9
12 14 14 12 10 5 4 4 4 6 7 8 11 10 11 11 10 10 10 9 7 6 6 5 5 6 6 6 6 5 4 3 3 4 5 6 7 8 9 9 9 10 8
9 14 15 14 12 8 7 5 3 2 3 5 8 9 10 12 13 11 10 10 9 9 9 8 8 8 8 7 7 6 6 5 5 5 6 7 7 8 9 8 9 8 8
15 13 15 16 15 10 8 5 5 1 2 2 3 5 7 9 11 12 12 12 11 10 10 9 9 9 8 8 8 7 7 6 6 6 6 7 8 9 10 9 11 10 10
15 16 17 18 18 13 10 7 8 5 3 3 2 1 2 4 5 7 8 9 10 11 11 11 11 10 9 9 8 7 8 8 8 8 9 9 9 10 11 11 11 12 11
17 16 18 19 19 15 12 10 10 8 6 6 5 3 2 2 3 4 5 5 7 8 9 9 10 10 10 10 9 10 10 10 11 11 11 11 11 11 12 14 14 12 13
15 19 16 19 21 20 15 14 13 11 10 9 8 6 6 5 4 4 4 3 3 3 5 5 6 8 9 10 11 11 12 12 13 13 13 13 13 13 14 15 14 14 13
17 14 16 18 20 22 21 18 17 14 14 12 11 9 9 9 9 8 7 6 5 5 5 5 6 6 7 8 10 11 12 13 13 14 14 14 15 14 15 15 15 13 14
18 19 18 18 19 21 23 21 20 18 17 15 14 13 12 13 12 11 10 10 9 9 8 8 9 9 9 9 10 11 13 14 15 15 14 14 14 15 15 15 14 13 13
21 20 18 17 19 21 23 23 22 21 20 19 17 16 15 15 15 15 14 13 13 13 12 12 12 12 12 12 12 13 15 16 17 16 16 15 14 14 14 14 14 13 13
24 24 24 23 20 20 20 20 21 21 20 20 19 18 17 16 18 18 18 17 16 16 16 15 15 15 15 15 14 15 16 18 18 17 17 16 15 15 14 14 14 14 14
28 28 31 30 28 25 23 21 20 21 20 20 19 20 18 18 19 20 21 20 19 19 19 18 17 17 17 17 17 17 18 19 19 18 17 16 16 15 15 15 15 15 15
34 32 32 31 31 32 31 27 25 23 22 21 20 21 20 20 20 22 22 22 22 22 20 19 18 18 19 19 20 20 21 20 19 19 17 17 15 14 14 14 15 15 16
38 36 33 35 33 33 33 34 34 30 27 25 24 24 22 22 22 22 22 23 23 23 21 21 20 21 21 22 22 22 21 20 20 19 18 17 15 14 13 13 14 15 16
40 40 38 37 38 35 34 35 35 33 31 29 28 28 27 24 23 23 24 24 24 23 22 23 23 23 23 23 23 22 21 21 20 19 18 17 16 15 14 14 15 17 18
44 43 43 41 41 39 38 38 36 34 31 31 30 29 28 28 26 26 24 25 25 24 25 24 24 24 24 24 24 23 22 21 20 19 18 17 16 15 15 16 18 20 21
54 51 48 46 45 44 43 42 42 40 36 36 33 31 31 31 30 29 27 28 26 26 26 25 24 23 22 23 24 24 22 21 20 20 19 19 19 18 18 19 20 21 23
40 43 53 55 51 47 46 46 47 44 44 42 38 34 32 33 33 31 29 28 29 26 28 26 25 23 22 23 23 23 23 22 22 21 21 21 21 21 22 21 22 23 25
38 38 41 45 50 58 59 55 55 51 49 49 48 41 38 36 37 34 32 31 31 29 28 26 27 24 22 22 22 23 24 25 23 24 24 24 24 25 25 25 25 26 27
34 39 38 41 42 43 42 51 58 59 58 54 51 46 42 40 42 38 36 34 33 31 31 29 27 27 28 23 23 22 23 26 27 27 26 27 27 28 28 28 28 29 31
20 21 25 38 44 41 42 43 44 49 55 60 58 54 53 46 43 39 37 35 33 33 32 32 32 30 29 29 26 25 25 24 26 29 30 30 31 31 31 31 32 33 34
19 18 16 19 20 29 39 45 46 43 42 43 47 47 49 47 45 43 40 38 37 36 34 33 35 33 31 31 33 33 28 24 26 29 32 33 33 33 33 34 35 36 38

GFSSE_700_spd_039.txt.gz
Wind_Speed
9 6 2 4 7 9 11 10 10 10 11 11 11 11 10 9 8 7 8 7 7 7 7 6 7 5 4 2 1 1 2 3 4 4 5 4 4 4 4 5 6 7 7
13 8 6 4 6 9 9 11 11 11 11 12 13 13 12 11 8 6 6 5 6 7 7 8 9 10 8 7 4 2 1 1 2 2 2 2 3 4 5 5 6 7 8
14 13 9 6 6 8 9 9 11 10 11 12 12 12 12 11 9 7 6 5 5 6 8 9 9 10 8 7 6 5 4 3 2 1 1 2 3 4 6 7 8 9 9
17 16 13 9 9 8 8 8 9 9 10 11 11 11 11 11 10 8 7 6 6 6 6 8 8 7 7 5 5 5 4 2 1 2 2 3 4 5 6 6 7 8 8
17 18 15 11 10 9 4 7 8 8 8 11 11 11 11 11 11 10 9 8 8 7 8 8 8 7 6 5 5 4 3 2 0 1 2 3 4 5 6 6 8 7 7
15 16 16 13 12 8 3 4 4 7 7 9 11 12 13 13 13 12 12 12 10 9 8 8 8 7 7 6 6 5 4 3 2 2 2 3 4 5 6 7 8 8 7
14 14 15 14 14 10 5 1 2 5 5 6 7 8 10 12 14 14 13 12 11 11 10 9 9 8 8 7 7 6 5 4 5 5 6 6 6 6 7 8 8 8 8
11 13 14 16 16 12 10 4 4 3 3 3 3 4 7 9 9 10 11 12 12 12 12 11 10 10 8 8 7 7 6 6 6 6 7 7 8 8 8 9 9 9 10
17 16 17 17 18 15 13 9 5 6 0 3 1 1 2 5 6 7 7 8 9 9 10 10 10 10 10 9 9 8 8 8 8 9 9 9 10 10 10 10 10 11 11
14 16 17 19 19 18 15 13 9 9 6 4 4 3 2 1 2 3 3 3 4 5 6 7 7 8 9 9 9 10 10 10 10 10 10 10 10 11 11 12 11 11 13
14 16 16 18 20 21 17 14 12 12 10 9 6 6 5 5 5 4 4 3 2 1 1 2 2 3 5 6 8 9 10 10 11 11 11 11 11 11 12 12 11 11 11
13 13 13 16 18 21 21 18 15 15 14 12 11 9 9 8 8 8 7 6 7 6 5 4 4 3 4 5 6 8 9 11 11 12 12 12 12 12 12 12 11 11 10
14 17 16 15 15 18 20 22 19 18 18 16 15 14 13 11 11 11 11 10 10 11 10 9 8 8 7 7 8 9 11 12 13 13 13 13 13 13 13 12 11 11 10
18 19 20 18 19 19 20 21 22 21 21 21 19 18 17 16 15 14 15 14 14 14 14 14 13 12 11 10 11 12 13 14 14 15 14 14 13 13 13 12 11 11 10
20 18 20 22 21 18 20 23 22 23 23 23 22 22 21 20 19 18 18 18 18 17 18 17 17 16 15 14 13 14 15 16 17 17 16 15 14 14 14 13 12 11 10
24 21 21 22 23 24 23 21 22 22 24 24 24 24 24 23 22 21 20 21 21 21 21 20 19 18 17 16 16 16 17 18 19 18 18 16 15 14 13 12 11 11 11
28 28 28 28 28 29 30 30 26 23 23 24 24 25 25 24 24 22 23 23 23 23 23 22 22 20 19 19 18 20 20 20 20 19 18 17 16 14 13 12 11 10 10
34 34 34 34 32 30 30 30 32 31 29 27 26 26 26 25 25 24 25 24 24 23 24 24 23 22 21 22 21 21 21 21 20 19 19 18 16 15 13 12 11 10 11
40 41 40 38 36 34 32 30 33 33 34 33 33 32 30 29 28 26 26 25 25 25 25 25 24 23 24 24 23 22 22 21 21 20 20 18 17 17 15 14 13 13 13
45 45 45 44 41 38 37 35 35 35 33 33 33 34 33 33 32 31 29 27 26 25 25 26 25 26 25 25 24 23 22 23 22 21 21 20 19 18 17 17 16 16 16
50 50 49 47 46 45 44 42 39 37 34 36 33 32 31 32 32 32 31 30 29 27 25 27 27 28 27 25 24 23 23 23 23 22 22 22 21 20 20 20 19 19 19
44 48 51 52 52 52 48 46 44 43 42 38 36 36 35 34 33 34 34 34 32 31 30 28 28 28 28 26 25 25 24 23 23 23 23 23 23 23 24 23 22 22 22
39 40 42 44 44 45 52 53 52 49 49 47 46 42 41 38 35 35 35 34 35 34 33 29 29 29 27 26 25 26 25 24 23 24 24 25 26 26 27 27 26 25 26
26 33 37 37 38 39 40 44 48 53 57 57 55 49 46 45 44 39 39 37 37 36 37 34 32 32 31 28 27 25 25 26 25 24 25 26 28 28 29 30 30 29 30
21 21 25 30 37 41 42 41 40 41 42 43 47 52 54 52 52 49 44 42 38 41 38 37 34 34 33 32 31 29 29 29 27 27 25 25 28 30 32 33 33 33 34
19 21 22 23 27 31 37 45 46 43 39 40 40 39 41 45 49 52 50 49 45 40 38 35 36 34 35 35 33 32 32 30 31 31 30 27 30 32 35 35 36 37 38

GFSSE_700_spd_042.txt.gz
Wind_Speed
8 8 5 5 8 11 13 11 9 10 10 10 10 10 9 8 6 6 6 7 8 7 6 5 6 6 6 6 7 7 6 7 6 5 5 5 5 4 3 4 5 6 7
12 10 8 4 8 9 10 10 11 10 10 9 10 10 10 9 7 6 6 7 8 7 6 5 9 9 8 5 3 5 5 5 4 4 4 4 4 4 4 5 6 7 8
16 14 11 6 7 8 10 10 10 10 10 9 10 9 9 9 8 7 6 6 6 7 6 8 9 8 7 6 5 5 3 3 3 3 3 3 4 5 5 6 7 7 7
17 17 14 9 9 9 9 9 8 8 9 9 9 9 9 9 9 8 7 6 7 7 7 7 7 6 6 4 4 4 3 2 1 2 3 4 5 5 5 5 6 6 7
18 19 16 12 11 9 7 7 7 7 7 8 9 9 10 9 10 9 9 8 7 7 7 7 7 6 5 4 3 2 1 0 1 1 2 3 4 5 5 5 5 6 6
19 20 18 14 13 11 10 4 5 6 7 8 8 8 11 12 11 10 10 10 10 9 9 9 8 7 6 6 5 4 3 3 2 3 3 4 4 5 6 6 6 7 6
14 16 18 16 15 12 11 3 2 4 5 5 6 7 9 8 10 11 11 11 11 11 10 10 9 8 7 6 6 5 4 3 3 4 4 6 6 7 8 8 8 8 8
13 15 16 17 17 15 12 7 4 2 3 2 3 3 7 8 9 9 9 11 11 12 11 10 9 8 7 6 6 5 5 4 4 4 5 5 7 7 8 8 8 9 9
14 13 17 18 18 17 15 13 10 8 3 1 1 1 2 4 5 6 6 7 8 8 8 8 8 7 7 7 7 6 6 6 5 6 6 7 7 8 8 8 9 9 10
14 15 15 18 19 19 18 16 14 12 9 5 4 3 3 3 2 3 3 2 2 3 4 4 4 4 4 5 6 6 7 7 7 7 8 8 8 9 10 9 9 11 11
13 14 14 18 20 21 21 18 17 15 13 11 9 8 6 5 6 5 4 3 3 3 2 1 1 2 3 4 5 6 8 9 9 9 9 10 10 11 11 10 11 10 10
13 13 14 17 18 22 23 21 19 18 16 14 14 12 11 10 8 9 8 8 7 7 7 7 6 6 6 6 6 7 8 10 11 12 12 12 12 12 11 11 11 10 10
15 18 17 17 18 20 22 23 22 20 19 17 18 17 16 15 13 12 12 12 12 12 11 11 11 10 10 10 10 10 11 11 13 14 14 13 13 13 12 11 11 10 10
20 20 19 20 20 18 20 22 24 24 22 22 21 21 20 19 17 17 17 16 16 16 15 15 15 14 14 14 14 13 13 14 15 16 15 15 13 13 13 12 11 11 9
26 24 23 23 21 20 21 21 23 25 26 25 25 26 24 24 22 22 21 21 19 19 19 19 18 18 18 17 17 16 16 17 17 18 18 16 15 15 13 13 12 10 9
26 24 22 23 23 22 22 20 21 24 26 28 28 28 28 28 27 26 25 24 24 23 22 22 22 22 21 20 19 18 18 20 20 19 20 18 16 15 14 12 11 10 9
30 29 26 25 24 24 25 27 28 27 26 27 27 29 31 30 30 30 29 28 27 26 25 24 25 24 24 23 22 21 21 22 21 21 20 19 17 16 14 13 12 10 9
33 32 31 31 30 31 31 30 29 31 33 31 30 29 30 31 31 31 30 30 29 29 28 27 27 27 25 24 23 24 24 23 22 22 21 21 19 17 16 14 14 12 11
37 38 38 37 36 35 36 35 33 32 32 34 36 34 33 31 31 31 31 32 32 31 30 28 28 28 27 25 25 27 26 25 24 23 23 22 20 19 18 17 16 16 15
42 42 43 43 42 41 40 39 37 37 34 37 38 38 37 38 37 35 33 33 33 33 32 31 29 28 27 26 28 27 27 26 25 25 24 24 22 21 20 19 20 19 19
45 46 47 47 46 45 45 45 42 40 37 36 37 35 36 38 39 39 38 37 36 34 33 32 31 30 28 28 28 28 28 27 27 26 25 25 23 23 23 23 23 23 23
42 46 48 50 50 50 50 50 48 45 43 41 38 37 36 38 36 36 36 36 37 36 35 34 33 31 31 30 29 29 29 28 27 27 26 26 26 25 25 26 26 26 26
38 40 41 43 44 46 47 50 54 54 54 50 46 42 40 38 39 38 39 39 38 37 36 37 37 35 34 31 30 31 30 29 27 28 28 27 27 26 27 28 29 30 30
30 33 36 38 39 39 39 41 43 48 49 48 49 48 47 46 45 45 45 45 42 40 39 37 38 37 38 36 34 33 30 29 28 30 28 27 27 27 29 30 31 32 33
23 24 24 26 29 33 38 41 41 42 43 43 44 46 47 50 53 53 50 49 48 44 43 42 39 41 40 40 38 35 33 36 32 32 31 28 29 27 28 31 34 36 36
21 22 23 25 27 28 30 32 38 45 46 45 44 43 41 40 41 45 50 52 53 51 48 47 43 42 43 43 40 38 39 40 36 34 32 32 31 33 35 37 37 38 38

GFSSE_700_spd_045.txt.gz
Wind_Speed
7 5 4 5 10 11 10 11 9 8 8 8 8 9 9 8 6 7 7 7 7 6 5 4 5 5 5 5 5 5 6 5 5 6 6 5 5 5 5 5 6 6 7
10 8 7 5 8 10 12 11 11 10 8 7 7 7 8 8 6 6 6 7 7 7 6 9 9 8 6 5 4 5 5 5 4 5 4 4 4 5 5 6 7 8 8
13 13 9 6 8 8 9 10 10 10 9 7 7 7 7 7 7 6 6 7 7 8 8 10 8 7 7 6 5 5 4 3 3 2 3 3 5 5 7 7 7 7 7
16 16 13 9 7 8 8 9 9 10 10 8 8 8 7 7 8 7 7 6 6 7 7 7 6 6 6 6 5 4 3 1 0 2 4 5 5 6 6 6 7 6 6
19 19 16 12 10 9 7 7 7 9 9 8 8 10 10 9 9 8 8 7 7 7 7 6 6 6 6 5 4 3 2 1 1 2 3 4 4 5 5 5 6 6 5
19 21 19 15 13 11 8 5 5 7 8 8 9 8 10 11 11 9 9 9 9 8 7 7 7 6 6 5 5 4 3 3 2 1 2 3 4 4 5 5 7 6 6
19 20 19 17 15 13 10 6 3 4 6 6 6 9 10 10 10 10 10 10 9 9 8 8 7 7 6 5 5 4 4 3 3 4 5 6 6 7 6 6 7 7 8
14 15 18 18 17 15 13 10 6 2 3 4 3 4 7 7 9 9 8 9 9 9 9 9 9 8 8 7 7 6 5 5 6 5 6 6 7 7 8 8 8 9 9
9 13 16 18 18 18 16 14 12 8 5 2 1 0 2 3 5 6 6 5 6 7 7 6 6 6 6 7 7 7 7 7 7 8 8 8 9 9 8 10 10 10 9
15 13 13 18 19 19 19 17 15 13 11 7 5 3 2 2 3 3 3 3 3 2 2 2 3 3 4 5 6 7 7 7 8 9 9 10 10 11 10 9 10 10 10
17 14 13 15 18 20 21 20 19 17 15 13 11 9 7 5 5 5 6 5 4 4 4 3 3 3 3 4 5 6 8 9 11 12 11 11 12 12 11 11 11 11 11
15 16 17 16 15 19 21 21 21 20 19 17 15 13 13 11 10 9 9 9 9 8 8 8 8 8 8 8 8 8 9 10 12 14 13 13 13 13 12 12 12 11 10
18 18 18 17 17 18 20 22 23 22 21 20 18 16 17 16 15 15 13 13 12 13 12 12 12 12 12 12 12 12 12 12 13 15 15 14 15 14 13 12 12 11 10
19 21 22 21 20 18 19 21 24 24 23 22 22 20 20 21 20 19 18 17 17 16 16 16 16 16 16 16 15 16 15 15 16 19 15 17 16 15 15 14 13 11 10
24 23 23 23 23 23 21 20 22 24 25 26 26 25 24 24 25 24 23 21 21 21 19 19 20 20 20 20 19 19 19 18 18 20 20 19 18 16 16 14 13 11 10
28 28 27 26 25 24 24 22 22 23 25 26 27 28 29 29 29 28 29 26 25 24 23 24 23 24 24 23 22 22 21 20 21 23 24 19 19 17 16 15 14 12 11
31 32 30 27 25 25 26 27 25 24 25 25 26 27 28 32 32 33 32 31 30 29 28 28 27 28 28 27 25 25 24 22 23 24 24 22 19 18 17 16 15 14 13
34 33 31 30 29 29 28 27 27 27 28 28 30 31 28 29 32 34 34 35 33 33 32 31 30 30 30 29 29 27 26 24 25 25 24 25 21 20 19 18 17 16 16
33 35 36 35 34 33 32 33 34 33 34 31 34 33 33 33 32 32 34 34 34 35 34 33 32 32 32 31 31 29 28 27 27 27 26 25 24 23 21 20 20 19 19
38 41 41 41 40 39 39 39 41 38 39 36 35 35 35 36 36 35 35 36 36 36 35 34 33 33 33 34 33 31 30 29 28 28 28 26 25 25 24 21 22 22 22
37 38 40 42 43 43 44 44 47 43 41 42 39 37 36 37 38 37 39 40 40 40 40 38 36 35 36 36 35 33 33 31 30 29 28 28 27 26 26 25 24 24 25
38 39 40 42 44 44 45 46 47 50 45 44 44 43 41 40 39 37 38 40 40 40 40 39 37 37 36 36 35 34 37 35 32 30 30 29 28 27 27 27 27 27 28
37 37 38 39 40 42 44 45 48 52 50 49 47 47 45 44 42 42 40 39 39 40 40 38 37 38 37 36 35 37 39 37 33 31 32 30 29 28 28 28 29 29 30
32 33 34 35 37 37 38 39 40 42 44 43 44 44 43 45 46 47 46 45 43 42 44 43 43 40 39 39 40 39 41 39 34 34 32 29 28 31 29 29 29 31 31
26 27 27 27 27 27 28 32 36 40 43 43 42 41 42 43 45 49 52 52 51 50 48 49 49 47 44 43 41 41 40 40 40 38 36 32 35 34 31 31 30 30 30
22 22 23 24 26 27 28 30 31 33 34 36 39 42 43 42 42 44 45 51 55 57 56 54 52 51 49 46 45 45 43 42 43 41 39 42 41 37 34 34 34 35 38

GFSSE_700_spd_048.txt.gz
Wind_Speed
8 8 7 8 10 11 11 10 10 9 8 8 8 8 8 8 8 7 8 8 8 7 7 8 7 7 7 7 7 7 6 4 4 5 4 5 5 5 5 5 5 6 7
11 9 7 8 9 11 12 11 11 10 9 8 8 8 8 8 7 7 8 8 9 8 7 9 9 8 6 4 5 4 3 3 3 3 4 3 3 4 5 6 7 7 7
13 11 9 8 8 9 11 12 11 12 9 8 9 8 8 9 8 7 7 7 8 9 11 9 9 8 8 7 5 4 3 2 2 2 1 3 3 5 6 7 7 7 7
14 14 11 9 7 6 7 10 12 12 10 10 10 10 9 9 9 8 8 8 8 9 10 8 8 7 7 7 6 5 4 2 1 2 3 2 5 5 5 5 5 6 6
15 16 14 11 8 5 4 6 9 12 11 10 10 11 12 11 10 10 9 9 8 8 8 8 7 8 8 7 6 4 3 2 2 3 4 4 4 5 5 6 6 5 5
16 17 17 14 11 8 5 4 6 9 11 9 11 10 10 12 12 11 10 10 10 10 9 9 9 9 9 8 7 6 6 5 5 4 5 5 6 6 6 6 6 7 6
16 19 19 17 14 12 7 5 3 5 8 8 7 9 11 12 11 11 11 11 11 10 10 10 9 9 9 8 8 7 7 7 7 6 6 6 6 7 7 7 8 8 8
17 17 19 18 16 15 12 8 5 2 3 5 6 5 6 7 9 10 9 9 9 10 10 10 10 10 10 10 9 9 8 8 8 8 8 8 9 8 8 8 8 8 9
11 14 17 18 17 17 16 14 10 7 4 2 3 5 4 4 5 6 6 6 7 7 7 8 8 7 7 7 7 7 7 8 8 9 9 10 9 8 9 9 9 9 9
10 12 15 17 18 18 18 17 14 11 9 5 3 1 2 3 3 3 3 4 4 5 5 4 5 5 5 6 6 6 7 9 10 10 11 11 11 11 10 10 10 10 10
14 15 14 14 17 18 19 19 18 17 15 12 8 7 6 4 3 3 4 4 5 5 5 5 6 5 6 6 7 7 8 9 10 12 12 13 12 12 12 11 11 10 10
16 18 19 16 16 17 19 20 20 20 19 17 14 13 12 10 9 7 7 7 7 8 8 8 8 9 10 10 10 10 10 11 12 14 14 14 14 14 13 12 12 11 10
15 16 18 20 20 18 18 19 20 21 21 19 18 17 16 15 14 13 13 12 12 12 11 12 12 12 13 13 14 14 15 15 14 15 15 16 16 15 14 13 13 13 11
15 15 17 20 21 20 18 18 19 21 22 21 20 20 20 19 18 18 18 18 17 17 16 15 15 15 16 17 17 18 18 18 18 17 16 19 17 16 15 14 14 13 12
20 19 19 21 22 21 21 20 20 21 22 24 25 25 24 23 23 23 22 22 22 21 21 21 20 19 19 19 19 21 21 22 22 20 19 20 18 17 16 15 15 14 13
25 24 23 22 22 22 22 22 23 23 22 22 23 24 26 27 27 27 28 26 26 27 27 26 25 25 23 23 22 23 23 23 24 23 23 22 20 19 17 16 16 16 14
29 28 27 25 25 25 25 25 26 25 24 22 22 22 23 26 27 28 29 31 29 29 31 31 30 29 28 26 26 27 26 25 25 26 23 24 21 20 19 18 18 17 16
29 28 30 29 28 28 27 26 26 27 28 28 28 28 27 26 27 28 29 31 30 31 32 33 32 32 31 30 29 29 29 29 28 27 28 24 22 21 20 20 19 18 17
31 30 32 32 32 29 30 31 28 28 30 31 32 32 31 31 31 30 31 30 30 31 31 31 30 31 32 32 31 32 31 31 30 29 28 28 25 22 22 21 21 20 19
34 32 33 36 37 37 35 35 34 34 34 34 34 36 35 35 34 34 34 33 34 35 34 33 33 30 30 32 33 35 33 33 32 31 31 29 29 25 23 22 23 23 22
36 35 37 37 37 37 38 39 40 40 39 39 37 37 39 40 40 37 36 36 37 38 37 37 36 36 35 35 35 36 36 35 35 33 33 32 29 28 28 24 24 24 24
33 35 36 36 37 38 40 40 42 45 46 44 42 40 41 44 43 42 40 39 39 40 40 40 39 38 37 37 37 35 38 38 36 35 34 35 33 30 31 28 25 26 26
33 34 34 34 34 35 37 38 39 42 47 47 43 39 39 41 46 47 45 44 41 41 42 41 41 39 38 36 37 36 39 40 36 36 35 35 35 33 31 31 27 28 28
30 31 31 32 32 32 32 34 35 36 39 42 42 37 36 36 36 40 46 48 47 45 45 44 43 43 43 42 41 39 40 41 40 40 37 35 35 35 32 30 29 33 39
27 27 27 27 27 27 27 28 29 31 32 35 39 40 39 38 36 35 36 42 48 50 50 48 49 50 50 48 45 43 43 44 43 41 41 38 38 39 40 35 35 37 39
21 22 22 23 24 26 26 27 27 28 29 30 30 32 33 34 35 35 37 37 40 43 47 51 54 55 56 56 54 51 48 46 46 44 44 42 40 39 41 41 43 46 35

GFSSE_700_spd_051.txt.gz
Wind_Speed
13 12 12 12 10 11 12 9 9 9 8 8 8 8 8 8 8 8 8 8 8 8 9 8 8 6 6 7 7 7 7 5 4 4 4 4 4 4 4 4 5 5 6
12 11 11 11 8 9 12 10 9 10 9 9 9 9 10 9 8 8 8 8 8 9 10 11 9 7 6 5 5 4 4 4 2 3 3 3 3 3 5 5 6 6 6
13 12 12 11 9 8 9 13 14 11 10 10 10 10 10 10 10 9 8 8 10 10 10 10 9 8 8 6 5 3 1 1 2 2 3 4 5 5 6 6 6 6 6
16 14 13 12 9 6 8 11 15 16 12 11 12 12 11 11 11 10 9 9 10 10 10 9 9 8 8 7 6 4 3 3 3 3 3 4 5 6 6 6 6 6 6
16 16 15 13 10 6 5 8 11 15 15 11 11 11 12 12 12 11 11 11 11 11 9 9 9 9 8 7 7 6 6 6 6 7 6 6 6 6 6 6 7 7 7
16 17 16 14 12 8 4 4 6 10 14 13 11 10 10 11 13 12 12 12 12 12 11 11 11 11 10 10 9 8 8 7 8 7 7 7 7 6 7 7 7 7 7
15 18 19 16 13 10 6 3 2 5 9 13 11 8 10 11 10 11 12 13 13 13 13 13 12 12 11 11 11 10 10 10 10 8 7 8 7 7 7 7 7 7 6
16 19 20 18 15 13 11 7 4 2 3 6 9 10 7 7 8 10 11 11 11 11 11 11 10 10 10 10 10 10 10 9 10 9 10 10 9 9 9 9 9 9 9
14 16 19 18 16 15 15 12 9 6 4 2 4 6 8 8 7 6 6 7 7 7 8 8 9 8 9 9 9 9 9 10 11 11 11 11 10 10 10 10 9 9 9
11 13 17 18 17 16 16 15 14 11 8 6 3 1 2 3 6 6 5 4 4 5 5 6 6 7 7 8 9 10 11 12 12 13 13 12 11 10 10 10 10 10 10
12 11 13 15 17 18 18 18 17 16 13 10 7 6 5 3 1 2 4 5 6 6 6 6 6 7 8 9 9 10 11 12 13 13 15 15 14 12 10 10 10 11 11
12 13 13 14 14 15 17 17 18 17 16 15 13 12 10 9 7 6 6 6 6 7 8 8 8 9 10 11 12 12 13 14 15 14 15 16 16 15 13 11 11 11 11
15 16 17 16 16 16 13 15 17 17 18 17 17 17 17 15 13 12 12 11 10 10 11 11 11 11 13 14 15 15 16 16 15 15 15 17 18 17 16 14 13 12 11
15 15 14 13 14 16 19 19 17 17 18 19 20 20 20 19 17 16 16 16 16 15 16 16 16 16 16 17 18 18 20 19 18 17 16 17 18 18 17 16 14 13 12
19 17 15 15 15 15 16 18 19 18 19 20 21 23 23 22 21 21 21 20 20 20 20 21 20 20 21 21 22 21 22 23 21 21 19 18 19 19 17 16 16 15 14
23 20 20 20 18 17 18 20 21 22 22 21 22 22 22 23 24 25 25 24 25 25 24 24 25 24 24 24 25 24 23 24 24 22 23 21 20 21 19 17 16 16 15
28 27 24 23 22 22 23 22 22 23 24 24 24 24 24 23 24 23 24 25 25 27 28 29 29 28 28 27 27 27 27 27 27 24 24 24 22 22 21 20 18 18 17
29 31 30 28 28 28 27 27 27 25 25 25 24 25 24 22 23 25 27 27 27 27 27 28 28 29 28 28 28 28 29 29 30 28 26 26 25 24 23 22 21 20 19
28 29 30 30 27 27 27 29 29 28 28 28 27 27 28 27 28 28 28 29 29 30 31 29 28 28 28 27 28 29 30 31 31 33 30 28 27 26 25 24 23 22 21
30 31 30 31 30 31 31 31 30 29 30 31 30 31 31 32 33 34 33 31 32 31 31 32 32 32 31 30 31 30 30 30 32 32 35 32 30 29 27 27 25 25 23
32 34 32 32 35 36 36 35 32 31 31 32 33 34 35 37 37 38 38 37 36 36 34 33 36 36 36 34 35 36 36 35 35 34 35 36 32 31 30 28 29 28 27
31 33 34 33 33 33 35 36 38 39 40 37 37 37 38 39 40 42 43 42 39 39 39 38 38 39 37 35 37 37 39 37 36 34 34 35 35 34 32 31 30 31 30
31 31 32 32 32 32 34 35 36 37 40 41 41 39 38 38 39 42 43 43 42 41 41 41 41 41 40 39 38 38 40 40 36 34 35 35 34 35 35 33 31 31 33
32 31 30 31 32 32 32 33 33 34 35 37 39 38 38 37 34 35 36 37 40 40 40 41 42 43 44 43 43 43 42 42 43 41 37 37 37 37 35 35 33 32 32
30 29 28 29 30 29 29 29 29 29 31 32 34 36 34 33 33 33 34 36 39 39 39 39 41 44 46 49 48 47 48 47 47 46 45 41 40 40 40 38 39 39 38
23 23 23 24 25 25 25 26 27 28 29 29 29 30 31 31 30 31 31 31 32 35 38 37 38 40 43 44 47 48 50 49 50 49 49 48 45 43 42 44 49 43 37

GFSSE_700_spd_054.txt.gz
Wind_Speed
14 14 14 12 11 13 12 10 9 7 7 6 7 7 6 6 6 7 7 7 8 7 8 7 6 5 6 8 8 8 8 6 5 4 4 5 4 4 4 4 5 6 6
14 13 14 12 11 11 14 15 10 9 8 8 7 7 8 8 8 8 8 8 8 10 10 9 8 6 4 4 3 3 2 3 3 3 4 4 5 5 5 6 6 6 6
17 13 15 13 10 8 10 13 16 11 8 8 8 9 10 10 10 9 9 9 10 10 9 9 9 8 6 4 3 2 2 3 4 4 4 5 5 6 6 6 5 5 5
16 14 15 14 10 8 8 9 13 17 12 9 10 10 10 10 11 11 11 10 10 10 9 9 8 8 8 6 5 5 6 6 6 6 6 5 5 5 5 5 5 6 6
17 16 15 14 11 8 6 6 9 14 18 14 11 11 11 12 12 12 12 12 12 11 10 9 9 9 8 8 8 8 8 7 6 5 5 5 6 7 6 6 7 7 6
18 17 17 15 14 10 6 4 6 9 15 18 16 12 11 10 11 13 13 12 12 13 12 12 12 11 11 11 11 10 10 9 10 10 9 8 8 8 9 8 8 7 7
19 19 20 17 16 13 8 4 4 6 10 14 16 17 12 11 10 10 11 11 12 12 12 13 13 13 13 12 12 11 12 11 11 11 11 11 11 11 11 10 9 8 9
17 20 22 20 17 15 11 7 3 4 5 7 12 15 15 11 8 9 8 9 11 11 11 12 12 12 12 12 12 12 13 12 12 12 11 11 11 11 10 10 10 9 8
18 21 23 22 19 16 13 10 7 4 4 3 4 8 10 12 11 8 6 7 7 8 8 9 9 9 9 10 10 11 12 13 14 15 15 14 13 12 11 10 10 10 9
19 19 23 22 19 16 14 12 10 8 7 5 5 3 1 3 7 9 8 7 5 6 6 6 6 8 9 10 10 11 13 13 13 14 15 16 15 14 13 12 11 10 10
14 17 19 20 18 17 16 15 15 13 12 10 9 8 7 6 3 1 1 2 3 5 6 6 7 7 9 10 12 12 14 14 13 14 15 15 16 16 14 13 12 11 11
11 10 11 12 14 14 15 15 16 16 15 15 15 13 12 10 9 8 7 6 5 5 5 6 6 7 8 10 11 12 13 15 15 15 15 17 17 17 16 13 13 12 12
12 10 10 11 12 12 13 14 15 16 17 17 18 18 17 15 14 13 12 12 12 11 11 11 11 11 11 12 13 14 14 14 16 16 16 17 18 18 18 16 13 12 11
14 13 12 10 11 12 14 15 15 16 16 17 19 19 19 19 18 17 17 17 16 16 15 16 16 16 16 17 17 17 17 16 16 18 18 18 19 19 20 18 16 15 13
17 16 15 14 13 13 12 13 15 16 15 17 19 19 20 20 19 20 20 19 19 19 19 20 21 21 21 21 22 22 22 20 18 18 19 19 19 20 20 20 18 17 16
20 20 19 18 17 16 15 15 16 17 18 19 19 19 20 21 22 22 23 23 23 22 22 24 25 25 25 25 25 25 25 25 25 23 22 22 21 21 21 21 20 18 17
25 24 24 22 22 20 20 20 20 20 20 20 20 21 22 23 22 22 22 22 23 23 23 24 25 26 26 27 26 27 28 27 28 27 26 26 25 23 23 23 22 21 19
28 28 27 27 26 25 26 25 26 25 24 23 22 22 21 21 23 24 23 23 24 25 27 28 27 27 27 26 26 26 28 29 29 29 28 28 27 26 25 25 25 23 22
27 27 29 29 29 29 30 30 30 29 27 26 27 25 24 24 24 25 26 26 27 28 28 28 29 30 31 30 29 29 28 29 30 30 29 29 29 29 28 28 27 26 25
28 28 28 29 30 31 31 31 32 31 29 28 29 28 27 27 28 29 29 29 30 30 30 30 30 31 32 30 32 32 32 32 33 33 32 31 31 31 30 29 29 29 28
29 30 30 31 30 30 32 32 32 32 31 32 30 29 30 31 32 33 33 33 33 36 34 34 35 34 35 34 35 36 36 36 36 35 36 35 33 32 32 31 31 30 30
31 30 31 31 31 33 35 35 35 34 33 31 32 33 34 34 35 37 37 38 39 40 39 37 37 38 38 38 38 38 41 41 37 34 35 35 33 32 31 31 30 31 32
31 31 30 30 31 33 35 36 36 36 36 35 35 34 34 37 39 40 41 42 41 42 41 39 38 39 39 40 40 41 42 45 42 38 36 36 36 36 35 33 33 33 33
33 32 32 33 33 34 34 35 35 35 35 35 35 36 36 36 37 38 38 38 38 38 38 38 37 38 39 41 41 42 42 44 46 48 44 40 39 39 40 37 36 36 36
34 34 35 35 33 33 33 33 33 33 34 34 34 35 36 35 35 34 34 34 36 37 38 39 39 40 39 39 42 43 43 44 46 47 54 50 46 45 44 42 42 39 39
33 34 33 32 31 31 31 30 30 31 31 32 32 33 33 31 31 32 31 31 31 32 34 35 35 37 39 37 39 39 40 44 44 48 50 52 47 47 48 48 45 44 45

GFSSE_700_spd_057.txt.gz
Wind_Speed
10 11 11 12 14 16 15 12 10 9 9 9 8 8 8 7 7 7 8 9 9 11 10 7 3 4 5 7 6 5 6 7 6 6 6 6 6 6 7 7 7 7 6
11 8 10 10 12 14 17 19 14 10 10 9 9 9 10 9 8 8 9 11 11 12 11 11 8 5 3 1 2 4 5 5 6 6 6 6 6 7 7 8 8 8 8
16 10 10 9 10 9 12 17 19 16 11 11 10 11 10 11 11 11 11 12 12 11 11 11 11 10 8 7 7 7 7 6 6 7 7 7 8 7 7 7 7 7 7
18 14 11 11 9 7 8 12 16 19 17 12 11 10 10 10 12 13 13 12 11 11 12 12 12 12 11 11 10 9 8 8 9 9 9 9 7 8 7 8 8 7 7
17 16 12 12 10 6 5 8 11 15 19 19 14 11 11 13 13 14 14 14 14 14 14 13 13 14 13 13 12 12 11 11 11 12 10 10 11 10 9 9 9 8 9
18 16 14 15 11 8 5 6 8 11 14 17 19 16 13 13 13 14 14 15 15 16 15 15 16 15 15 14 14 14 13 14 14 13 13 14 14 14 12 12 11 11 11
19 17 16 16 14 10 7 5 7 7 8 13 16 19 19 14 12 12 13 13 14 14 14 14 14 14 14 13 14 14 14 14 15 15 15 14 14 14 14 13 12 12 12
19 19 19 18 16 13 10 7 5 4 4 7 10 13 15 17 14 11 10 10 11 11 11 12 12 12 13 13 13 14 14 14 14 14 15 15 15 14 13 13 12 11 12
19 22 21 20 18 16 13 9 7 4 2 3 4 7 10 12 14 15 13 10 9 8 8 8 9 9 10 11 12 12 13 14 15 15 15 15 16 15 14 13 13 11 11
19 19 23 23 20 17 15 12 10 8 6 4 2 2 3 3 7 9 10 11 10 9 9 9 9 9 10 11 11 12 13 13 15 16 16 16 17 18 18 15 14 12 11
21 21 21 23 21 18 16 15 13 13 11 9 7 6 5 4 3 2 2 3 3 5 5 6 6 7 9 10 10 12 13 13 13 14 15 16 17 17 19 18 16 14 12
15 17 19 20 20 19 17 16 15 15 14 13 12 11 11 10 10 9 8 8 7 7 7 7 7 7 7 9 11 12 12 13 13 13 14 15 16 17 18 19 19 17 15
14 12 12 13 15 15 14 14 14 14 14 15 15 16 16 16 14 14 13 13 13 12 12 13 13 13 13 14 14 14 13 13 14 14 15 15 17 18 18 18 19 18 17
13 12 11 10 11 12 12 12 13 13 13 14 16 18 18 18 17 17 17 17 16 16 17 17 18 17 17 18 19 19 19 19 19 18 18 18 18 19 19 20 19 19 18
14 12 11 11 10 9 10 12 13 14 14 15 17 17 18 18 19 19 19 18 18 19 20 20 21 20 20 21 22 22 23 22 22 22 22 22 21 20 20 21 21 21 20
17 15 14 14 13 13 12 13 13 14 15 16 17 17 18 19 19 19 20 20 20 21 21 22 21 22 22 23 24 24 25 24 24 24 24 25 24 23 22 22 22 22 22
19 21 19 19 19 18 19 18 18 18 18 18 17 17 18 18 18 19 19 18 18 20 21 22 23 23 24 24 23 25 25 26 26 26 26 26 26 26 24 24 23 23 23
23 25 25 23 23 23 23 24 23 23 23 22 21 22 22 21 20 20 20 20 22 24 25 25 25 25 26 27 27 26 26 26 26 27 27 28 28 28 27 27 26 25 24
23 23 25 27 27 27 27 27 27 27 27 26 25 25 24 25 24 24 24 24 26 28 28 28 28 28 27 28 30 30 31 32 31 30 27 27 28 27 28 28 28 28 28
28 26 26 27 28 29 29 29 30 30 29 28 28 25 25 26 27 28 27 27 29 31 30 29 30 31 32 31 33 34 34 34 34 33 32 32 32 31 31 31 31 30 30
33 32 30 29 28 28 29 30 31 31 30 30 29 29 29 29 29 30 30 31 32 33 33 34 36 36 35 36 37 37 36 36 37 35 34 33 33 32 32 31 30 31 33
31 32 32 32 30 29 30 32 33 32 33 32 32 33 33 33 34 35 34 35 35 38 38 38 39 40 39 35 37 39 43 41 38 36 36 35 34 33 32 31 32 32 33
31 31 31 31 30 31 32 33 34 35 35 36 34 33 34 36 37 38 40 41 41 43 42 41 41 41 38 37 36 37 41 44 42 40 38 37 37 37 35 35 36 37 36
28 29 31 32 32 32 32 33 34 35 36 35 35 35 34 34 36 38 39 40 40 41 41 40 40 40 39 40 39 37 38 41 43 48 44 39 40 40 41 40 42 42 41
34 35 36 36 35 35 36 35 36 36 36 35 35 35 34 34 36 36 36 36 35 35 37 38 38 38 38 39 38 38 39 40 41 42 46 44 43 41 42 43 44 50 52
35 35 36 37 37 37 37 36 35 35 35 35 34 34 34 34 34 34 33 32 33 32 31 32 33 33 33 33 36 37 37 39 41 41 43 46 47 45 41 44 45 43 49

GFSSE_700_spd_060.txt.gz
Wind_Speed
10 12 13 16 19 20 19 15 13 13 12 11 11 12 14 12 10 11 12 14 16 15 12 7 2 1 2 3 4 6 6 6 7 8 8 8 8 8 8 8 9 8 6
8 9 12 13 15 18 20 21 16 13 13 13 13 14 14 13 12 13 14 15 16 16 15 14 11 9 8 8 8 8 8 9 10 10 10 10 10 10 10 10 10 9 8
10 6 9 12 12 14 17 20 22 18 16 14 14 14 13 13 14 15 14 14 15 16 16 16 16 15 14 13 11 11 11 11 12 12 12 13 12 11 11 11 10 10 10
14 7 9 11 10 10 13 16 20 22 20 16 14 13 13 14 15 16 15 15 15 16 17 16 17 17 16 15 14 14 14 14 15 15 15 14 12 13 12 12 11 11 10
18 12 8 9 8 7 9 12 16 19 20 20 16 13 13 15 16 16 16 17 18 19 18 18 19 19 18 17 17 17 17 16 16 16 15 14 14 14 14 13 13 13 11
19 16 9 8 8 6 6 8 12 14 16 18 19 18 15 14 14 14 15 16 17 17 17 16 17 17 16 16 16 16 15 15 15 15 14 14 14 14 14 13 13 13 13
21 18 13 11 10 8 6 5 7 9 11 13 16 18 20 16 14 14 14 15 15 15 15 15 15 15 14 15 14 14 15 15 15 15 16 17 17 16 14 13 13 13 12
21 19 14 13 13 11 8 6 5 6 7 9 11 13 15 17 18 17 14 12 12 12 11 12 12 12 12 12 13 13 14 15 15 15 16 17 17 18 17 16 14 13 13
23 21 17 16 15 14 11 9 7 6 4 5 5 6 8 11 13 14 16 16 14 14 13 12 12 12 12 12 13 13 14 14 14 15 15 16 16 17 17 18 16 14 13
21 22 22 20 18 17 15 12 10 9 6 3 2 2 3 4 7 8 8 9 9 11 11 12 12 13 13 13 13 13 14 14 15 15 15 15 15 16 16 17 16 15 13
19 20 21 22 21 19 17 15 13 12 9 7 7 5 5 3 2 1 0 1 2 3 3 3 4 5 6 9 11 12 13 13 13 15 16 16 17 17 17 16 17 16 15
23 21 21 21 22 22 19 18 16 15 13 12 12 11 10 9 8 7 7 7 7 8 8 8 9 9 9 10 10 10 10 11 11 11 12 13 14 16 17 17 17 18 17
17 19 20 20 21 21 20 17 16 16 15 15 15 15 14 13 12 12 12 12 12 12 13 13 13 13 14 14 15 15 15 16 16 16 16 15 16 16 17 18 18 18 18
15 16 15 14 15 17 17 16 15 14 14 15 16 15 14 14 14 14 15 15 16 16 16 16 16 17 17 18 19 19 19 18 18 19 19 19 19 18 18 18 18 18 18
17 15 14 14 14 13 14 14 13 13 14 16 16 15 15 14 14 15 16 17 17 17 18 18 19 20 21 21 21 21 21 21 21 21 21 22 23 22 21 20 20 19 19
17 14 13 13 13 13 12 12 12 13 14 15 15 15 15 15 16 16 17 18 19 20 21 20 19 20 20 21 21 21 22 23 23 23 24 25 24 25 23 22 21 21 21
18 17 14 15 14 13 14 15 15 17 17 16 16 17 17 17 18 17 18 18 19 19 19 19 20 21 22 23 23 23 24 24 24 24 24 24 24 25 25 24 23 23 22
20 18 18 17 17 18 20 21 21 21 20 20 20 20 20 21 20 20 19 20 22 22 23 23 24 25 26 27 26 25 26 27 27 26 26 25 25 25 24 24 24 24 24
24 24 24 24 24 25 25 25 25 25 25 25 25 24 24 23 23 23 23 23 25 27 27 27 28 29 29 28 29 29 30 29 29 30 28 27 28 27 27 27 27 27 26
23 23 23 24 24 24 25 26 27 29 28 28 27 26 26 25 25 26 27 27 29 30 30 30 31 32 32 32 33 34 33 34 35 32 31 30 29 29 29 29 29 29 29
26 26 27 27 27 27 26 26 26 27 27 28 27 27 27 27 27 28 29 29 30 31 32 32 34 35 35 35 38 38 38 38 36 34 34 33 31 31 30 29 30 30 30
30 30 31 30 30 29 29 28 28 28 29 28 28 29 30 31 32 32 33 33 35 36 35 35 37 39 41 40 42 40 41 37 35 33 33 33 32 32 31 31 31 31 32
31 32 31 30 30 30 30 29 29 30 31 31 31 32 33 34 34 35 35 36 37 39 39 39 40 39 41 41 38 38 40 41 39 37 35 34 33 32 34 36 37 37 37
25 27 30 31 31 31 30 29 30 31 32 32 33 34 35 35 35 36 37 38 39 39 40 39 39 39 40 42 40 38 38 40 42 44 40 37 33 32 33 35 37 36 40
26 26 27 29 31 32 32 33 34 34 34 35 35 35 35 37 37 37 37 38 38 38 37 37 36 36 38 38 36 36 36 36 37 38 41 40 39 38 37 37 37 37 39
33 32 32 34 34 34 35 35 36 37 37 37 36 35 34 35 36 36 36 35 35 35 34 34 35 35 34 34 34 36 36 35 35 38 41 42 43 41 38 38 36 37 38

GFSSE_700_spd_063.txt.gz
Wind_Speed
13 14 15 19 20 20 17 15 15 15 15 14 14 14 14 15 16 16 16 18 18 16 11 6 4 3 5 6 7 8 9 10 10 10 10 10 10 10 10 9 8 7 7
12 12 14 18 20 22 22 18 16 16 15 15 15 15 16 17 17 17 16 17 18 19 16 15 13 11 11 11 11 12 11 12 12 12 12 12 12 11 11 10 10 9 8
12 10 15 16 18 20 22 23 19 17 16 16 16 16 17 17 18 16 16 17 18 19 18 18 17 16 15 14 14 14 14 14 15 15 14 13 13 12 11 12 11 11 10
12 10 14 14 15 17 18 20 21 21 18 16 16 17 17 16 17 17 18 19 20 19 18 18 18 18 17 17 17 17 17 17 17 16 15 14 14 13 14 14 13 12 11
15 11 13 12 12 13 14 15 17 21 22 20 18 16 15 16 16 17 18 19 20 19 19 19 20 19 18 18 17 16 16 16 16 15 14 13 13 12 13 14 13 13 13
17 13 13 11 9 9 11 12 15 17 19 21 21 18 16 15 15 15 16 16 16 16 16 17 18 17 17 17 17 15 15 15 14 14 15 15 15 15 13 12 12 11 12
18 18 13 11 9 7 9 9 11 13 15 17 18 19 19 17 16 15 15 15 14 14 14 15 15 14 15 15 15 15 15 15 15 15 15 15 15 16 16 14 13 11 10
21 20 16 13 11 8 7 7 7 9 12 11 12 13 16 18 19 19 17 16 15 15 14 14 14 14 14 14 14 15 14 15 15 16 16 16 16 16 16 16 14 13 12
24 22 19 15 13 12 10 8 7 7 8 7 7 8 10 12 13 13 13 14 15 15 15 15 15 15 14 14 15 15 16 16 16 17 16 16 16 16 16 16 15 13 12
25 23 21 19 16 14 13 11 9 9 8 6 4 5 5 5 6 7 7 7 7 8 9 8 9 9 10 9 9 9 10 10 11 12 13 14 15 15 15 15 15 15 14
26 26 25 22 20 18 17 15 13 11 9 8 6 5 4 3 2 2 1 0 1 2 1 2 4 5 4 5 6 7 8 8 9 9 10 10 11 12 14 15 15 15 15
23 26 27 24 22 21 20 18 16 15 13 11 10 9 8 7 8 7 7 6 7 7 7 7 8 8 9 10 10 11 11 12 13 14 15 14 14 13 13 13 14 15 15
22 22 23 25 24 23 22 21 19 18 16 15 14 13 12 12 12 12 12 12 12 12 11 12 13 13 14 14 14 15 15 16 16 17 17 17 17 15 16 16 15 15 15
19 23 24 24 24 24 23 21 20 19 17 17 16 15 14 13 14 14 15 15 15 14 14 15 16 16 16 17 17 18 18 19 19 20 21 21 20 19 19 18 18 17 17
17 17 18 19 19 19 20 20 19 17 17 16 15 14 14 14 14 14 15 15 15 15 16 17 18 19 19 19 20 20 21 21 21 23 23 23 22 22 22 21 20 19 19
17 16 17 16 16 17 17 17 17 16 16 16 16 16 16 15 16 16 16 16 16 17 19 19 19 19 19 19 21 22 24 23 23 24 24 23 23 23 24 23 22 21 20
18 17 16 16 16 16 16 16 16 16 16 16 16 16 16 16 17 18 17 17 19 20 21 20 20 20 21 23 23 24 25 25 24 24 25 24 24 24 25 24 25 23 21
21 18 18 17 16 16 16 18 18 19 19 18 18 19 19 19 19 20 19 19 21 21 23 23 24 25 25 26 27 27 27 27 26 26 26 25 25 25 26 26 27 26 24
21 21 20 20 20 20 21 22 23 23 22 22 22 22 23 23 23 22 22 22 24 25 26 27 28 29 29 30 29 29 30 30 30 31 30 30 28 27 27 27 28 28 28
20 19 20 20 21 23 24 25 25 26 25 25 25 26 27 27 26 25 24 24 27 28 29 30 32 32 33 33 34 33 33 34 34 35 34 31 30 30 30 30 30 29 30
21 20 21 21 23 23 23 23 25 25 26 26 27 28 29 28 28 28 28 27 28 30 30 32 34 35 35 36 38 38 38 37 36 35 32 31 30 31 31 31 32 32 31
24 24 25 26 27 27 28 28 27 26 27 28 29 28 29 29 30 30 31 32 32 33 34 35 37 38 39 37 41 42 42 38 33 33 31 29 30 32 32 32 32 33 34
25 25 27 28 28 27 27 27 28 28 28 30 30 30 31 31 32 33 33 33 33 35 35 36 37 38 39 38 38 39 41 40 40 35 32 31 30 29 29 30 31 32 35
28 28 28 28 29 28 28 28 29 29 29 30 30 31 32 33 34 35 36 36 35 36 38 38 37 38 38 38 38 38 38 40 40 40 35 31 29 28 28 29 31 32 33
24 23 23 25 27 28 30 30 30 31 32 33 33 34 35 35 36 35 35 36 36 36 36 35 34 34 34 35 34 35 35 35 35 38 40 36 34 34 33 30 31 32 33
28 27 28 27 28 29 31 33 34 34 34 35 36 36 37 37 36 35 35 36 35 35 35 35 35 35 36 37 36 35 35 36 38 37 36 37 38 36 34 29 31 31 31

GFSSE_700_spd_066.txt.gz
Wind_Speed
13 12 15 18 17 16 16 15 14 14 14 15 15 15 15 16 16 17 19 18 15 10 8 6 4 3 5 6 8 9 9 9 9 9 9 10 10 10 10 9 8 8 7
12 12 16 19 21 20 18 16 16 15 15 15 15 15 16 17 16 17 19 18 17 14 12 11 10 9 10 11 11 11 11 11 11 12 11 11 12 11 11 10 9 8 9
12 14 16 19 21 22 21 19 17 16 16 16 16 16 17 17 17 18 17 17 17 15 15 15 14 14 14 14 14 14 14 14 14 14 14 14 14 13 13 12 11 10 10
13 14 15 17 19 20 22 22 19 17 17 16 16 17 18 17 18 19 19 18 18 17 16 17 17 17 16 16 15 14 14 13 13 13 13 12 12 11 11 11 10 11 11
15 15 16 15 15 17 18 19 20 20 18 16 16 16 17 17 17 18 18 18 18 17 18 18 18 16 15 14 14 14 14 14 14 14 13 13 11 11 11 11 11 11 10
18 17 16 14 13 13 14 15 16 18 20 19 17 16 16 15 15 15 15 15 15 16 16 16 16 15 14 13 13 13 14 14 14 14 14 14 14 13 13 12 11 10 9
20 19 18 15 13 11 10 12 13 13 15 18 19 18 18 16 14 14 14 14 14 14 14 14 13 13 14 13 14 14 14 15 15 14 14 15 14 14 13 13 13 11 10
21 19 19 17 14 12 10 9 10 10 11 12 14 16 17 16 16 16 16 16 15 15 14 14 14 14 14 14 15 15 15 15 15 15 15 14 14 14 14 14 14 13 11
26 22 20 19 16 14 12 9 9 8 7 9 9 11 11 11 11 12 12 12 13 13 12 12 12 12 12 11 10 10 10 11 11 12 12 14 15 15 15 15 14 13 13
29 26 22 20 18 16 14 12 11 9 8 7 7 6 6 5 5 5 5 5 6 6 6 6 5 5 4 4 4 5 6 7 8 9 10 10 11 12 13 14 14 14 13
30 28 26 23 21 19 17 16 14 12 10 9 8 8 6 4 4 3 3 3 3 2 2 2 2 3 4 5 7 8 10 10 11 12 13 13 12 13 13 13 13 13 13
29 29 28 27 25 23 20 18 17 15 14 12 11 11 10 9 9 8 8 8 8 8 9 9 9 9 9 10 11 12 14 15 15 16 16 16 16 15 16 15 15 14 14
24 29 29 29 27 26 24 22 20 19 17 16 15 15 14 14 13 13 13 13 13 13 13 14 14 14 13 14 15 16 17 18 19 20 20 20 20 19 19 19 18 17 17
20 21 26 30 29 28 26 24 23 22 20 19 18 18 17 16 16 15 16 16 16 16 16 17 17 17 16 17 17 19 20 20 21 22 22 22 23 23 22 22 22 21 20
24 24 25 26 29 29 26 25 23 22 21 20 20 19 18 17 17 16 16 17 17 18 19 19 18 18 19 20 20 20 21 22 23 23 24 24 24 24 24 24 23 22 22
24 21 21 24 26 26 25 24 23 21 21 20 19 18 19 19 19 18 18 19 19 20 20 20 21 21 21 21 21 22 23 24 24 24 24 24 24 24 25 26 25 24 23
24 22 19 20 21 21 22 22 21 20 20 20 20 19 18 19 18 18 19 19 20 21 22 22 22 22 22 23 24 25 26 27 26 25 25 25 26 26 27 27 27 26 25
25 24 21 20 20 20 20 20 20 20 21 21 20 19 19 20 20 20 20 21 23 23 23 23 23 24 25 26 27 29 29 29 28 28 28 29 29 30 30 29 29 29 29
26 26 24 21 21 21 21 20 21 22 22 22 22 22 23 24 24 24 24 24 25 25 25 25 26 27 29 30 31 31 32 32 32 32 32 33 33 33 32 32 31 32 32
29 29 26 24 23 23 22 22 23 24 24 25 25 25 27 27 28 28 27 27 28 27 27 28 29 31 32 33 34 35 35 35 35 35 36 36 35 32 31 32 33 33 33
28 29 26 24 23 23 22 24 25 24 26 27 28 29 30 30 30 30 30 29 30 30 30 31 33 34 35 36 38 39 40 39 39 38 34 32 31 31 31 31 32 33 34
30 28 27 26 25 24 24 24 25 25 26 27 28 29 30 30 31 31 31 31 33 34 34 35 37 36 38 38 40 41 42 40 40 34 33 31 30 31 32 33 34 34 35
31 30 30 28 28 28 28 28 29 29 29 29 30 32 32 32 32 33 33 34 35 36 36 36 36 38 39 38 36 38 39 39 39 37 32 30 28 29 29 30 29 30 31
32 32 30 30 29 31 29 30 30 29 30 30 31 32 33 33 33 34 34 35 37 38 38 38 38 39 39 39 38 36 36 36 37 38 35 30 28 30 29 29 29 29 31
37 37 34 35 33 32 32 32 32 32 32 32 33 34 35 35 36 37 37 37 38 37 37 37 36 37 36 36 35 34 33 35 34 35 38 36 32 26 28 30 29 28 30
33 37 35 30 29 28 29 30 32 32 33 34 35 36 37 38 38 38 38 37 36 35 34 34 33 33 33 34 35 34 34 35 36 36 38 36 34 31 32 31 28 27 28

GFSSE_700_spd_069.txt.gz
Wind_Speed
10 10 11 13 14 14 14 14 14 14 14 13 13 14 16 16 17 17 15 12 12 10 9 5 3 4 6 8 10 10 9 9 9 9 10 11 11 10 10 10 9 10 9
8 10 12 16 16 15 15 16 14 14 14 14 14 15 16 16 16 16 16 14 12 10 9 8 7 9 10 11 11 11 11 11 11 11 12 12 12 11 11 11 11 10 10
10 13 14 18 20 18 17 16 15 15 15 15 15 16 16 16 16 16 16 15 14 14 14 13 12 12 12 14 14 13 13 12 12 12 11 13 13 12 12 11 11 11 10
12 14 15 18 19 20 19 18 16 15 15 15 16 17 18 17 17 17 16 16 16 16 16 16 15 14 15 14 13 13 12 12 13 10 14 13 12 11 11 12 11 11 10
15 15 16 16 17 18 20 20 18 17 16 15 16 17 17 17 17 17 17 17 17 17 17 16 15 14 14 13 13 13 12 13 12 14 14 13 12 13 12 12 11 11 11
19 17 17 16 15 15 17 18 20 19 17 16 15 16 15 15 16 15 15 15 16 15 15 14 13 13 13 13 13 14 13 14 13 15 14 14 14 14 14 14 12 12 11
22 20 18 17 15 14 14 14 15 16 18 18 16 15 15 15 14 14 14 13 13 13 13 12 13 13 13 13 14 14 14 14 14 15 15 15 15 15 15 15 15 14 13
23 21 20 17 16 14 13 12 12 12 13 15 16 15 16 16 15 14 14 13 13 13 12 12 12 12 12 13 13 13 14 14 14 14 14 15 15 15 16 16 15 15 14
25 23 21 18 17 16 14 12 10 10 8 9 10 12 13 13 13 12 12 11 11 11 10 10 10 9 9 9 8 8 9 9 10 11 12 13 14 14 15 16 16 16 14
28 24 22 20 17 15 14 13 11 10 8 6 5 6 6 6 6 6 5 5 5 5 5 4 4 4 4 5 7 8 9 10 11 11 12 13 15 15 16 16 16 16 15
31 27 24 22 20 19 17 15 13 11 10 9 7 6 4 2 2 3 2 3 2 3 3 3 5 5 7 8 9 10 12 13 14 15 16 16 17 17 17 17 17 17 16
33 31 28 25 23 21 19 18 17 14 13 11 10 9 9 8 8 8 8 9 9 9 9 10 10 11 11 12 13 14 14 15 17 18 19 20 20 19 20 20 20 19 19
32 31 29 27 26 24 22 21 19 17 16 14 13 13 13 13 13 13 14 14 15 15 15 14 14 15 15 15 16 17 17 18 19 20 22 22 22 22 21 21 22 22 22
27 30 30 29 29 27 26 24 23 21 19 18 17 16 16 16 16 17 17 17 18 18 18 17 17 17 17 17 18 19 20 20 21 21 23 23 23 23 23 23 22 23 23
26 27 28 30 30 29 28 27 26 24 22 21 20 19 19 19 19 18 19 19 19 19 19 19 19 20 20 20 21 21 21 21 22 23 23 23 23 23 24 25 25 25 25
26 25 24 24 28 30 29 28 28 26 24 23 21 20 20 19 19 19 20 20 20 21 21 21 21 22 22 22 22 22 22 23 24 25 25 25 23 25 26 26 27 28 28
27 26 25 25 26 27 28 29 29 27 25 23 21 20 19 19 19 19 20 20 20 21 22 22 23 23 23 23 23 24 25 26 26 27 28 27 28 27 29 30 30 31 30
30 28 25 26 26 27 28 27 27 25 23 22 20 19 18 19 19 21 21 22 23 23 23 23 24 24 24 25 26 28 29 29 29 30 31 31 31 32 33 33 33 33 31
30 27 26 25 24 22 23 23 23 22 21 20 19 19 20 21 22 24 25 25 26 27 26 26 26 27 27 28 29 30 31 32 34 34 34 34 35 36 36 35 32 31 31
31 30 28 27 24 24 24 23 22 21 20 20 21 22 24 26 27 28 28 28 29 30 29 29 29 29 30 30 32 34 35 36 37 38 38 36 38 37 34 32 32 30 29
31 30 29 29 26 26 25 24 23 22 23 24 25 27 28 29 30 30 30 30 31 31 30 31 32 33 33 33 35 35 37 39 39 38 39 35 35 34 32 34 32 31 32
31 31 32 32 29 28 26 26 25 24 24 25 26 26 28 29 30 31 31 31 31 32 32 32 35 36 37 36 37 38 40 38 37 39 37 31 30 30 30 30 29 28 29
34 32 32 32 31 28 27 27 26 26 27 28 29 30 32 31 32 32 33 33 33 35 34 34 35 37 39 38 37 38 41 40 38 38 38 32 31 29 29 29 28 27 26
35 33 33 33 32 32 30 31 30 29 29 31 31 32 33 33 33 33 34 34 35 36 37 37 38 39 39 39 39 37 37 37 35 36 37 34 31 28 29 29 28 28 28
37 35 35 34 34 34 32 32 31 32 32 33 33 34 34 34 35 35 36 37 38 39 39 40 39 38 37 38 36 35 34 35 34 35 37 35 34 30 29 29 29 31 31
42 39 38 38 37 41 35 33 32 33 34 33 35 35 36 36 37 38 38 40 40 40 40 38 37 35 35 35 34 34 35 35 34 36 35 34 33 32 30 28 31 31 28

GFSSE_700_spd_072.txt.gz
Wind_Speed
8 9 9 11 12 12 12 13 13 13 12 13 15 15 16 16 16 15 14 14 13 9 7 3 5 8 10 11 11 11 12 12 13 12 12 12 12 12 12 11 11 11 10
7 11 11 12 14 14 14 14 14 13 13 14 15 15 16 16 17 15 13 11 10 8 6 7 10 12 13 14 13 13 13 14 14 14 13 14 14 14 13 12 12 11 11
9 13 14 15 16 16 16 15 15 14 14 15 15 16 16 16 16 16 15 14 13 12 12 13 14 15 15 15 14 13 13 13 14 10 11 14 13 12 13 13 13 11 11
13 15 17 19 19 18 16 16 16 15 15 15 16 17 18 17 17 17 16 16 16 15 15 16 16 15 15 14 13 13 13 14 13 13 15 15 14 14 14 13 13 12 12
16 17 17 19 20 20 19 17 16 15 16 16 16 17 18 18 18 18 18 18 18 17 16 15 16 14 14 13 13 13 13 15 14 15 15 15 15 16 15 15 14 14 13
18 17 18 19 20 20 20 20 19 16 16 16 16 16 17 16 16 16 17 17 16 15 15 14 14 13 13 13 13 14 14 15 14 16 16 17 17 17 17 16 15 15 15
19 18 18 18 18 19 19 19 19 19 18 17 15 15 15 15 15 15 15 14 13 13 13 13 13 13 14 15 15 15 15 16 16 17 17 18 18 19 19 18 18 17 16
23 20 19 17 17 18 16 16 16 17 18 19 18 16 16 16 15 15 15 14 14 14 14 14 14 14 14 13 13 12 12 13 13 15 15 15 16 17 17 17 18 18 18
26 22 20 16 17 16 15 14 13 13 13 14 15 16 15 15 15 15 14 13 12 12 11 11 11 11 10 10 10 9 10 12 12 13 13 15 16 16 16 17 17 17 17
28 26 22 19 16 15 14 12 11 9 9 9 8 9 10 10 10 9 8 8 7 6 5 4 4 5 5 6 8 9 11 12 13 14 15 16 17 18 18 18 18 18 17
31 28 25 22 19 17 16 13 11 10 7 5 4 3 3 3 3 2 2 1 1 2 3 5 6 7 8 10 11 13 13 15 15 16 16 17 18 18 19 19 19 19 19
33 31 28 25 22 19 17 15 14 12 10 8 6 5 4 3 4 3 5 6 6 8 9 10 11 12 12 13 14 15 16 16 17 18 17 18 19 19 19 20 20 20 20
29 32 30 26 23 22 20 18 16 14 13 11 10 9 8 8 9 9 10 11 12 13 13 14 14 15 15 16 16 16 16 18 19 18 18 19 20 21 20 20 21 21 21
32 27 29 28 27 24 22 21 19 18 16 15 13 13 12 12 12 13 13 14 15 16 16 16 17 17 17 18 18 18 19 18 19 19 19 20 21 21 21 21 21 22 23
31 29 28 29 29 27 25 24 23 21 19 18 17 17 16 15 15 15 15 15 15 17 18 18 18 19 19 19 20 20 20 19 19 20 21 21 21 23 23 24 25 25 25
27 27 27 27 28 28 27 26 25 24 23 23 21 20 18 18 16 15 15 16 16 16 18 19 19 20 20 21 21 20 20 21 22 23 24 23 24 25 26 27 29 30 30
23 26 24 25 25 27 27 27 26 27 25 24 23 21 20 18 16 15 16 17 17 17 19 20 20 21 21 21 22 22 23 24 25 26 28 29 28 28 28 30 32 33 32
27 26 26 25 24 23 24 26 26 27 26 24 23 22 20 17 16 15 17 19 20 20 21 23 23 23 23 23 24 25 26 27 28 27 28 30 33 33 31 31 32 32 30
28 27 25 25 28 28 29 28 26 27 26 24 22 20 18 17 17 18 20 22 23 24 25 25 26 26 25 26 26 27 28 29 30 32 32 34 35 35 36 32 30 30 28
27 29 27 27 25 25 25 24 24 24 23 20 19 18 18 19 21 22 23 25 25 27 27 27 28 28 27 28 30 31 32 32 32 33 33 34 34 34 33 32 31 29 29
29 30 30 29 26 26 24 22 21 20 20 20 20 21 21 23 24 25 25 26 27 27 27 28 29 29 30 31 33 34 35 34 33 34 35 34 32 30 29 29 29 29 27
30 30 30 30 29 28 26 25 24 23 23 22 22 22 23 23 25 25 26 27 29 30 30 30 31 32 33 32 35 37 40 37 33 35 34 33 32 30 30 27 27 27 27
31 31 30 31 30 31 29 27 27 25 24 24 25 24 25 25 27 28 29 30 31 32 32 32 33 35 36 36 36 38 39 40 37 35 34 33 32 31 32 30 30 29 29
33 35 33 33 33 33 31 30 28 27 27 27 27 27 26 27 29 30 32 32 33 34 34 35 36 37 39 40 38 36 36 36 36 36 31 32 32 31 31 32 30 31 29
42 37 36 36 35 33 32 32 29 28 28 27 29 30 31 30 32 32 32 34 35 36 37 38 39 39 39 39 36 34 33 33 34 34 36 31 34 35 30 31 30 29 29
37 34 39 38 37 35 32 31 31 32 30 31 30 31 32 33 34 34 34 35 37 38 38 39 39 38 37 36 35 34 34 35 33 33 35 34 33 30 30 35 34 28 28

GFSSE_700_spd_075.txt.gz
Wind_Speed
11 10 10 10 10 10 11 11 12 12 11 13 14 16 16 17 19 20 18 14 9 9 5 7 10 12 12 13 14 14 14 14 14 15 14 15 14 13 13 12 13 12 11
8 11 11 11 11 12 13 13 13 13 13 14 15 16 17 16 15 14 14 11 8 7 9 12 13 13 14 14 15 15 14 14 14 13 13 14 13 13 13 13 13 12 11
11 12 12 13 13 14 14 14 14 15 14 14 14 15 17 17 16 14 13 12 11 13 15 15 14 14 14 14 14 15 14 15 13 13 14 16 15 15 15 14 13 13 12
14 15 15 15 15 16 16 16 16 15 15 15 14 16 17 17 17 16 16 16 17 17 16 16 14 14 13 14 14 14 15 15 13 15 16 17 17 17 16 16 15 15 14
19 19 18 18 18 18 17 17 16 16 16 17 16 17 18 18 19 19 18 18 18 17 16 15 12 13 13 14 15 15 17 16 16 18 18 18 19 18 18 18 17 16 15
22 21 19 18 20 20 19 18 17 16 16 17 16 17 17 17 17 17 17 16 16 15 14 13 13 14 15 16 17 17 19 19 19 19 19 19 20 19 20 20 20 18 17
23 23 21 19 19 20 21 21 20 18 17 16 16 16 17 16 16 16 15 15 15 15 15 15 15 15 15 16 16 16 16 17 16 17 17 17 17 17 18 18 19 18 18
25 24 22 20 19 19 20 20 21 21 20 19 18 18 18 18 17 16 16 16 16 16 15 14 14 14 13 13 13 13 13 14 14 15 16 16 16 16 16 17 17 18 17
30 26 24 20 19 19 18 19 19 19 19 19 19 18 18 18 17 16 16 15 14 13 13 12 11 11 10 10 10 11 12 13 13 13 14 15 15 16 16 17 17 17 17
34 30 26 21 18 18 17 16 16 15 15 15 15 14 15 14 13 12 11 10 9 8 7 6 6 7 8 9 11 12 13 14 14 14 15 14 15 16 16 16 16 17 17
36 33 29 25 20 18 17 14 13 12 11 11 10 10 9 9 8 6 5 5 4 4 5 6 7 8 10 11 12 14 14 15 15 15 15 15 15 16 16 17 17 17 17
32 34 32 28 24 20 17 15 13 11 9 8 6 5 4 3 3 1 1 3 5 6 7 9 10 11 12 13 14 15 16 16 17 16 15 15 16 16 16 17 17 18 18
22 27 33 30 26 23 20 17 15 12 11 9 8 6 4 3 3 4 4 6 8 9 10 12 12 13 14 14 14 16 16 17 17 15 15 16 17 17 17 17 18 19 20
27 21 29 31 28 26 23 21 19 16 13 12 11 10 8 8 8 7 8 8 8 10 11 12 13 14 14 15 16 16 17 17 17 16 16 18 19 19 19 20 19 21 22
30 25 25 28 29 27 24 23 22 20 17 15 14 14 13 12 12 11 9 9 10 11 11 12 13 14 14 15 16 16 16 16 16 17 17 19 20 21 22 23 23 24 24
19 27 34 27 27 26 25 24 24 22 21 20 19 17 16 16 16 14 12 11 11 11 12 13 14 15 16 17 17 16 16 17 18 19 21 21 21 23 24 26 27 27 28
25 25 27 34 29 28 26 26 26 26 25 24 21 20 19 18 18 16 13 12 12 13 14 15 17 18 18 19 19 19 19 20 21 21 22 24 24 25 26 26 26 28 29
29 25 27 20 28 27 24 26 27 27 26 25 24 21 20 20 18 16 15 14 15 15 16 18 19 20 21 21 21 21 21 22 23 24 26 26 25 28 28 28 25 25 26
26 23 28 26 24 21 21 22 24 24 24 23 24 23 21 19 18 16 16 16 18 20 20 20 21 22 22 23 23 23 24 25 27 27 28 27 30 29 30 28 28 24 25
27 27 28 26 25 23 26 26 27 26 27 29 28 24 20 18 18 18 18 19 21 21 22 22 23 24 25 26 26 27 27 29 30 30 29 28 30 30 29 30 27 26 25
27 28 27 27 25 23 22 22 22 22 22 22 21 20 19 19 19 20 20 22 23 22 22 24 25 27 27 29 31 31 30 31 32 31 31 29 30 31 29 26 26 27 27
26 26 26 25 25 25 24 23 22 21 19 19 20 20 21 21 22 21 21 22 23 24 25 27 28 29 30 30 33 36 37 34 34 31 30 29 28 29 28 27 28 29 28
27 24 27 25 24 26 27 27 25 24 24 24 23 22 22 23 22 23 24 25 26 26 26 27 29 31 33 32 34 37 40 40 37 34 32 30 28 28 29 30 31 30 28
30 28 23 27 28 28 29 31 29 27 26 26 27 25 23 23 24 25 25 26 27 29 29 30 31 33 35 36 35 37 38 38 37 38 30 27 29 28 30 33 32 32 27
33 37 30 28 29 31 30 31 32 30 29 27 25 24 24 25 26 26 28 29 30 31 32 33 34 35 37 38 38 36 35 34 34 35 36 28 30 30 32 35 33 31 29
33 37 36 34 32 31 33 32 33 31 28 24 22 22 21 22 24 26 29 31 32 33 34 35 35 36 37 38 37 35 34 33 32 33 35 34 31 30 34 34 28 25 31

GFSSE_700_spd_078.txt.gz
Wind_Speed
12 14 12 10 9 9 9 9 9 10 11 11 11 13 17 24 20 16 13 12 10 7 5 9 12 13 14 14 14 15 15 15 15 13 13 13 13 13 13 12 12 12 11
10 13 12 12 11 11 11 11 11 12 13 14 14 15 17 20 20 15 13 10 7 6 10 12 14 14 14 14 14 14 14 15 14 14 14 14 14 14 14 13 12 12 12
13 13 13 13 12 13 12 12 12 14 14 14 15 16 15 14 14 13 10 10 11 13 14 14 14 15 13 13 14 15 15 14 14 15 15 15 16 15 15 15 14 13 13
15 15 16 15 14 15 14 14 14 15 15 15 15 15 15 15 15 14 14 15 15 16 14 13 13 14 13 14 15 16 16 16 17 18 18 18 19 18 18 17 17 16 16
18 18 19 18 17 16 16 15 16 16 16 16 16 16 16 16 17 17 17 17 16 15 13 13 13 14 14 15 17 19 20 20 20 20 19 18 19 18 19 20 19 19 18
22 22 22 21 19 18 17 16 17 17 17 16 17 17 17 17 17 16 16 16 14 14 14 14 15 15 16 17 18 19 18 18 19 18 17 17 17 17 17 17 18 18 17
25 25 24 24 22 21 20 18 18 18 18 17 17 17 17 17 17 16 15 15 15 15 15 15 16 15 16 16 16 16 15 15 15 14 14 14 14 15 14 14 15 15 16
26 27 26 25 24 24 23 22 21 20 20 19 18 18 18 17 17 17 17 16 16 15 15 15 14 14 13 13 13 13 13 13 13 13 13 13 13 13 13 13 13 14 14
29 29 28 27 26 25 24 24 24 23 23 21 20 20 20 19 18 17 17 16 15 14 13 12 11 10 10 10 11 11 12 12 12 13 13 13 13 13 13 13 14 14 14
30 29 28 27 27 26 25 24 23 22 21 20 20 20 18 18 16 15 13 12 10 9 7 7 7 7 9 10 11 11 12 13 12 13 13 13 13 13 13 14 14 14 14
28 31 30 28 28 27 25 23 21 20 19 17 16 15 14 13 12 10 9 8 6 4 4 5 6 8 9 11 12 13 13 13 13 13 13 12 13 13 14 13 14 14 15
27 29 31 30 28 27 25 22 20 18 15 13 12 10 9 7 7 6 4 2 1 3 4 6 7 9 10 11 12 13 13 14 14 13 13 12 13 14 14 14 15 15 16
32 29 28 31 30 28 26 23 20 18 15 12 10 7 6 4 2 2 2 3 4 6 7 8 9 10 10 11 12 13 14 15 15 13 12 13 14 15 14 15 16 17 18
24 30 26 30 31 30 27 25 22 19 16 14 11 9 7 6 6 6 6 7 7 7 8 9 9 10 11 12 13 14 15 15 15 14 14 15 17 18 17 18 18 20 20
18 20 30 27 29 29 28 26 24 22 19 17 14 11 11 10 10 10 10 10 9 8 9 9 10 10 11 13 13 14 14 14 15 15 16 17 18 19 20 21 22 23 21
18 16 18 30 24 27 26 26 25 23 22 20 17 15 14 13 13 13 12 12 11 10 10 10 11 12 13 14 15 15 15 15 16 17 17 18 19 21 21 23 24 25 25
17 14 21 14 26 27 25 24 26 25 24 23 21 20 19 17 17 16 14 13 13 12 12 12 13 14 16 16 16 17 17 18 18 20 20 20 21 22 22 24 24 24 24
23 22 22 18 20 33 26 29 28 28 27 26 26 24 22 21 20 19 17 16 15 14 14 15 16 16 17 17 18 19 19 21 21 23 23 24 25 24 25 27 27 26 24
27 27 22 27 30 25 17 16 27 27 28 26 25 24 22 23 23 21 19 18 16 15 17 18 18 18 19 20 20 21 21 23 25 25 26 27 29 29 26 27 28 27 27
27 27 28 28 27 19 21 25 24 22 23 24 24 26 26 24 23 22 20 19 17 18 19 19 20 21 21 22 24 24 24 25 27 27 27 28 30 30 28 26 28 26 26
27 28 27 24 22 20 22 23 23 24 22 23 26 26 23 23 24 22 20 18 20 20 20 21 22 23 24 26 27 28 27 27 28 29 29 29 29 29 29 27 26 25 24
26 27 26 24 24 25 24 22 22 22 20 21 22 21 19 20 22 21 19 20 22 22 22 24 25 26 26 26 30 33 34 30 32 31 31 28 26 27 29 28 26 29 25
26 24 24 23 23 24 24 25 25 25 24 22 22 20 20 21 21 22 23 24 24 24 25 25 27 29 30 29 31 35 39 38 36 36 33 31 28 26 27 28 29 28 27
26 22 24 22 24 23 24 25 26 25 25 23 22 22 24 23 22 23 22 22 23 24 25 27 29 31 33 32 33 34 38 41 39 40 33 30 28 30 30 31 30 30 29
25 25 23 23 23 23 28 28 28 28 26 27 25 24 25 22 21 22 22 21 20 22 26 29 31 32 33 34 35 35 36 37 37 38 38 30 29 30 33 33 32 31 30
30 25 25 29 28 28 26 27 31 31 30 27 27 25 25 27 24 21 19 24 29 35 38 39 37 37 37 38 39 38 36 36 35 36 38 37 32 30 34 34 33 31 29

GFSSE_700_spd_081.txt.gz
Wind_Speed
13 13 10 10 9 8 7 7 7 8 7 8 10 14 19 19 17 14 11 9 8 5 5 9 12 14 15 14 13 12 13 13 13 13 15 15 14 13 13 13 13 12 12
11 12 11 11 11 10 9 8 8 9 10 11 13 17 23 19 15 12 11 7 6 6 10 12 13 14 14 13 13 13 14 14 14 14 15 15 15 14 14 14 14 13 13
13 11 13 12 11 11 11 11 11 11 11 13 15 19 19 16 14 12 8 6 9 12 13 13 13 14 13 13 14 15 15 15 16 17 17 17 18 17 17 17 16 16 15
14 13 14 13 13 13 13 12 13 13 12 14 16 15 14 13 12 10 10 11 13 13 13 13 13 14 15 16 17 18 18 19 20 20 19 19 19 18 18 18 18 18 18
17 15 15 15 15 15 15 14 15 15 14 15 16 16 16 15 15 15 15 14 14 13 13 13 14 16 17 18 18 18 19 19 19 19 18 17 17 16 16 17 17 16 17
20 19 18 18 18 18 17 17 17 16 16 16 17 17 17 17 17 17 16 15 14 13 13 15 16 17 18 17 17 16 16 16 16 16 15 14 14 14 14 14 14 14 14
22 21 21 20 20 20 19 19 20 19 18 17 17 18 18 17 17 17 16 15 15 15 15 15 16 16 16 16 15 15 15 15 14 14 13 13 13 13 12 12 12 12 12
22 23 22 22 22 21 21 21 21 21 19 19 18 18 18 17 17 17 17 17 16 16 15 15 14 14 13 12 12 12 12 13 12 12 12 12 12 12 12 12 12 12 12
24 24 24 25 24 23 22 22 21 21 21 20 20 19 19 19 19 19 18 17 15 14 13 12 11 11 10 10 10 10 10 11 11 11 12 12 11 12 12 12 12 13 13
24 25 25 26 25 24 24 23 23 22 22 22 22 21 20 19 18 16 15 14 12 10 8 7 6 6 7 7 8 8 9 9 11 12 12 11 11 11 12 11 12 12 13
24 24 26 27 27 27 27 26 25 24 22 21 21 20 18 17 15 13 11 10 7 5 3 2 4 5 7 8 9 10 10 10 11 12 12 11 11 12 12 12 13 13 14
25 23 25 26 28 28 28 27 26 24 21 18 17 16 14 12 11 9 6 4 2 1 3 4 5 7 8 9 10 11 12 11 12 13 12 11 12 13 14 14 14 16 16
25 23 25 26 27 28 28 27 26 25 22 18 15 13 10 9 7 5 4 2 2 4 5 7 7 8 10 10 11 12 13 14 13 13 13 13 14 15 15 16 17 18 19
24 25 26 23 27 26 29 28 27 24 22 19 16 14 11 9 8 6 6 7 6 7 7 8 8 8 9 10 11 13 13 14 13 13 14 15 16 18 19 19 19 20 20
31 26 23 29 27 23 24 27 27 25 22 20 17 15 13 12 11 10 9 10 10 10 9 9 8 9 10 11 12 13 13 14 14 15 16 17 18 20 21 22 21 21 21
31 36 20 42 24 21 26 25 25 25 24 22 19 17 17 16 15 14 13 14 13 13 11 10 10 11 11 12 13 13 14 15 15 16 17 18 19 20 22 23 22 23 23
22 30 13 17 27 27 25 27 27 25 27 25 23 21 20 19 18 18 18 17 16 15 14 12 12 13 14 14 14 14 14 15 16 17 19 20 20 21 23 22 24 25 23
21 20 11 12 15 5 33 24 24 25 29 28 27 26 25 23 22 22 22 20 19 18 16 15 14 15 15 15 15 17 17 17 18 20 20 22 23 24 25 24 25 25 22
19 18 21 13 20 17 11 19 22 28 27 27 31 30 29 27 26 25 24 23 21 20 18 17 17 17 17 17 18 19 19 19 20 22 22 24 26 26 27 24 23 26 26
26 23 23 19 20 21 19 15 21 12 19 29 32 31 28 27 26 27 26 24 22 21 19 19 19 19 19 20 22 23 22 22 22 24 25 26 29 29 28 25 24 26 27
25 24 23 27 23 23 23 22 17 22 27 25 26 25 28 28 27 27 25 24 22 21 20 20 21 21 21 23 25 27 26 27 26 26 28 28 29 29 27 27 26 28 27
23 25 26 23 23 24 23 24 28 29 27 25 21 23 26 26 26 25 24 22 21 21 21 20 21 22 22 25 29 32 32 29 29 30 30 30 28 27 26 27 27 28 27
20 20 21 23 26 28 27 29 29 28 26 28 25 27 22 23 21 20 21 21 21 20 19 20 21 22 24 24 28 32 36 36 34 32 32 32 31 30 28 26 26 27 27
21 22 22 22 23 24 26 25 26 26 28 27 26 22 21 21 20 21 21 22 23 22 18 17 19 21 24 27 29 32 34 38 38 38 32 31 31 32 31 31 30 29 27
22 24 23 21 21 21 21 22 22 23 23 27 23 25 27 25 25 25 24 29 26 20 15 19 26 29 35 38 36 36 37 38 38 40 41 32 32 32 33 33 34 32 31
24 27 25 23 21 22 24 24 24 24 26 31 33 32 35 26 23 22 21 21 24 21 23 26 29 32 32 33 34 37 38 38 39 39 41 39 34 33 34 35 35 34 33

GFSSE_700_spd_084.txt.gz
Wind_Speed
15 12 10 9 8 7 8 7 6 6 7 8 11 14 16 19 16 14 10 8 8 7 8 11 13 12 13 14 13 14 14 13 14 15 15 16 15 14 14 14 13 12 12
12 12 11 11 9 9 8 8 8 8 9 10 14 17 18 17 15 11 9 7 6 8 11 12 13 12 13 14 14 14 14 14 14 16 17 18 16 16 16 15 15 14 14
15 13 13 12 11 10 9 9 10 10 11 15 18 21 18 15 14 11 6 6 10 12 13 12 12 13 14 15 16 16 16 16 17 19 19 18 18 18 18 17 16 16 16
16 14 14 14 12 12 12 12 13 13 14 18 22 20 16 14 12 9 8 13 14 14 13 13 13 14 15 17 19 19 18 18 18 18 17 17 16 16 16 15 15 15 16
19 16 15 14 15 15 14 14 15 15 16 18 18 17 17 14 12 11 15 16 15 14 14 14 16 17 18 18 18 17 17 16 16 16 15 14 14 14 14 14 13 14 14
21 19 18 17 18 17 17 17 16 17 17 18 18 17 16 15 15 16 17 16 14 14 15 16 16 17 17 17 16 15 14 14 14 13 13 13 13 13 13 13 13 13 12
23 21 20 19 19 18 19 19 19 18 18 19 19 19 19 19 19 18 17 16 16 16 16 17 16 16 15 14 13 12 12 12 12 12 12 12 12 12 12 12 12 12 12
24 23 22 21 21 20 21 20 21 21 20 20 20 20 20 19 18 18 18 18 17 17 16 15 14 13 11 11 10 9 9 10 10 10 10 10 10 11 11 11 11 12 13
25 23 23 23 22 22 22 22 22 23 22 21 20 20 19 19 19 19 18 17 16 14 13 12 10 9 8 8 7 8 8 9 9 10 10 9 10 10 10 10 11 12 13
26 24 23 24 24 24 24 23 23 24 23 22 21 20 21 21 20 18 16 14 12 10 8 6 5 5 5 6 5 5 6 8 9 10 10 9 9 10 10 11 12 13 14
25 25 26 25 26 26 25 25 24 24 24 24 24 23 21 20 18 16 14 12 9 6 4 3 3 5 6 6 7 7 7 8 9 10 10 9 10 10 11 12 14 15 16
27 26 26 28 27 26 26 26 26 26 26 25 25 23 21 18 16 13 10 8 5 2 1 2 4 5 7 7 8 8 9 9 10 11 11 10 10 12 13 14 15 16 18
21 25 26 29 29 28 27 27 27 27 25 25 22 21 18 15 11 9 7 5 4 3 4 5 6 7 8 8 9 9 10 10 10 11 11 12 13 14 15 16 17 18 19
26 24 24 24 27 30 30 28 28 27 26 23 21 19 16 14 12 9 7 6 6 7 7 8 8 9 8 9 9 9 10 10 10 10 11 13 14 15 17 16 17 18 19
39 23 22 18 23 28 29 30 29 27 25 24 22 20 17 15 13 12 10 9 10 10 10 10 10 9 10 9 10 11 12 12 12 12 13 14 15 17 19 19 19 19 20
31 31 18 23 24 23 29 28 27 28 27 25 23 21 19 17 16 15 14 13 13 13 13 12 11 11 11 12 12 12 12 13 13 13 14 15 16 18 20 21 22 21 19
21 28 24 19 11 34 32 28 24 26 26 26 25 23 22 20 20 19 18 17 17 17 16 15 14 13 14 14 14 14 14 13 14 15 16 18 20 20 21 21 22 22 18
24 26 28 24 16 22 42 38 25 25 25 26 27 27 24 23 23 22 22 21 22 21 20 18 16 15 16 16 16 16 16 16 17 18 18 20 21 22 23 24 22 22 22
19 17 24 25 8 8 30 40 35 31 32 27 27 28 27 28 28 27 26 26 26 25 22 21 19 18 18 18 17 17 18 19 19 19 21 22 23 25 26 25 24 21 22
21 21 25 20 12 7 5 11 15 33 43 31 33 30 33 32 30 30 29 29 28 27 25 23 21 20 19 18 19 19 18 19 20 20 22 24 25 26 27 26 25 23 22
24 27 25 22 18 12 17 17 14 13 8 17 33 35 33 32 32 32 31 31 29 26 26 26 23 21 19 19 20 19 20 22 23 23 23 25 26 26 27 26 24 24 25
27 25 26 23 24 24 8 23 24 19 18 25 26 29 28 27 29 29 31 31 28 27 27 24 22 19 17 16 18 22 23 23 25 24 25 26 27 26 26 25 24 24 25
24 24 24 25 25 24 20 25 27 27 33 32 40 28 26 25 26 27 27 31 27 26 24 22 20 15 12 12 18 24 29 31 33 31 29 29 31 31 29 27 25 25 25
14 16 18 20 22 23 25 24 25 28 23 25 24 24 29 27 28 28 23 31 28 30 26 25 27 24 18 17 23 29 34 36 36 39 32 31 32 32 33 31 28 27 26
19 18 18 20 20 20 22 23 23 23 23 25 25 23 23 28 19 25 33 27 16 25 26 30 31 23 19 23 26 25 27 29 33 37 36 30 31 31 32 33 32 30 29
23 22 23 23 22 21 21 21 20 20 21 23 26 24 24 28 29 32 31 39 32 21 19 18 19 18 23 23 26 27 29 31 34 36 38 37 34 31 33 34 33 32 31

GFSSE_700_spd_087.txt.gz
Wind_Speed
18 16 12 11 11 10 9 9 9 9 9 10 12 16 17 19 15 16 10 10 8 7 9 11 12 12 12 12 13 13 14 13 13 13 13 13 13 13 13 12 12 12 12
14 16 13 13 12 11 10 9 9 10 11 13 15 16 20 19 17 13 11 9 8 10 12 12 12 12 13 13 14 14 15 14 14 14 15 15 16 15 15 15 14 14 14
17 16 15 15 15 14 12 12 11 11 13 18 19 19 21 19 16 14 9 9 12 13 13 13 13 13 14 16 16 16 17 17 16 16 16 16 15 15 15 15 14 15 14
20 18 16 16 15 15 14 14 15 15 17 23 21 19 18 17 15 12 10 15 15 14 13 13 14 15 16 18 18 17 17 16 15 15 14 14 14 14 13 13 13 13 12
23 20 18 17 17 16 16 16 17 18 20 27 23 21 18 16 13 13 17 17 16 14 14 15 16 16 17 17 16 15 15 14 14 13 13 12 12 12 12 12 12 12 12
25 22 20 18 17 17 17 18 18 20 23 26 25 22 19 14 15 19 19 18 17 16 17 17 16 16 16 15 14 13 12 12 11 11 11 11 11 11 11 11 12 12 12
27 24 23 20 21 20 20 20 20 21 23 23 23 22 19 18 20 21 19 18 18 17 17 17 16 15 13 12 11 11 10 10 10 10 9 10 10 11 11 11 12 12 12
29 27 25 23 22 22 22 21 23 23 23 23 22 22 22 22 22 20 19 19 18 17 16 15 13 12 10 9 8 8 8 7 8 8 8 9 9 9 10 10 10 11 12
31 29 26 25 26 24 24 24 25 25 25 24 24 24 23 23 21 21 20 19 18 17 15 13 11 9 7 6 5 5 5 6 6 7 7 6 7 8 8 9 10 12 13
34 31 29 26 27 26 26 26 27 27 26 26 25 24 24 23 23 22 21 19 17 14 11 9 7 5 4 3 3 3 4 5 5 5 6 6 6 7 9 10 11 12 13
34 31 30 29 29 29 28 28 29 28 28 27 26 26 25 24 23 21 19 16 13 10 7 4 2 1 1 2 3 4 5 6 6 6 6 5 6 7 8 10 11 13 14
33 32 32 31 30 30 29 28 27 28 28 27 28 27 26 25 23 20 17 13 10 6 3 1 2 3 4 5 5 5 6 7 7 7 7 6 7 8 9 11 12 14 15
30 30 30 31 31 30 30 29 28 28 29 30 29 28 26 24 20 17 14 10 7 4 2 3 5 6 6 7 7 7 7 7 7 8 8 8 8 10 11 13 13 15 16
25 28 28 30 31 31 31 30 30 28 30 30 29 27 25 22 19 16 13 10 8 6 6 6 6 7 7 8 8 8 8 8 9 9 10 11 11 11 12 14 15 16 17
21 26 26 25 26 27 29 31 32 32 31 29 28 26 23 21 18 17 14 12 11 10 10 9 9 8 8 8 9 9 10 10 10 11 12 13 14 14 15 16 17 17 17
36 27 30 28 21 17 21 27 31 33 33 30 27 25 22 20 18 16 15 14 13 13 13 12 12 11 10 10 10 11 11 11 12 12 13 15 16 17 17 18 18 19 18
26 31 32 32 28 19 16 17 27 30 30 29 27 25 23 21 19 18 17 17 17 16 15 15 15 14 13 12 13 13 13 13 14 14 15 16 18 19 19 19 19 21 20
24 37 30 34 30 19 18 18 25 31 30 27 26 24 23 22 22 21 21 21 21 20 19 19 18 18 17 15 15 15 14 14 15 15 16 17 18 19 20 22 22 22 22
19 25 33 30 32 16 12 24 30 33 35 28 24 25 24 25 25 24 25 25 26 25 24 23 23 22 20 18 18 17 16 15 15 15 17 19 20 21 22 23 24 23 22
20 20 27 28 23 15 12 24 36 38 37 33 25 24 26 27 28 27 28 29 29 29 27 26 25 25 24 22 20 18 16 15 15 15 16 19 21 22 24 24 24 23 22
21 20 19 29 17 15 8 5 35 39 35 42 31 29 33 33 32 29 29 33 33 32 29 28 29 29 27 24 20 18 16 15 15 15 17 19 22 24 24 23 22 22 22
16 22 26 25 27 20 20 3 19 17 31 37 30 40 40 35 30 30 32 31 31 31 28 29 30 29 26 21 19 18 17 14 17 20 24 26 26 27 27 26 24 22 22
20 22 26 24 23 21 29 13 23 28 24 25 27 28 32 33 34 34 25 25 27 27 28 27 27 26 23 22 16 17 19 19 25 26 28 29 30 30 29 28 27 26 24
23 20 28 25 22 30 28 26 26 27 22 24 14 26 23 22 25 29 22 22 31 28 24 34 30 25 25 27 26 29 26 23 28 32 26 26 27 29 29 29 29 28 27
17 16 20 20 20 22 25 24 26 21 25 25 25 24 26 24 20 20 18 22 22 28 30 20 18 27 35 37 32 20 19 24 27 33 34 29 29 28 29 30 29 29 29
16 16 15 15 17 20 20 20 21 20 20 19 20 21 20 19 21 21 20 21 23 23 23 21 22 18 20 17 20 18 23 28 32 34 36 34 31 29 30 31 31 30 30

GFSSE_700_spd_090.txt.gz
Wind_Speed
18 18 16 13 13 13 12 12 12 12 14 15 16 19 21 17 15 16 11 9 8 8 10 10 11 11 11 10 11 12 12 11 11 11 10 10 10 10 11 11 10 10 9
13 19 18 15 14 13 13 12 13 13 14 16 18 20 21 18 17 14 12 9 9 11 12 11 11 11 11 11 12 12 12 12 13 13 13 13 13 13 13 13 11 11 11
18 19 19 16 16 15 14 13 13 14 16 18 20 20 21 19 17 15 11 10 13 13 13 12 12 12 13 13 14 14 14 14 14 13 13 13 12 12 13 12 12 11 11
21 21 20 18 18 17 15 15 15 15 18 20 22 23 22 21 18 14 11 14 15 14 13 13 14 14 15 16 16 15 14 13 12 12 12 11 11 11 11 11 11 11 11
25 24 22 20 19 18 17 17 17 18 23 24 22 24 23 20 17 13 16 17 16 14 14 15 16 16 16 15 14 13 13 12 11 11 10 10 11 11 11 11 11 11 11
27 27 23 21 21 20 19 19 20 23 27 27 26 25 24 19 16 17 19 17 15 15 15 16 16 15 14 13 12 11 10 10 9 9 9 9 9 9 9 10 10 10 10
32 29 26 24 23 23 22 22 23 25 29 26 27 26 24 19 18 21 19 17 16 16 16 16 15 14 13 11 10 9 8 7 7 7 7 7 7 8 8 9 9 9 9
34 32 29 25 24 25 24 25 25 28 31 29 28 25 21 20 23 22 20 19 18 17 17 15 13 11 9 8 7 6 5 5 5 5 4 5 5 6 6 7 8 8 9
32 30 29 28 28 27 27 27 28 29 32 30 28 26 22 24 24 23 21 20 18 17 16 13 11 9 6 4 3 2 2 2 3 3 3 2 3 4 5 6 7 8 9
34 33 32 31 31 31 30 29 29 30 30 29 28 26 27 27 25 23 22 21 19 17 14 11 8 5 3 1 0 1 2 2 2 3 3 3 3 4 5 6 7 8 10
38 37 35 34 34 33 32 31 31 31 31 30 29 29 29 27 26 25 24 22 19 15 12 9 6 4 2 2 3 3 4 5 4 5 5 4 5 6 7 8 9 11 12
43 41 39 37 36 35 33 33 34 33 32 32 32 31 30 29 28 27 24 21 17 14 10 8 5 4 3 3 4 5 5 6 6 6 6 5 6 7 8 10 11 12 13
43 42 40 38 36 35 32 35 35 34 34 34 33 32 31 30 28 25 22 19 16 12 10 7 5 4 4 4 5 5 6 6 7 7 7 7 7 9 10 12 13 13 14
44 45 35 36 34 36 34 35 35 35 34 33 33 33 32 29 27 24 20 17 15 11 9 8 7 6 6 6 6 6 7 7 8 9 10 10 10 10 11 13 15 16 16
30 36 32 32 32 35 36 34 34 35 34 34 33 33 31 29 26 23 20 18 15 13 11 10 10 9 9 8 8 8 9 9 9 9 10 10 11 12 12 14 16 16 17
31 36 34 28 31 31 32 31 31 32 34 36 35 33 30 27 25 22 20 18 16 14 13 13 13 12 12 11 10 10 10 11 11 11 12 13 14 14 14 15 17 17 17
35 38 37 28 27 27 29 30 29 29 33 34 33 32 29 26 24 22 20 18 18 17 17 16 16 15 16 15 14 13 13 13 13 13 13 14 16 16 16 16 18 20 20
35 34 39 33 29 26 23 22 21 26 29 31 31 30 28 25 23 22 21 21 21 21 20 20 19 19 19 19 18 17 16 15 14 14 14 14 14 16 17 19 20 20 21
21 25 35 38 28 24 20 19 18 18 24 27 30 28 28 26 24 24 23 24 25 24 23 23 23 22 23 23 23 22 19 18 17 15 14 15 15 16 17 19 20 21 21
21 28 34 48 28 23 19 15 17 20 21 25 29 31 30 29 26 25 23 26 27 26 25 25 26 27 26 27 27 26 22 20 18 16 15 14 15 18 20 22 23 22 22
28 19 35 34 42 25 27 30 33 31 28 24 27 30 30 29 29 28 24 26 29 27 29 29 30 30 30 31 31 28 24 22 19 16 15 17 20 22 25 26 26 24 23
24 25 32 32 45 42 33 22 15 32 43 34 28 29 30 32 31 30 28 30 31 33 32 29 30 30 32 30 28 27 25 21 20 18 18 20 22 24 26 27 26 26 25
28 29 34 37 38 38 32 16 17 13 22 25 32 38 38 32 38 32 30 33 34 35 26 28 27 31 32 28 28 28 26 25 24 22 19 21 23 28 28 27 27 26 25
26 30 34 36 41 37 30 23 18 17 22 24 30 30 41 37 35 31 32 35 30 39 23 20 23 35 41 34 32 28 27 25 28 30 32 28 28 31 32 32 30 29 28
6 10 12 25 26 33 36 28 21 21 29 38 34 24 22 13 30 34 29 20 21 23 21 16 14 25 26 33 40 38 41 34 29 24 29 28 30 32 31 31 31 30 29
8 10 11 12 17 17 11 26 23 24 22 22 27 28 26 28 23 21 21 23 23 18 17 19 17 16 17 16 19 20 22 17 22 27 30 31 31 28 28 31 31 30 29

GFSSE_700_spd_093.txt.gz
Wind_Speed
14 14 17 15 14 14 13 13 14 15 16 15 16 19 18 16 16 15 12 9 9 8 10 10 9 9 8 10 10 10 10 9 9 9 9 10 9 9 10 11 10 10 9
28 15 18 17 15 14 14 14 14 15 17 17 18 20 19 17 15 14 11 9 8 10 10 10 10 9 9 10 10 11 10 11 11 12 12 13 12 12 12 12 12 11 11
27 21 16 19 17 16 15 15 15 16 17 18 19 21 20 18 17 14 11 9 10 10 10 10 10 10 11 11 12 12 13 13 13 13 12 13 12 11 11 11 11 11 10
26 20 19 19 18 17 16 17 16 17 18 20 21 22 21 19 17 15 12 10 11 11 10 10 10 11 13 13 13 13 12 12 11 11 12 12 11 11 10 10 10 10 9
25 22 21 21 20 18 18 17 17 18 19 22 23 23 22 21 17 14 12 13 13 12 11 12 12 13 14 14 13 12 11 10 10 10 10 10 10 10 9 9 9 9 9
23 24 24 23 21 20 19 18 18 19 22 24 24 25 24 22 19 15 15 15 14 13 12 13 14 14 13 12 11 10 10 8 7 9 8 8 8 8 8 8 8 9 8
21 27 25 24 22 22 21 20 19 22 27 25 25 26 26 23 18 17 18 17 15 15 15 14 14 13 11 9 9 7 7 7 6 6 6 6 6 6 6 6 7 8 9
24 29 27 25 24 24 23 22 22 26 27 25 26 28 26 21 19 20 19 18 17 16 16 15 13 11 9 7 6 5 4 4 4 4 3 3 4 5 5 6 7 8 9
29 29 28 27 27 25 25 25 26 29 28 27 28 27 25 20 22 22 20 19 18 17 16 14 11 9 7 5 4 3 2 1 1 2 1 1 2 3 3 5 6 7 9
31 34 32 31 30 29 28 28 30 33 32 30 29 29 23 22 25 23 22 21 20 19 16 14 10 7 5 3 2 1 1 2 2 2 3 3 3 4 5 6 7 8 10
58 38 29 34 33 30 29 30 33 36 38 34 32 28 24 26 26 24 24 23 21 18 16 12 9 7 4 3 2 2 3 4 4 4 4 5 5 5 6 7 8 10 11
49 39 34 35 36 33 33 31 35 37 39 38 34 29 27 29 28 27 25 23 20 18 14 11 9 6 5 4 4 4 4 4 5 5 5 5 5 7 7 8 9 11 12
65 39 34 37 36 38 36 32 36 37 38 37 33 31 33 33 30 27 27 24 21 17 15 12 9 7 6 5 5 5 5 4 5 6 6 6 7 8 9 11 12 13 14
56 50 23 39 46 41 37 35 36 37 37 35 35 37 36 33 31 30 27 24 21 18 15 12 10 8 7 7 6 5 5 6 6 7 7 7 8 9 10 11 12 13 14
51 57 47 40 53 44 41 38 35 36 36 36 37 35 33 32 32 29 26 23 20 17 15 12 11 10 9 8 8 7 7 7 8 8 9 8 9 10 11 12 13 13 14
33 39 38 41 42 31 40 36 34 36 36 36 35 35 34 33 31 29 26 23 20 18 16 14 13 13 13 12 11 10 10 11 11 11 11 10 10 11 12 13 15 16 15
21 36 37 43 30 33 37 34 33 33 34 33 33 34 34 33 31 29 26 23 20 18 17 16 16 15 15 15 15 14 14 14 14 13 14 13 14 12 13 15 16 18 19
29 28 34 29 36 36 38 35 33 32 34 34 34 33 33 32 31 28 26 23 22 20 19 19 19 18 18 18 18 19 19 18 16 16 16 15 15 16 16 16 18 19 20
26 29 35 38 41 35 35 34 32 32 33 35 35 34 33 31 30 27 26 25 24 23 22 21 21 21 21 21 21 23 23 23 20 19 17 17 16 15 16 17 18 20 22
22 22 39 45 39 34 31 29 29 29 30 35 33 32 32 30 28 28 27 26 25 25 25 23 23 23 23 25 25 26 28 25 24 22 19 18 16 16 18 20 22 25 25
21 30 21 44 41 37 33 27 23 24 25 25 28 31 29 28 29 29 27 28 29 28 25 23 25 28 28 28 29 30 29 28 27 25 21 18 18 19 20 21 23 25 27
28 33 32 42 43 38 34 31 28 21 17 21 25 27 28 27 27 27 29 29 28 30 32 28 32 30 29 28 29 30 27 24 27 21 19 17 16 18 19 22 23 25 27
30 33 33 48 43 40 35 36 35 24 35 32 32 31 28 27 27 28 27 28 32 27 31 39 31 31 26 30 32 30 27 27 29 26 25 22 21 26 30 30 30 29 29
33 26 33 41 53 41 34 27 26 31 32 26 34 33 32 31 31 30 31 26 26 30 26 29 25 31 30 20 27 33 35 32 35 37 32 32 34 35 30 33 35 34 29
32 30 28 36 42 56 39 36 39 36 20 25 30 23 31 33 27 33 36 43 42 43 39 36 24 13 13 11 18 29 27 24 33 38 14 12 18 25 32 29 29 30 30
19 30 26 27 33 44 47 41 30 30 15 20 16 19 18 15 20 21 20 22 24 28 33 25 14 14 14 14 16 20 23 25 22 23 22 22 25 24 25 25 26 28 31

GFSSE_700_spd_096.txt.gz
Wind_Speed
15 5 10 15 14 12 12 13 13 13 13 14 15 17 17 16 16 15 13 9 7 6 6 7 8 9 9 8 8 8 9 8 9 9 9 10 10 10 10 11 10 10 10
28 24 15 13 15 13 13 13 13 14 14 15 17 18 17 16 16 15 12 9 6 5 6 7 6 8 8 9 9 9 9 10 11 12 12 13 12 12 11 11 11 11 10
27 24 20 14 16 15 15 14 14 15 15 16 18 20 18 17 16 14 12 9 8 7 7 6 6 8 8 9 10 11 12 12 12 12 11 12 11 11 11 11 10 10 10
20 22 24 20 16 16 16 15 15 15 16 17 19 21 20 18 16 14 11 9 9 10 8 7 7 9 10 10 11 12 11 11 11 11 11 11 10 10 10 10 10 10 10
13 18 23 22 19 17 17 17 16 16 17 18 21 21 21 18 16 14 12 10 11 10 9 9 9 9 11 12 11 10 10 9 10 9 10 10 9 10 10 10 9 9 10
20 17 21 24 21 19 19 18 17 18 18 20 22 23 22 21 18 15 12 12 12 11 11 11 11 12 11 10 9 9 8 8 7 8 8 8 8 8 8 8 9 9 10
26 24 23 26 25 21 21 19 19 19 20 22 23 23 23 22 19 16 14 14 13 12 12 13 13 12 11 10 8 7 6 5 4 6 6 6 6 6 6 7 7 8 9
26 27 28 28 28 23 23 21 20 21 23 25 25 25 25 24 20 17 16 15 14 15 15 15 13 12 10 9 7 6 5 4 3 3 3 4 4 4 4 5 6 7 8
33 27 29 29 28 26 23 23 22 23 26 27 27 28 27 24 20 19 18 17 17 16 16 15 13 11 9 7 6 4 3 2 2 1 1 1 1 2 3 4 6 7 9
38 38 36 31 31 27 26 25 25 28 29 29 29 29 27 24 21 21 21 20 19 18 16 14 12 9 7 5 3 2 2 1 1 1 1 1 2 2 3 5 6 8 9
36 37 41 42 36 31 28 26 29 33 33 32 30 28 30 25 23 24 23 21 20 18 16 14 11 8 5 4 3 3 3 3 4 3 3 3 3 4 4 5 6 8 9
38 38 41 34 40 31 29 28 32 36 34 34 33 31 31 25 25 26 24 23 22 20 17 14 10 8 6 4 4 4 4 4 4 4 4 4 4 4 5 5 6 8 9
39 40 36 42 43 33 30 32 34 39 40 33 35 35 29 26 30 27 26 24 22 20 17 14 10 8 6 6 5 5 5 5 5 5 5 5 5 6 6 7 7 9 11
38 41 39 40 46 36 32 36 37 40 45 45 38 37 34 29 30 28 27 25 23 20 17 14 11 8 7 7 6 6 6 7 7 6 6 6 7 7 7 8 9 10 12
44 43 43 46 48 18 40 43 42 41 44 47 43 37 35 32 32 30 29 27 24 21 17 14 12 10 9 8 8 8 8 8 9 8 6 7 8 9 9 10 11 11 12
41 41 49 54 52 28 40 43 47 43 44 44 43 42 37 34 34 32 29 27 24 21 18 15 13 12 11 11 10 11 11 11 10 11 12 10 10 11 12 11 12 13 14
41 43 47 53 72 50 37 44 44 42 42 39 40 38 34 34 32 31 29 27 25 22 19 17 15 13 13 13 13 14 14 14 14 13 14 14 12 12 12 13 13 14 15
41 41 37 32 60 40 32 37 33 30 36 35 35 34 34 34 33 32 31 28 26 23 20 18 17 15 14 15 15 15 17 18 18 17 16 17 17 14 14 14 13 15 16
40 33 27 20 45 46 41 29 32 31 30 32 35 36 36 36 35 33 30 28 26 23 22 21 19 18 17 17 17 18 20 22 21 20 19 19 20 16 17 16 16 18 21
39 31 29 24 31 38 38 34 31 33 33 32 34 36 36 35 34 32 30 28 26 25 23 23 21 21 19 20 21 21 24 25 23 23 23 23 22 18 18 18 19 20 20
13 26 30 35 31 43 45 41 36 30 31 34 33 31 31 31 31 29 28 27 25 25 25 26 24 21 21 19 26 26 27 26 24 25 27 22 21 19 20 19 19 19 21
18 23 30 35 29 33 41 36 28 25 23 26 29 28 27 28 28 27 26 25 25 26 28 28 28 29 26 26 26 26 28 26 27 29 26 23 23 23 22 18 19 24 31
22 21 24 32 41 45 39 36 35 31 26 21 22 26 27 25 25 23 22 18 18 21 22 26 25 25 29 37 30 30 25 30 29 26 28 28 26 25 28 28 25 28 33
21 22 24 34 47 43 39 37 32 32 34 28 31 32 31 31 29 29 30 28 26 21 21 18 20 22 27 35 40 35 19 22 29 27 16 25 31 34 38 43 32 35 33
21 32 31 45 51 43 37 39 39 45 32 28 26 32 35 35 34 31 32 34 27 34 34 37 40 43 40 40 26 19 11 22 20 28 29 29 30 25 23 19 23 27 27
28 32 31 36 42 38 40 27 23 24 34 32 28 29 32 44 26 28 39 28 33 34 41 35 39 37 22 14 15 14 8 19 25 25 28 24 23 24 25 23 23 24 26

GFSSE_700_spd_102.txt.gz
Wind_Speed
16 16 13 6 5 8 11 10 10 10 11 13 13 12 13 13 12 11 10 8 6 5 4 3 5 6 6 6 5 5 6 6 7 7 9 10 9 9 9 9 10 9 9
18 17 14 12 12 9 11 12 11 11 11 13 14 13 13 12 12 12 11 8 7 6 5 5 6 5 6 6 6 6 7 7 8 9 10 11 10 10 9 9 10 10 9
15 15 13 12 13 13 12 13 12 12 12 13 14 14 13 13 13 13 11 8 7 5 5 5 5 6 7 6 7 8 10 11 11 10 10 10 10 9 9 9 9 9 9
10 10 10 11 15 17 14 14 14 13 12 13 14 15 15 15 14 14 11 9 7 5 7 6 6 7 7 7 9 11 11 11 11 10 9 9 9 9 9 9 9 9 9
12 12 12 12 15 19 16 15 15 14 14 14 15 16 17 17 16 14 11 9 8 8 9 8 8 8 9 9 10 11 10 9 10 9 9 9 9 8 9 8 8 8 8
16 15 11 14 16 18 18 17 16 15 15 16 17 18 18 18 17 15 12 11 9 10 9 9 9 9 10 10 10 10 9 9 9 8 8 7 7 7 7 7 6 6 7
17 17 19 13 12 17 19 19 18 17 17 18 19 19 20 20 20 17 14 13 11 11 10 10 10 10 11 10 9 9 8 8 6 6 6 5 5 5 4 4 4 5 5
21 23 21 19 17 16 19 20 20 18 18 18 20 21 22 21 21 18 16 14 13 13 12 12 12 11 10 10 9 9 7 6 6 5 5 4 4 3 2 2 3 4 5
27 25 29 27 19 23 22 21 21 20 20 20 21 23 24 24 23 20 18 16 15 14 13 13 13 12 10 9 8 7 7 5 5 4 4 4 3 2 1 1 3 4 5
28 26 29 30 30 20 22 22 22 22 22 22 24 25 27 26 25 22 20 18 18 17 16 15 14 12 10 9 8 6 5 4 4 4 4 5 4 3 3 3 3 4 6
26 26 31 30 29 32 24 25 24 24 23 25 26 28 29 30 27 23 21 20 19 18 17 16 15 13 10 8 7 6 5 4 5 6 5 6 5 6 5 5 4 5 6
27 26 26 26 28 30 34 27 26 25 25 26 29 31 32 31 26 24 22 22 21 20 19 18 16 13 11 8 6 5 5 4 5 6 6 6 6 6 6 5 6 6 7
26 26 23 24 24 28 28 30 27 27 25 26 30 32 31 31 29 27 24 24 24 23 21 19 16 14 11 8 7 6 5 5 5 5 6 6 6 6 6 6 7 7 8
31 29 27 26 26 27 32 32 30 30 28 26 32 33 34 33 30 30 24 23 25 24 22 20 18 14 11 9 8 7 7 6 5 6 5 5 6 6 6 6 7 8 9
35 29 25 29 26 30 27 31 30 30 31 32 32 33 35 33 33 33 29 28 26 25 24 21 18 15 12 10 9 8 9 7 6 5 5 5 6 6 7 7 8 8 9
39 35 33 29 30 32 31 30 28 31 29 35 38 38 35 33 33 33 30 30 29 27 25 23 19 16 14 12 10 11 10 9 7 6 7 7 8 8 8 9 9 9 10
42 40 39 36 35 34 34 36 37 36 36 39 41 38 39 36 38 43 37 30 32 30 28 25 22 19 15 13 13 13 12 12 11 11 10 10 9 7 10 11 11 12 12
39 43 41 38 40 39 38 38 38 36 33 37 41 41 42 42 43 51 34 34 33 32 30 27 24 21 17 17 15 14 13 14 14 15 13 13 15 12 11 14 14 15 16
44 40 44 39 42 48 47 44 43 44 42 46 45 46 56 39 43 37 29 27 39 34 32 30 26 23 20 18 16 15 15 16 16 18 17 17 17 17 17 17 18 19 19
42 42 42 43 40 45 49 45 49 50 47 51 48 44 52 57 47 41 33 37 37 36 35 32 28 25 22 20 19 18 17 18 18 20 22 22 20 22 22 19 21 21 20
35 38 40 44 41 42 42 45 46 50 52 49 51 52 45 42 40 38 36 36 38 38 35 32 29 26 23 21 20 20 19 20 19 20 24 24 24 28 27 22 20 22 22
34 35 38 45 46 51 56 52 46 47 46 42 46 58 54 58 41 38 37 38 40 38 36 33 31 27 25 24 20 19 20 22 18 20 28 28 33 36 30 22 20 23 25
36 37 38 43 48 50 49 43 43 38 37 38 38 44 48 44 37 37 39 40 39 37 37 33 30 28 29 26 23 20 19 21 23 31 36 35 35 32 23 22 21 25 29
36 43 49 45 44 35 35 42 38 35 35 43 36 44 42 35 35 33 34 35 37 36 32 30 30 28 29 29 32 31 31 32 35 42 40 33 33 32 31 24 22 25 28
32 37 46 41 44 32 32 38 39 37 26 33 39 40 43 40 41 37 37 38 38 38 36 34 34 33 29 32 38 37 41 38 30 31 29 27 25 26 30 26 27 28 29
30 36 47 24 28 36 37 33 32 31 39 30 38 39 45 46 41 44 42 37 39 39 39 39 26 29 33 33 35 39 41 44 31 34 14 19 21 22 28 28 28 27 27

GFSSE_700_spd_105.txt.gz
Wind_Speed
15 15 15 10 1 3 6 8 8 8 9 10 9 9 9 9 9 7 6 6 4 3 3 4 2 2 3 4 5 5 5 6 6 6 7 8 8 8 7 7 9 8 8
11 15 15 12 8 5 5 7 9 10 9 10 11 10 10 9 9 8 7 6 4 5 5 4 3 3 3 5 5 6 7 7 8 9 10 9 8 8 8 8 10 8 8
11 16 16 13 10 7 7 9 10 10 11 10 11 11 10 9 10 10 8 6 5 4 5 4 3 4 4 5 6 6 8 9 9 9 9 9 8 8 9 9 8 9 9
8 14 14 12 11 10 11 11 11 12 12 11 11 10 11 10 11 10 9 6 5 5 5 4 3 3 4 6 7 8 8 9 9 8 7 8 8 8 8 8 8 8 8
12 14 13 12 10 11 13 14 13 13 13 12 12 11 11 11 11 11 10 8 5 6 6 5 4 4 5 7 8 9 9 8 8 7 7 7 7 7 7 7 7 7 8
14 14 16 14 14 15 14 15 15 15 14 13 13 12 12 11 12 13 11 9 7 7 7 6 5 5 6 8 8 7 7 7 6 5 5 5 5 5 5 5 6 6 7
11 12 12 16 14 15 16 16 17 17 16 15 14 13 14 14 14 14 13 10 10 9 8 7 7 6 7 8 8 8 7 7 5 4 3 3 2 2 3 3 4 4 6
17 16 17 13 11 13 14 15 17 17 17 17 17 16 16 16 17 16 15 13 12 11 10 9 8 8 8 8 8 7 7 6 5 4 3 2 1 0 1 2 3 4 5
21 20 17 19 19 14 15 17 16 18 18 19 18 18 20 20 19 19 17 15 14 12 12 10 10 10 9 8 7 5 5 5 4 4 4 3 3 2 3 3 3 4 5
23 22 22 21 23 22 20 18 19 20 20 20 20 21 22 23 22 20 20 17 16 14 13 12 12 11 9 8 7 6 5 5 5 5 5 5 5 6 5 5 5 5 6
23 23 23 22 22 26 25 24 21 21 21 20 22 23 24 26 25 23 20 19 16 16 15 14 14 12 11 9 7 6 6 6 6 6 6 6 6 7 7 7 6 5 7
23 24 23 20 22 23 23 28 27 24 22 21 23 25 27 29 27 23 22 20 19 17 16 16 16 14 11 9 7 7 6 7 7 7 7 7 7 7 7 7 7 6 7
34 29 25 25 24 23 24 26 31 28 26 24 23 25 28 31 31 25 25 24 21 19 19 19 17 15 13 10 9 8 7 7 8 7 6 7 7 6 7 8 7 7 8
37 36 31 26 25 25 21 23 26 27 26 24 24 24 28 31 32 27 27 26 23 21 21 20 19 17 14 12 10 9 8 7 7 7 6 6 6 6 7 6 7 8 9
37 39 37 33 28 25 25 23 26 28 26 24 26 26 29 31 31 28 30 29 26 25 23 22 21 18 15 13 11 9 9 8 8 7 7 6 5 7 7 7 9 8 10
43 41 41 37 32 29 26 24 23 26 28 28 26 27 29 31 31 31 33 31 30 29 27 24 22 19 17 15 13 11 10 10 10 9 9 8 7 9 9 9 12 9 10
48 46 44 39 36 31 31 28 26 27 32 26 25 29 31 34 35 32 37 36 32 32 31 28 26 24 21 17 14 13 12 13 13 13 12 11 11 11 10 11 14 13 13
52 50 48 46 42 39 36 32 31 29 30 29 26 29 30 36 38 37 39 46 31 36 33 30 27 25 22 19 18 15 15 15 15 14 14 13 15 15 14 16 16 18 18
57 51 48 49 48 43 40 38 36 34 34 32 31 29 28 35 37 37 39 53 36 39 39 33 31 27 25 22 19 19 18 17 17 16 15 15 17 18 19 19 21 23 22
63 52 49 48 49 48 46 41 40 42 43 41 39 35 34 34 41 42 44 34 40 40 36 34 34 31 27 24 24 23 21 19 19 17 16 15 16 18 19 19 23 27 26
56 52 49 47 47 49 47 48 47 47 46 45 42 42 40 40 38 45 52 43 45 41 37 38 37 33 31 28 27 25 24 22 20 18 15 14 14 20 23 26 29 26 25
42 48 49 47 43 47 48 46 41 36 46 44 39 44 50 50 43 46 47 54 40 32 35 40 37 35 32 32 29 28 28 25 23 21 21 20 25 30 29 30 31 27 27
31 36 40 43 45 43 42 45 53 55 45 42 45 47 53 52 47 53 43 41 52 39 41 38 39 36 34 33 31 30 30 30 28 26 23 26 33 40 41 36 29 26 27
29 33 36 35 37 41 43 42 53 57 56 59 57 51 53 52 51 53 51 51 49 41 35 39 34 35 34 32 33 32 32 33 30 34 41 42 36 37 46 44 31 30 30
27 30 31 32 34 39 44 48 53 54 59 56 50 38 39 41 45 47 52 57 54 35 38 38 36 35 36 35 35 34 35 33 36 45 49 36 31 43 36 33 34 36 26
28 30 35 35 36 42 41 41 42 45 48 36 29 40 33 40 43 38 33 37 41 36 39 37 39 41 38 41 35 35 41 40 33 41 42 40 40 28 24 24 24 34 29

GFSSE_700_spd_108.txt.gz
Wind_Speed
9 8 13 8 7 1 2 3 5 6 6 6 5 4 6 7 7 6 4 3 2 2 4 6 5 2 3 4 5 5 5 6 5 6 7 8 9 9 8 8 9 8 9
12 8 12 10 10 5 1 3 5 5 6 7 6 6 6 6 6 6 5 4 2 2 5 6 4 2 1 3 5 5 6 6 6 7 8 8 8 9 9 9 10 8 8
8 11 13 15 13 10 5 5 6 7 7 7 7 7 6 6 6 6 6 4 3 2 5 4 3 1 1 3 6 6 7 8 8 7 7 8 8 8 9 10 10 10 10
4 7 11 13 10 9 11 8 8 9 9 8 8 7 7 6 6 7 6 5 3 3 5 4 2 1 2 3 5 7 8 8 7 7 6 7 8 7 8 9 9 9 9
9 9 10 10 8 9 10 12 12 11 10 9 8 7 6 6 7 8 7 6 4 4 4 3 1 1 2 3 5 7 8 7 6 5 6 6 7 7 7 7 7 8 8
12 13 15 14 14 13 11 13 13 12 12 11 9 8 8 7 8 9 8 7 6 5 5 3 2 2 2 3 5 6 7 6 6 4 4 5 5 5 5 5 5 6 7
9 14 16 16 15 14 12 12 14 14 13 12 10 10 10 8 9 10 11 9 8 7 6 5 3 3 4 5 5 5 6 5 5 4 3 3 2 2 3 3 4 5 6
16 15 14 13 11 9 10 11 12 13 14 13 13 12 12 11 12 13 12 11 10 9 7 6 5 5 6 6 5 5 5 4 4 3 2 1 0 1 2 3 4 4 5
21 21 20 17 16 14 13 11 10 12 14 14 14 15 14 15 15 16 15 13 12 11 9 8 7 6 7 7 6 6 5 5 4 3 3 2 2 3 3 4 4 4 5
27 23 20 17 17 16 16 16 16 14 14 15 16 16 18 19 19 19 18 16 14 12 11 10 9 8 8 8 7 6 5 5 5 4 4 4 4 5 6 6 6 6 6
28 27 24 23 22 20 20 19 19 19 17 17 17 18 19 21 24 25 21 18 16 14 13 12 11 10 9 8 7 6 5 5 6 6 6 6 6 7 7 7 6 6 5
30 29 27 25 25 25 25 25 25 23 23 19 19 19 20 22 24 25 22 21 18 17 15 14 13 12 11 10 9 8 7 7 7 6 7 7 7 7 8 7 7 7 6
36 31 29 29 26 25 26 22 25 24 24 24 23 20 21 21 24 27 24 24 21 20 18 17 14 13 13 12 10 9 8 8 7 7 7 6 6 7 8 8 7 7 7
40 38 33 31 29 30 26 26 24 26 24 26 25 24 24 22 24 28 26 24 23 21 20 18 16 15 15 14 12 10 9 8 8 7 8 7 7 8 8 8 8 8 8
44 41 40 38 32 30 27 27 24 24 25 25 25 23 24 23 25 28 28 26 25 23 22 22 20 19 16 15 14 12 10 9 9 8 8 7 7 8 8 8 9 9 10
48 44 42 41 39 36 31 28 27 25 24 26 25 23 22 23 25 27 28 28 28 28 27 26 25 22 19 18 16 14 12 10 10 9 9 8 8 9 9 10 11 11 11
55 50 47 42 42 41 38 31 27 25 26 27 28 29 27 24 23 25 27 30 33 29 30 28 29 26 24 21 18 15 14 13 12 12 11 11 11 11 11 12 14 14 15
58 56 52 48 44 43 41 37 34 27 29 26 27 25 25 23 28 30 30 32 32 33 36 34 34 29 27 23 20 18 17 16 14 14 13 13 13 13 13 13 14 16 18
57 59 57 55 49 45 44 40 37 34 31 29 28 27 25 22 23 30 32 34 37 36 42 37 37 31 31 26 23 22 21 19 17 16 16 15 15 15 14 14 14 14 18
53 57 60 57 55 51 48 44 42 40 39 38 35 32 25 25 24 22 27 34 38 41 46 39 40 35 32 30 28 27 25 22 21 19 19 18 17 15 13 15 19 21 23
48 53 58 58 55 55 53 52 49 46 39 39 38 36 32 32 32 30 30 32 37 38 38 42 45 45 38 34 33 30 28 26 24 23 22 20 18 16 12 16 24 25 30
42 48 52 56 54 53 54 54 53 47 44 41 39 39 39 40 39 36 38 37 37 41 44 41 44 40 36 37 34 34 32 30 28 26 25 23 24 23 23 26 32 34 37
33 38 43 46 52 52 50 50 51 51 49 48 43 37 34 40 40 39 40 47 49 48 43 44 45 49 40 40 37 37 36 34 29 30 30 29 28 26 31 37 32 32 38
26 24 27 32 43 49 45 46 47 49 50 49 42 42 41 37 36 38 45 49 51 49 44 37 45 40 36 39 39 38 37 34 33 35 32 29 27 33 37 33 39 42 35
28 22 23 29 33 41 44 42 42 45 47 49 49 51 51 51 52 54 54 48 52 51 46 42 41 45 39 41 40 37 36 39 37 38 36 33 36 39 40 37 40 39 32
27 23 28 32 34 34 36 41 46 43 41 42 49 56 57 57 53 49 46 48 52 46 40 39 43 46 40 39 41 41 41 40 40 36 35 41 43 47 45 42 42 37 26

GFSSE_700_spd_111.txt.gz
Wind_Speed
13 4 4 4 6 1 2 2 1 1 1 2 1 1 3 4 5 5 2 1 5 2 3 5 4 3 3 3 4 6 6 6 7 7 8 8 9 9 9 9 10 9 9
11 7 7 7 9 4 3 1 4 3 3 1 2 2 3 4 5 4 3 2 3 2 4 5 3 2 1 2 4 5 7 6 7 8 9 8 7 8 9 9 10 10 10
12 10 8 9 8 9 7 3 4 4 5 4 2 2 3 3 4 5 4 2 2 3 5 4 4 3 2 1 3 4 7 9 9 8 8 9 8 10 11 10 11 10 9
8 6 7 10 11 10 8 6 5 6 6 6 4 3 3 3 4 5 4 2 2 3 4 3 2 2 2 1 3 5 7 9 9 9 8 8 8 8 9 9 9 9 8
9 7 5 11 11 9 8 7 8 8 8 7 6 5 3 4 5 5 4 4 2 2 4 3 1 1 1 3 4 5 6 8 8 8 7 7 7 7 7 7 7 6 7
13 11 10 12 13 11 10 9 9 8 9 7 7 7 4 4 6 6 6 5 3 3 4 3 2 1 2 4 5 6 6 6 6 6 6 7 6 6 5 5 4 4 5
16 16 14 16 16 15 15 12 9 9 9 8 7 7 6 5 7 7 7 7 4 4 5 4 2 1 1 4 5 6 5 5 5 5 5 4 3 3 3 3 3 4 4
21 19 18 19 18 18 16 13 11 10 9 8 8 8 6 7 9 10 9 9 7 5 5 5 4 3 3 3 4 5 5 5 5 4 4 3 2 1 0 2 2 3 3
24 23 21 20 19 20 17 13 12 10 9 9 8 9 9 10 11 12 11 11 10 8 6 5 4 4 4 4 4 4 5 5 5 5 4 4 3 2 2 2 2 3 3
26 27 27 24 22 19 20 22 19 14 12 10 10 10 12 13 15 15 14 14 13 11 9 6 6 5 5 5 5 5 5 5 5 5 5 5 5 5 5 5 5 4 3
30 29 30 28 24 21 19 18 20 22 19 17 13 12 13 15 18 19 18 17 16 14 12 10 9 7 7 7 7 6 6 6 6 6 6 7 7 7 7 7 7 6 5
34 34 33 30 29 26 22 22 22 21 23 23 20 17 14 16 19 22 23 22 20 17 15 13 12 11 9 8 8 8 8 7 7 7 7 8 8 8 8 8 7 7 7
37 37 36 35 33 30 29 27 26 25 24 23 24 21 18 17 18 23 26 25 23 20 18 16 14 12 11 10 9 9 9 9 8 8 7 8 9 9 8 8 9 9 8
44 41 41 38 36 32 32 32 30 27 25 26 24 23 22 20 20 22 24 26 25 21 20 18 16 15 14 12 11 11 10 10 9 9 8 8 8 8 8 8 9 8 8
47 44 43 43 39 40 31 28 32 30 27 27 27 25 23 22 23 24 24 26 26 24 22 22 21 18 17 15 14 13 12 12 11 9 9 8 8 8 8 8 9 8 8
50 49 46 47 45 40 39 36 33 31 29 28 28 28 24 21 20 22 23 23 27 26 26 24 24 23 22 19 18 16 15 13 12 11 11 10 9 9 9 9 10 9 9
50 54 53 50 50 48 41 36 34 31 30 30 28 27 25 25 22 21 21 24 27 29 28 29 28 26 26 23 21 18 17 15 13 13 14 13 12 12 12 12 12 11 11
48 52 57 56 53 52 51 47 40 36 33 30 29 30 28 27 27 27 25 22 25 32 31 30 31 29 28 26 25 23 20 19 17 16 16 16 16 16 16 14 13 13 13
41 49 53 59 59 55 52 51 45 40 37 34 31 27 27 28 24 24 28 27 26 30 29 32 36 33 31 32 30 29 25 23 21 20 18 18 18 18 18 16 14 13 13
40 41 48 54 60 60 54 52 49 45 41 37 35 31 28 29 24 21 20 26 28 29 31 34 36 40 38 36 34 32 30 28 26 22 20 21 20 19 18 13 12 13 14
37 37 38 46 55 60 60 54 51 49 44 41 39 32 30 25 25 24 22 21 22 24 24 26 32 28 39 46 47 36 37 31 30 25 24 23 23 20 21 17 14 17 20
36 36 36 39 47 57 60 57 53 49 46 43 40 38 36 36 35 34 28 28 31 29 29 28 31 32 34 38 44 46 44 38 33 29 27 26 25 25 25 22 24 25 29
28 30 34 38 42 50 59 59 57 51 50 49 45 39 36 35 34 33 31 37 39 43 42 39 39 43 39 33 43 51 54 37 35 33 29 28 26 29 30 29 31 31 30
24 23 24 25 35 45 52 58 58 57 54 52 47 43 42 40 37 33 27 30 33 36 35 39 44 48 43 39 39 51 45 39 37 35 32 27 31 34 30 36 34 37 40
26 23 20 19 27 35 45 53 54 53 51 47 48 47 46 43 40 38 41 40 39 42 47 51 49 49 48 41 40 42 44 41 36 38 37 35 35 34 38 36 30 33 39
26 25 20 20 27 32 40 46 45 46 46 45 46 45 44 45 44 44 46 47 49 50 51 53 50 50 48 39 40 44 48 51 42 44 43 43 46 45 42 43 45 48 37

GFSSE_700_spd_114.txt.gz
Wind_Speed
11 7 7 6 6 5 3 1 1 1 1 1 1 1 1 3 3 2 1 4 3 2 3 4 4 3 3 3 3 3 5 6 7 7 8 7 7 8 9 9 9 8 8
16 10 9 10 9 8 6 2 1 0 1 1 1 1 1 3 4 3 2 5 3 2 4 3 3 2 3 3 2 3 4 6 8 9 9 7 7 8 9 9 9 9 8
21 14 10 12 12 10 9 6 2 2 2 1 2 2 2 2 3 2 2 4 3 3 4 3 3 3 3 3 3 4 4 7 9 9 9 10 9 10 10 9 9 8 7
12 19 15 13 14 11 10 7 5 4 4 3 3 3 3 3 4 4 4 3 4 4 6 5 4 3 2 3 4 5 7 7 8 8 8 8 8 8 8 7 7 7 7
11 15 14 14 13 12 11 8 5 6 6 5 4 3 3 4 5 6 5 4 2 3 5 5 4 2 1 2 5 7 7 8 7 7 7 6 7 7 6 6 5 5 5
12 12 13 15 15 15 12 9 6 6 7 6 5 4 3 3 5 7 7 6 3 0 3 4 3 2 1 2 4 7 7 7 6 6 6 6 5 5 5 4 3 3 3
17 16 14 15 17 17 14 11 11 8 8 8 6 5 5 5 5 8 8 8 4 2 1 2 2 1 0 2 4 5 6 6 6 5 5 4 4 4 3 2 1 1 1
24 22 18 17 19 20 18 17 16 12 10 9 7 6 6 7 7 8 8 8 5 4 4 2 2 1 0 2 3 4 5 5 5 5 4 4 3 3 2 2 1 1 2
23 25 25 22 22 23 20 19 17 15 11 10 9 9 8 9 10 10 9 9 7 6 6 5 4 3 3 3 3 4 4 5 5 5 5 5 5 5 4 4 4 4 4
26 26 29 28 27 26 25 22 20 17 14 12 11 11 11 12 13 12 13 12 11 9 9 8 7 5 5 5 5 4 5 5 6 6 7 7 8 7 7 7 7 6 6
31 32 31 29 29 29 28 27 25 22 20 18 16 14 14 14 14 15 16 16 14 13 11 11 10 8 8 7 6 6 6 6 7 7 8 9 9 9 9 9 9 8 7
34 36 34 33 31 31 29 29 28 27 27 25 22 19 17 15 16 17 18 18 18 16 15 14 13 11 9 8 8 8 8 8 8 9 9 10 10 10 10 10 10 9 8
37 38 37 36 35 34 33 30 30 30 28 28 26 24 22 19 18 18 20 23 23 21 18 17 16 14 12 11 11 10 9 9 9 9 10 10 10 10 10 10 10 10 9
40 42 41 40 40 37 36 35 33 32 31 29 27 27 25 23 21 20 21 23 24 24 22 20 19 17 16 14 14 12 11 11 11 11 11 10 11 11 11 10 10 9 9
42 42 45 44 43 41 42 40 38 35 35 32 32 30 28 27 25 24 23 23 23 26 25 24 22 21 19 18 16 15 14 13 13 12 12 12 12 12 11 11 10 10 10
39 44 46 48 48 46 44 42 37 38 37 36 35 33 32 30 28 26 24 23 25 27 26 26 24 24 22 21 20 19 18 16 15 14 14 14 14 13 12 12 11 11 10
40 41 47 51 50 50 49 47 45 41 36 38 34 34 34 33 32 30 27 24 24 27 28 29 25 28 26 25 24 22 21 19 18 17 17 16 16 16 15 14 14 13 12
40 42 44 50 54 53 52 51 47 45 42 39 37 35 36 34 35 32 29 27 23 27 31 31 33 27 31 30 28 26 24 24 22 21 20 19 19 19 19 18 17 16 14
43 42 45 49 55 58 56 55 52 47 44 40 38 36 35 35 32 30 29 29 26 26 29 34 33 29 32 31 31 31 28 28 27 25 23 22 22 21 21 21 19 17 15
42 44 43 46 51 58 61 59 57 54 51 46 40 37 33 33 35 33 30 29 32 30 29 29 31 28 24 34 35 38 33 33 32 29 27 26 24 24 24 23 22 19 17
37 37 38 40 43 50 58 64 61 58 55 51 45 39 38 34 31 31 27 26 25 25 29 27 28 31 27 28 25 35 41 39 40 35 33 32 28 24 27 26 26 22 21
36 34 33 35 37 40 48 55 62 60 56 51 48 44 40 37 36 35 27 24 21 19 20 25 26 24 23 23 25 27 31 35 42 43 38 40 32 30 29 28 29 27 25
36 33 34 35 37 39 41 49 57 62 60 55 51 48 42 38 36 36 35 33 31 30 31 33 31 34 33 31 30 34 34 40 36 38 46 45 37 29 34 34 34 33 32
33 30 30 30 30 33 43 47 52 60 62 58 52 47 44 43 42 38 36 35 30 32 34 35 33 34 36 36 38 41 41 41 38 38 45 49 42 37 37 35 36 35 35
30 27 26 26 26 27 35 47 50 57 59 56 51 48 47 45 42 39 38 37 37 33 32 30 32 36 39 45 48 48 46 43 42 42 41 47 39 39 35 37 41 45 44
29 27 25 23 22 22 26 40 49 52 55 54 51 49 49 46 45 43 42 41 40 40 39 42 41 44 48 51 52 50 49 45 45 46 48 49 44 43 42 45 51 32 43

GFSSE_700_spd_117.txt.gz
Wind_Speed
14 13 10 9 8 5 3 2 2 2 1 0 0 0 0 1 1 0 2 3 2 3 4 4 4 4 4 4 4 4 4 5 6 7 8 7 7 8 8 8 8 8 6
16 13 12 13 12 9 7 5 4 3 1 1 1 1 1 1 1 1 4 3 2 3 5 4 4 3 4 4 4 4 5 6 7 8 8 7 7 8 8 8 8 7 7
22 16 12 13 13 11 9 7 4 4 2 2 3 3 2 2 2 3 6 4 3 3 6 5 5 4 3 3 4 5 6 7 8 8 8 9 8 8 8 8 10 8 6
21 23 15 12 15 13 10 8 5 5 2 2 3 3 3 3 2 4 6 5 3 4 6 5 5 4 3 3 4 6 7 8 7 7 8 8 8 8 6 6 6 5 4
15 14 21 16 16 14 11 9 7 5 4 4 3 4 4 3 2 4 6 8 2 3 5 5 5 4 3 3 4 6 7 7 7 6 6 6 6 6 5 5 4 4 3
12 15 17 19 19 16 13 11 9 6 5 5 6 5 4 3 4 6 6 7 2 1 3 4 3 3 3 3 5 6 6 6 6 5 5 5 4 4 3 2 2 2 2
15 13 17 17 19 18 16 15 12 10 9 7 7 6 5 4 5 8 7 7 4 2 2 2 2 2 3 4 5 5 5 5 5 5 3 2 2 2 1 0 1 2 2
21 17 17 18 20 21 21 18 16 13 11 11 10 8 7 7 7 9 9 8 7 4 3 2 2 1 3 5 5 6 5 5 5 4 4 3 3 3 2 3 3 4 4
26 23 21 21 21 23 24 22 19 18 16 13 13 11 10 9 10 10 10 10 9 7 5 4 3 3 3 4 6 6 6 5 5 5 5 5 5 5 5 5 5 5 6
23 25 24 26 24 23 25 24 22 21 20 17 16 14 14 14 13 13 12 13 13 10 8 7 6 5 5 5 5 6 6 6 6 6 7 7 8 8 8 8 8 7 7
24 25 25 27 29 29 27 27 26 25 23 21 19 17 16 16 15 15 15 15 14 13 11 10 9 8 7 6 6 6 6 7 7 8 9 9 9 10 10 11 11 10 9
28 30 30 30 30 30 32 32 30 28 27 25 23 20 18 18 17 18 17 17 19 17 15 13 13 12 10 9 8 8 8 8 8 9 9 10 11 12 12 12 12 11 11
31 32 34 34 34 32 31 33 33 33 32 31 28 26 24 21 18 18 18 20 20 19 17 16 16 15 12 12 11 10 10 10 10 10 10 11 12 12 12 12 12 12 11
32 34 37 38 39 37 36 35 34 34 35 35 33 31 29 26 24 22 21 22 22 22 22 20 19 18 16 15 14 13 13 12 12 12 12 12 12 13 13 12 12 11 10
32 33 38 42 43 42 42 39 37 37 37 36 35 34 33 31 28 26 25 23 22 22 23 23 22 21 20 18 18 17 16 15 15 14 14 13 13 14 13 13 12 11 11
34 35 37 43 45 47 47 45 43 41 39 38 38 36 35 33 32 31 29 27 25 26 24 25 23 25 23 23 22 21 19 19 18 17 16 15 15 15 14 13 13 12 12
37 37 39 41 46 49 49 49 48 46 45 42 41 41 38 38 36 34 31 31 29 28 27 27 27 27 27 26 25 25 23 22 22 20 19 19 18 18 17 16 15 15 14
41 40 40 42 45 48 52 51 53 49 49 48 42 41 39 39 36 37 35 34 32 27 27 28 30 30 30 30 28 29 27 26 24 23 22 22 23 21 20 20 20 19 18
41 42 40 41 46 49 51 54 54 55 53 50 48 44 41 39 38 38 37 36 33 32 29 30 30 32 29 31 29 31 30 31 27 27 26 26 26 25 24 23 22 22 21
40 40 40 40 42 48 50 54 57 57 56 53 50 47 43 40 42 39 40 39 37 37 31 30 31 31 33 33 31 31 28 34 32 33 30 31 31 29 29 25 26 25 24
43 40 40 39 39 43 50 52 57 60 59 55 53 48 45 41 41 40 36 35 34 37 33 30 30 31 27 27 32 28 29 28 29 29 37 37 31 36 35 33 31 27 26
44 42 39 37 36 38 42 48 50 58 60 58 54 50 46 44 43 41 39 35 32 37 33 30 30 29 26 27 27 21 26 27 27 27 29 34 33 41 46 40 36 33 32
45 46 43 39 36 37 38 41 46 51 58 62 58 54 52 47 43 40 39 37 36 38 35 17 19 22 24 28 29 30 32 35 30 33 35 35 35 40 45 44 41 40 34
40 45 44 42 38 37 40 41 43 46 49 56 62 58 52 49 45 43 41 39 36 36 36 33 31 29 29 34 36 34 35 33 38 40 41 41 36 38 40 48 49 47 40
39 39 38 37 37 36 36 36 39 44 45 47 58 60 54 49 48 45 42 39 40 35 35 33 33 35 35 35 34 36 36 38 41 45 47 46 47 40 40 47 52 49 48
30 34 33 32 32 32 32 32 35 40 45 46 49 54 53 50 49 47 44 43 43 39 37 35 34 36 36 36 39 42 44 48 49 49 51 48 47 44 43 48 48 50 42

GFSSE_700_spd_120.txt.gz
Wind_Speed
11 13 11 9 9 6 4 4 4 2 2 3 2 1 1 1 3 3 3 4 4 4 4 4 4 4 4 5 6 5 6 6 6 8 8 8 8 7 8 8 8 6 5
16 13 11 11 11 9 7 6 5 5 2 1 2 2 1 1 2 4 4 4 4 4 4 4 4 5 4 4 4 5 7 7 7 7 8 8 8 8 7 7 7 7 6
20 14 12 11 13 11 9 7 5 4 2 1 1 3 2 2 1 5 5 4 3 4 5 5 5 5 5 5 5 6 7 8 9 10 10 6 8 7 8 12 10 8 6
21 20 15 11 14 13 11 8 5 5 2 2 2 3 3 1 2 6 6 5 4 4 5 4 4 4 5 5 6 7 8 9 8 8 11 9 10 9 6 6 3 3 4
16 17 21 15 14 16 12 11 8 6 5 4 3 5 3 2 3 6 7 7 4 3 4 3 3 3 4 6 7 7 8 8 7 5 6 7 5 5 5 4 3 2 3
15 12 18 20 16 18 15 13 11 10 7 6 6 5 4 3 4 7 7 8 3 2 3 3 2 2 4 5 7 7 8 7 5 4 5 6 5 4 3 2 1 1 2
15 14 13 18 20 18 17 15 14 13 10 9 8 7 6 5 6 9 9 8 4 1 1 2 2 1 3 4 6 7 7 7 7 6 5 4 3 2 2 1 1 2 2
20 17 17 16 19 21 19 19 19 16 13 11 10 10 9 8 8 10 10 9 8 5 3 2 2 1 2 4 5 6 6 7 6 6 5 4 3 3 3 3 4 4 4
25 24 19 17 19 22 23 21 21 20 17 14 13 13 12 11 11 11 12 11 11 9 6 4 3 3 2 4 5 6 6 6 6 6 6 6 5 5 5 5 6 6 6
19 25 25 22 21 23 25 24 24 22 22 20 18 17 17 16 14 13 13 12 13 12 9 7 6 4 4 4 6 6 7 7 7 8 6 7 7 7 8 8 8 8 8
20 21 24 25 25 26 25 26 26 25 25 24 22 21 20 18 17 17 16 16 15 15 13 11 9 7 6 6 6 7 8 8 8 8 7 9 9 9 10 10 11 11 10
22 24 25 25 26 29 29 30 29 26 26 27 25 23 21 19 20 20 20 19 19 18 17 14 12 10 9 8 8 9 10 10 10 10 8 10 10 10 11 11 12 12 11
24 25 28 29 30 30 31 31 31 30 31 31 29 27 23 21 21 22 22 20 20 19 19 16 13 12 12 11 11 11 11 11 11 11 9 11 11 11 11 11 11 12 11
26 26 29 31 34 35 35 34 34 33 32 33 33 31 29 27 26 24 21 20 22 22 20 19 18 17 17 16 14 14 13 13 13 12 11 12 12 12 12 12 12 12 11
28 28 29 32 34 38 40 39 37 35 35 34 34 36 35 33 32 31 27 24 23 24 23 23 21 20 20 19 19 18 17 15 16 15 12 13 13 14 13 13 13 12 12
30 30 31 33 34 38 42 43 44 41 39 39 37 36 36 35 34 33 31 29 28 26 25 24 22 22 23 23 22 23 21 20 19 19 16 15 15 15 15 15 14 14 14
34 34 34 35 37 39 41 44 48 47 44 43 41 40 37 35 34 33 33 35 35 31 30 28 28 26 26 25 26 26 24 23 22 22 21 18 18 17 17 17 18 16 16
41 40 37 38 40 41 42 44 47 51 51 48 47 43 41 39 37 37 38 38 38 35 32 31 29 31 29 28 27 25 26 25 26 25 22 23 22 20 20 21 20 20 20
41 43 42 37 40 42 44 46 48 50 52 53 51 48 46 43 39 39 34 38 36 38 35 32 29 30 30 29 29 29 27 27 28 27 27 25 26 24 24 23 24 24 24
44 44 43 42 39 41 42 46 48 51 53 53 54 53 49 47 43 40 43 41 39 39 37 39 36 32 32 30 33 32 27 27 33 27 30 29 29 28 28 28 28 28 27
45 47 47 44 41 42 42 44 46 49 51 54 53 55 55 49 47 45 43 42 40 41 35 38 36 35 33 32 31 33 34 29 27 24 26 27 32 32 32 30 31 32 32
49 48 50 47 44 41 42 42 42 45 49 53 54 54 55 51 48 48 46 45 41 43 39 34 31 35 38 30 31 28 30 30 30 28 27 27 27 28 32 32 34 35 40
47 51 50 52 46 43 40 40 40 41 45 49 53 55 56 53 50 49 47 46 43 41 40 39 37 30 41 33 32 30 29 28 28 29 30 30 30 29 31 33 36 40 42
45 47 48 48 46 43 41 41 41 39 41 45 47 44 52 55 53 50 46 49 45 50 38 35 34 31 36 38 32 31 29 31 36 35 34 34 34 36 37 37 36 39 41
35 36 39 40 40 38 39 39 39 39 39 42 42 39 43 52 56 53 49 51 43 44 38 41 38 34 35 33 36 38 35 35 36 38 40 38 42 45 43 44 42 39 39
25 19 23 30 32 30 32 34 36 36 36 39 40 39 38 42 52 55 49 48 44 41 42 40 41 39 39 35 34 35 37 39 38 39 43 44 45 48 48 46 45 43 38